<?xml version="1.0" encoding="UTF-8" standalone="no" ?>
<gpx xmlns="http://www.topografix.com/GPX/1/1" xmlns:xsi="http://www.w3.org/2001/XMLSchema-instance" xsi:schemaLocation="http://www.topografix.com/GPX/1/1 http://www.topografix.com/GPX/1/1/gpx.xsd" version="1.1" creator="VisuGPX - https://www.visugpx.com">
  <metadata>
    <name>140604ROBMinots</name>
    <desc><![CDATA[Entrainement des minots]]></desc>
  </metadata>
  <trk>
    <name><![CDATA[140604ROBMinots]]></name>
    <trkseg>
      <trkpt lat="43.41579" lon="6.07049">
        <ele>218.84600830078</ele>
        <time>2014-06-04T12:07:08Z</time>
      </trkpt>
      <trkpt lat="43.41579" lon="6.07049">
        <ele>218.83227539062</ele>
        <time>2014-06-04T12:07:11Z</time>
      </trkpt>
      <trkpt lat="43.41579" lon="6.07049">
        <ele>218.84600830078</ele>
        <time>2014-06-04T12:07:12Z</time>
      </trkpt>
      <trkpt lat="43.41579" lon="6.07049">
        <ele>218.84600830078</ele>
        <time>2014-06-04T12:07:13Z</time>
      </trkpt>
      <trkpt lat="43.41581" lon="6.07053">
        <ele>218.91467285156</ele>
        <time>2014-06-04T12:07:17Z</time>
      </trkpt>
      <trkpt lat="43.41581" lon="6.07067">
        <ele>218.52624511719</ele>
        <time>2014-06-04T12:07:25Z</time>
      </trkpt>
      <trkpt lat="43.41582" lon="6.07088">
        <ele>217.96960449219</ele>
        <time>2014-06-04T12:07:33Z</time>
      </trkpt>
      <trkpt lat="43.41584" lon="6.07111">
        <ele>218</ele>
        <time>2014-06-04T12:07:40Z</time>
      </trkpt>
      <trkpt lat="43.41563" lon="6.07118">
        <ele>217.26922607422</ele>
        <time>2014-06-04T12:07:50Z</time>
      </trkpt>
      <trkpt lat="43.41548" lon="6.07118">
        <ele>217</ele>
        <time>2014-06-04T12:07:55Z</time>
      </trkpt>
      <trkpt lat="43.41546" lon="6.07115">
        <ele>217</ele>
        <time>2014-06-04T12:07:56Z</time>
      </trkpt>
      <trkpt lat="43.41542" lon="6.07106">
        <ele>217</ele>
        <time>2014-06-04T12:07:59Z</time>
      </trkpt>
      <trkpt lat="43.41542" lon="6.07094">
        <ele>217</ele>
        <time>2014-06-04T12:08:00Z</time>
      </trkpt>
      <trkpt lat="43.41541" lon="6.07079">
        <ele>217.16009521484</ele>
        <time>2014-06-04T12:08:07Z</time>
      </trkpt>
      <trkpt lat="43.41538" lon="6.07077">
        <ele>217.22189331055</ele>
        <time>2014-06-04T12:08:09Z</time>
      </trkpt>
      <trkpt lat="43.41534" lon="6.07077">
        <ele>217.21160888672</ele>
        <time>2014-06-04T12:08:11Z</time>
      </trkpt>
      <trkpt lat="43.41515" lon="6.07084">
        <ele>216.53887939453</ele>
        <time>2014-06-04T12:08:17Z</time>
      </trkpt>
      <trkpt lat="43.41505" lon="6.07087">
        <ele>216.19555664062</ele>
        <time>2014-06-04T12:08:20Z</time>
      </trkpt>
      <trkpt lat="43.41502" lon="6.07088">
        <ele>216.07196044922</ele>
        <time>2014-06-04T12:08:21Z</time>
      </trkpt>
      <trkpt lat="43.41495" lon="6.07087">
        <ele>215.82476806641</ele>
        <time>2014-06-04T12:08:23Z</time>
      </trkpt>
      <trkpt lat="43.4148" lon="6.07079">
        <ele>215.435546875</ele>
        <time>2014-06-04T12:08:28Z</time>
      </trkpt>
      <trkpt lat="43.41471" lon="6.07077">
        <ele>215.22875976562</ele>
        <time>2014-06-04T12:08:32Z</time>
      </trkpt>
      <trkpt lat="43.4147" lon="6.07077">
        <ele>215.23220825195</ele>
        <time>2014-06-04T12:08:33Z</time>
      </trkpt>
      <trkpt lat="43.41466" lon="6.07076">
        <ele>215.26309204102</ele>
        <time>2014-06-04T12:08:36Z</time>
      </trkpt>
      <trkpt lat="43.41465" lon="6.07076">
        <ele>215.25108337402</ele>
        <time>2014-06-04T12:08:39Z</time>
      </trkpt>
      <trkpt lat="43.41457" lon="6.07081">
        <ele>215.09143066406</ele>
        <time>2014-06-04T12:08:43Z</time>
      </trkpt>
      <trkpt lat="43.41456" lon="6.07083">
        <ele>215.0158996582</ele>
        <time>2014-06-04T12:08:44Z</time>
      </trkpt>
      <trkpt lat="43.41448" lon="6.07096">
        <ele>215</ele>
        <time>2014-06-04T12:08:48Z</time>
      </trkpt>
      <trkpt lat="43.41438" lon="6.07125">
        <ele>214.76483154297</ele>
        <time>2014-06-04T12:08:54Z</time>
      </trkpt>
      <trkpt lat="43.41431" lon="6.07146">
        <ele>214.51763916016</ele>
        <time>2014-06-04T12:08:58Z</time>
      </trkpt>
      <trkpt lat="43.41428" lon="6.07158">
        <ele>214.39404296875</ele>
        <time>2014-06-04T12:09:00Z</time>
      </trkpt>
      <trkpt lat="43.41424" lon="6.07171">
        <ele>214.27044677734</ele>
        <time>2014-06-04T12:09:02Z</time>
      </trkpt>
      <trkpt lat="43.41416" lon="6.07197">
        <ele>213.98205566406</ele>
        <time>2014-06-04T12:09:06Z</time>
      </trkpt>
      <trkpt lat="43.41412" lon="6.07211">
        <ele>213.81726074219</ele>
        <time>2014-06-04T12:09:08Z</time>
      </trkpt>
      <trkpt lat="43.41398" lon="6.07254">
        <ele>213.33660888672</ele>
        <time>2014-06-04T12:09:14Z</time>
      </trkpt>
      <trkpt lat="43.41392" lon="6.07274">
        <ele>213.10314941406</ele>
        <time>2014-06-04T12:09:17Z</time>
      </trkpt>
      <trkpt lat="43.41385" lon="6.07302">
        <ele>213</ele>
        <time>2014-06-04T12:09:22Z</time>
      </trkpt>
      <trkpt lat="43.41381" lon="6.07326">
        <ele>213</ele>
        <time>2014-06-04T12:09:28Z</time>
      </trkpt>
      <trkpt lat="43.41385" lon="6.07334">
        <ele>213</ele>
        <time>2014-06-04T12:09:30Z</time>
      </trkpt>
      <trkpt lat="43.41388" lon="6.07336">
        <ele>213</ele>
        <time>2014-06-04T12:09:31Z</time>
      </trkpt>
      <trkpt lat="43.41404" lon="6.07338">
        <ele>213.54260253906</ele>
        <time>2014-06-04T12:09:36Z</time>
      </trkpt>
      <trkpt lat="43.41425" lon="6.07337">
        <ele>214.31164550781</ele>
        <time>2014-06-04T12:09:42Z</time>
      </trkpt>
      <trkpt lat="43.41445" lon="6.07337">
        <ele>215.01202392578</ele>
        <time>2014-06-04T12:09:48Z</time>
      </trkpt>
      <trkpt lat="43.41467" lon="6.07339">
        <ele>215.822265625</ele>
        <time>2014-06-04T12:09:54Z</time>
      </trkpt>
      <trkpt lat="43.41487" lon="6.07354">
        <ele>216.52264404297</ele>
        <time>2014-06-04T12:10:00Z</time>
      </trkpt>
      <trkpt lat="43.415" lon="6.07368">
        <ele>216.98956298828</ele>
        <time>2014-06-04T12:10:04Z</time>
      </trkpt>
      <trkpt lat="43.41506" lon="6.07377">
        <ele>217.20928955078</ele>
        <time>2014-06-04T12:10:06Z</time>
      </trkpt>
      <trkpt lat="43.41525" lon="6.07405">
        <ele>217.89593505859</ele>
        <time>2014-06-04T12:10:12Z</time>
      </trkpt>
      <trkpt lat="43.41532" lon="6.0742">
        <ele>218.15686035156</ele>
        <time>2014-06-04T12:10:15Z</time>
      </trkpt>
      <trkpt lat="43.41539" lon="6.07435">
        <ele>218.39031982422</ele>
        <time>2014-06-04T12:10:18Z</time>
      </trkpt>
      <trkpt lat="43.41547" lon="6.07448">
        <ele>218.6787109375</ele>
        <time>2014-06-04T12:10:21Z</time>
      </trkpt>
      <trkpt lat="43.41566" lon="6.07446">
        <ele>219.39282226562</ele>
        <time>2014-06-04T12:10:27Z</time>
      </trkpt>
      <trkpt lat="43.4157" lon="6.07445">
        <ele>219.51641845703</ele>
        <time>2014-06-04T12:10:28Z</time>
      </trkpt>
      <trkpt lat="43.41586" lon="6.07443">
        <ele>220.09320068359</ele>
        <time>2014-06-04T12:10:33Z</time>
      </trkpt>
      <trkpt lat="43.41589" lon="6.07443">
        <ele>220.18933105469</ele>
        <time>2014-06-04T12:10:34Z</time>
      </trkpt>
      <trkpt lat="43.416" lon="6.07441">
        <ele>220.61505126953</ele>
        <time>2014-06-04T12:10:38Z</time>
      </trkpt>
      <trkpt lat="43.41604" lon="6.0744">
        <ele>220.73864746094</ele>
        <time>2014-06-04T12:10:39Z</time>
      </trkpt>
      <trkpt lat="43.4161" lon="6.07439">
        <ele>220.95837402344</ele>
        <time>2014-06-04T12:10:41Z</time>
      </trkpt>
      <trkpt lat="43.4163" lon="6.07437">
        <ele>221.68621826172</ele>
        <time>2014-06-04T12:10:47Z</time>
      </trkpt>
      <trkpt lat="43.41652" lon="6.07436">
        <ele>222.33744812012</ele>
        <time>2014-06-04T12:10:53Z</time>
      </trkpt>
      <trkpt lat="43.41673" lon="6.07433">
        <ele>222.81692504883</ele>
        <time>2014-06-04T12:11:00Z</time>
      </trkpt>
      <trkpt lat="43.41676" lon="6.07433">
        <ele>222.91821289062</ele>
        <time>2014-06-04T12:11:01Z</time>
      </trkpt>
      <trkpt lat="43.41682" lon="6.07432">
        <ele>223.11218261719</ele>
        <time>2014-06-04T12:11:03Z</time>
      </trkpt>
      <trkpt lat="43.41693" lon="6.0743">
        <ele>223.41946411133</ele>
        <time>2014-06-04T12:11:07Z</time>
      </trkpt>
      <trkpt lat="43.41704" lon="6.07429">
        <ele>223.43984985352</ele>
        <time>2014-06-04T12:11:12Z</time>
      </trkpt>
      <trkpt lat="43.41708" lon="6.07428">
        <ele>223.41409301758</ele>
        <time>2014-06-04T12:11:14Z</time>
      </trkpt>
      <trkpt lat="43.41712" lon="6.07427">
        <ele>223.37460327148</ele>
        <time>2014-06-04T12:11:16Z</time>
      </trkpt>
      <trkpt lat="43.41718" lon="6.07426">
        <ele>223.34199523926</ele>
        <time>2014-06-04T12:11:19Z</time>
      </trkpt>
      <trkpt lat="43.41722" lon="6.07425">
        <ele>223.30252075195</ele>
        <time>2014-06-04T12:11:22Z</time>
      </trkpt>
      <trkpt lat="43.41722" lon="6.07425">
        <ele>223.29736328125</ele>
        <time>2014-06-04T12:11:23Z</time>
      </trkpt>
      <trkpt lat="43.41723" lon="6.07425">
        <ele>223.32583618164</ele>
        <time>2014-06-04T12:11:24Z</time>
      </trkpt>
      <trkpt lat="43.41724" lon="6.07424">
        <ele>223.33097839356</ele>
        <time>2014-06-04T12:11:25Z</time>
      </trkpt>
      <trkpt lat="43.41724" lon="6.07424">
        <ele>223.33097839356</ele>
        <time>2014-06-04T12:11:29Z</time>
      </trkpt>
      <trkpt lat="43.41724" lon="6.07424">
        <ele>223.33270263672</ele>
        <time>2014-06-04T12:11:33Z</time>
      </trkpt>
      <trkpt lat="43.41725" lon="6.07424">
        <ele>223.35844421387</ele>
        <time>2014-06-04T12:11:36Z</time>
      </trkpt>
      <trkpt lat="43.41726" lon="6.07424">
        <ele>223.36874389648</ele>
        <time>2014-06-04T12:11:37Z</time>
      </trkpt>
      <trkpt lat="43.41728" lon="6.07423">
        <ele>223.43740844727</ele>
        <time>2014-06-04T12:11:39Z</time>
      </trkpt>
      <trkpt lat="43.41734" lon="6.07421">
        <ele>223.57817077637</ele>
        <time>2014-06-04T12:11:42Z</time>
      </trkpt>
      <trkpt lat="43.41739" lon="6.0742">
        <ele>223.71035766602</ele>
        <time>2014-06-04T12:11:45Z</time>
      </trkpt>
      <trkpt lat="43.41741" lon="6.07419">
        <ele>223.77729797363</ele>
        <time>2014-06-04T12:11:46Z</time>
      </trkpt>
      <trkpt lat="43.41743" lon="6.07419">
        <ele>223.83395385742</ele>
        <time>2014-06-04T12:11:47Z</time>
      </trkpt>
      <trkpt lat="43.41747" lon="6.07418">
        <ele>223.92321777344</ele>
        <time>2014-06-04T12:11:49Z</time>
      </trkpt>
      <trkpt lat="43.41758" lon="6.07415">
        <ele>224.53440856934</ele>
        <time>2014-06-04T12:11:55Z</time>
      </trkpt>
      <trkpt lat="43.41759" lon="6.07415">
        <ele>224.6357421875</ele>
        <time>2014-06-04T12:11:56Z</time>
      </trkpt>
      <trkpt lat="43.41761" lon="6.07415">
        <ele>224.76681518555</ele>
        <time>2014-06-04T12:11:57Z</time>
      </trkpt>
      <trkpt lat="43.41766" lon="6.07414">
        <ele>225.07868957519</ele>
        <time>2014-06-04T12:12:00Z</time>
      </trkpt>
      <trkpt lat="43.41778" lon="6.07413">
        <ele>225.87249755859</ele>
        <time>2014-06-04T12:12:06Z</time>
      </trkpt>
      <trkpt lat="43.41782" lon="6.07412">
        <ele>225.99609375</ele>
        <time>2014-06-04T12:12:08Z</time>
      </trkpt>
      <trkpt lat="43.41785" lon="6.07414">
        <ele>226.16432189941</ele>
        <time>2014-06-04T12:12:10Z</time>
      </trkpt>
      <trkpt lat="43.41798" lon="6.07422">
        <ele>226.85270690918</ele>
        <time>2014-06-04T12:12:18Z</time>
      </trkpt>
      <trkpt lat="43.41798" lon="6.07424">
        <ele>226.94790649414</ele>
        <time>2014-06-04T12:12:19Z</time>
      </trkpt>
      <trkpt lat="43.41799" lon="6.07426">
        <ele>227.01733398438</ele>
        <time>2014-06-04T12:12:20Z</time>
      </trkpt>
      <trkpt lat="43.41801" lon="6.0743">
        <ele>227.21170043945</ele>
        <time>2014-06-04T12:12:23Z</time>
      </trkpt>
      <trkpt lat="43.41808" lon="6.07441">
        <ele>227.93930053711</ele>
        <time>2014-06-04T12:12:28Z</time>
      </trkpt>
      <trkpt lat="43.41815" lon="6.07444">
        <ele>228.33068847656</ele>
        <time>2014-06-04T12:12:31Z</time>
      </trkpt>
      <trkpt lat="43.41817" lon="6.07445">
        <ele>228.46458435059</ele>
        <time>2014-06-04T12:12:32Z</time>
      </trkpt>
      <trkpt lat="43.41821" lon="6.07446">
        <ele>228.61221313477</ele>
        <time>2014-06-04T12:12:33Z</time>
      </trkpt>
      <trkpt lat="43.41824" lon="6.07447">
        <ele>228.77185058594</ele>
        <time>2014-06-04T12:12:34Z</time>
      </trkpt>
      <trkpt lat="43.41846" lon="6.07447">
        <ele>230.013671875</ele>
        <time>2014-06-04T12:12:41Z</time>
      </trkpt>
      <trkpt lat="43.41859" lon="6.07445">
        <ele>230.83422851562</ele>
        <time>2014-06-04T12:12:45Z</time>
      </trkpt>
      <trkpt lat="43.41864" lon="6.07444">
        <ele>231.07476806641</ele>
        <time>2014-06-04T12:12:47Z</time>
      </trkpt>
      <trkpt lat="43.41874" lon="6.07442">
        <ele>231.37002563477</ele>
        <time>2014-06-04T12:12:51Z</time>
      </trkpt>
      <trkpt lat="43.4188" lon="6.07442">
        <ele>231.60177612305</ele>
        <time>2014-06-04T12:12:54Z</time>
      </trkpt>
      <trkpt lat="43.41889" lon="6.07442">
        <ele>231.94564819336</ele>
        <time>2014-06-04T12:12:58Z</time>
      </trkpt>
      <trkpt lat="43.41895" lon="6.07443">
        <ele>232.41943359375</ele>
        <time>2014-06-04T12:13:01Z</time>
      </trkpt>
      <trkpt lat="43.41911" lon="6.07444">
        <ele>233.53695678711</ele>
        <time>2014-06-04T12:13:08Z</time>
      </trkpt>
      <trkpt lat="43.41914" lon="6.07445">
        <ele>233.82069396973</ele>
        <time>2014-06-04T12:13:10Z</time>
      </trkpt>
      <trkpt lat="43.41918" lon="6.07446">
        <ele>234.28381347656</ele>
        <time>2014-06-04T12:13:12Z</time>
      </trkpt>
      <trkpt lat="43.4192" lon="6.07445">
        <ele>234.6081237793</ele>
        <time>2014-06-04T12:13:13Z</time>
      </trkpt>
      <trkpt lat="43.4193" lon="6.07447">
        <ele>236.60371398926</ele>
        <time>2014-06-04T12:13:20Z</time>
      </trkpt>
      <trkpt lat="43.4193" lon="6.07447">
        <ele>236.58819580078</ele>
        <time>2014-06-04T12:13:21Z</time>
      </trkpt>
      <trkpt lat="43.4193" lon="6.07447">
        <ele>236.58819580078</ele>
        <time>2014-06-04T12:13:36Z</time>
      </trkpt>
      <trkpt lat="43.4193" lon="6.07447">
        <ele>236.58819580078</ele>
        <time>2014-06-04T12:13:45Z</time>
      </trkpt>
      <trkpt lat="43.41931" lon="6.07447">
        <ele>236.6506652832</ele>
        <time>2014-06-04T12:13:48Z</time>
      </trkpt>
      <trkpt lat="43.41934" lon="6.07445">
        <ele>237.19358825684</ele>
        <time>2014-06-04T12:13:50Z</time>
      </trkpt>
      <trkpt lat="43.41946" lon="6.07442">
        <ele>238.91360473633</ele>
        <time>2014-06-04T12:13:55Z</time>
      </trkpt>
      <trkpt lat="43.41948" lon="6.07442">
        <ele>238.96717834473</ele>
        <time>2014-06-04T12:13:56Z</time>
      </trkpt>
      <trkpt lat="43.41965" lon="6.07437">
        <ele>239.61233520508</ele>
        <time>2014-06-04T12:14:01Z</time>
      </trkpt>
      <trkpt lat="43.41971" lon="6.07437">
        <ele>239.94256591797</ele>
        <time>2014-06-04T12:14:03Z</time>
      </trkpt>
      <trkpt lat="43.41974" lon="6.07436">
        <ele>240</ele>
        <time>2014-06-04T12:14:04Z</time>
      </trkpt>
      <trkpt lat="43.41991" lon="6.07435">
        <ele>240</ele>
        <time>2014-06-04T12:14:11Z</time>
      </trkpt>
      <trkpt lat="43.41995" lon="6.0744">
        <ele>240</ele>
        <time>2014-06-04T12:14:13Z</time>
      </trkpt>
      <trkpt lat="43.41996" lon="6.07443">
        <ele>240</ele>
        <time>2014-06-04T12:14:14Z</time>
      </trkpt>
      <trkpt lat="43.41997" lon="6.07447">
        <ele>240</ele>
        <time>2014-06-04T12:14:15Z</time>
      </trkpt>
      <trkpt lat="43.41998" lon="6.07454">
        <ele>240</ele>
        <time>2014-06-04T12:14:17Z</time>
      </trkpt>
      <trkpt lat="43.41999" lon="6.07458">
        <ele>240</ele>
        <time>2014-06-04T12:14:18Z</time>
      </trkpt>
      <trkpt lat="43.42003" lon="6.07474">
        <ele>240</ele>
        <time>2014-06-04T12:14:22Z</time>
      </trkpt>
      <trkpt lat="43.42013" lon="6.07497">
        <ele>240</ele>
        <time>2014-06-04T12:14:27Z</time>
      </trkpt>
      <trkpt lat="43.42027" lon="6.07505">
        <ele>240</ele>
        <time>2014-06-04T12:14:31Z</time>
      </trkpt>
      <trkpt lat="43.42038" lon="6.07505">
        <ele>240</ele>
        <time>2014-06-04T12:14:34Z</time>
      </trkpt>
      <trkpt lat="43.42074" lon="6.07504">
        <ele>239.42549133301</ele>
        <time>2014-06-04T12:14:43Z</time>
      </trkpt>
      <trkpt lat="43.42088" lon="6.07502">
        <ele>238.89323425293</ele>
        <time>2014-06-04T12:14:47Z</time>
      </trkpt>
      <trkpt lat="43.42114" lon="6.07499">
        <ele>237.97773742676</ele>
        <time>2014-06-04T12:14:52Z</time>
      </trkpt>
      <trkpt lat="43.42119" lon="6.07497">
        <ele>237.9189453125</ele>
        <time>2014-06-04T12:14:53Z</time>
      </trkpt>
      <trkpt lat="43.42127" lon="6.07485">
        <ele>237.77272033691</ele>
        <time>2014-06-04T12:14:55Z</time>
      </trkpt>
      <trkpt lat="43.42132" lon="6.07469">
        <ele>237.65309143066</ele>
        <time>2014-06-04T12:14:57Z</time>
      </trkpt>
      <trkpt lat="43.42134" lon="6.07459">
        <ele>237.42695617676</ele>
        <time>2014-06-04T12:14:58Z</time>
      </trkpt>
      <trkpt lat="43.42136" lon="6.0745">
        <ele>237.16871643066</ele>
        <time>2014-06-04T12:14:59Z</time>
      </trkpt>
      <trkpt lat="43.42138" lon="6.0744">
        <ele>237</ele>
        <time>2014-06-04T12:15:00Z</time>
      </trkpt>
      <trkpt lat="43.42139" lon="6.07431">
        <ele>237.01965332031</ele>
        <time>2014-06-04T12:15:01Z</time>
      </trkpt>
      <trkpt lat="43.42144" lon="6.07404">
        <ele>237.17071533203</ele>
        <time>2014-06-04T12:15:04Z</time>
      </trkpt>
      <trkpt lat="43.42146" lon="6.07387">
        <ele>237.26684570312</ele>
        <time>2014-06-04T12:15:06Z</time>
      </trkpt>
      <trkpt lat="43.42149" lon="6.0737">
        <ele>237.34924316406</ele>
        <time>2014-06-04T12:15:08Z</time>
      </trkpt>
      <trkpt lat="43.42152" lon="6.07345">
        <ele>236.8811340332</ele>
        <time>2014-06-04T12:15:11Z</time>
      </trkpt>
      <trkpt lat="43.4216" lon="6.07288">
        <ele>236.76123046875</ele>
        <time>2014-06-04T12:15:18Z</time>
      </trkpt>
      <trkpt lat="43.42168" lon="6.07249">
        <ele>237.04962158203</ele>
        <time>2014-06-04T12:15:24Z</time>
      </trkpt>
      <trkpt lat="43.42171" lon="6.07231">
        <ele>237.15948486328</ele>
        <time>2014-06-04T12:15:27Z</time>
      </trkpt>
      <trkpt lat="43.42174" lon="6.07207">
        <ele>237.80490112305</ele>
        <time>2014-06-04T12:15:31Z</time>
      </trkpt>
      <trkpt lat="43.42176" lon="6.0718">
        <ele>238.35174560547</ele>
        <time>2014-06-04T12:15:35Z</time>
      </trkpt>
      <trkpt lat="43.42178" lon="6.07163">
        <ele>238.51292419434</ele>
        <time>2014-06-04T12:15:37Z</time>
      </trkpt>
      <trkpt lat="43.42177" lon="6.07154">
        <ele>238.82534790039</ele>
        <time>2014-06-04T12:15:38Z</time>
      </trkpt>
      <trkpt lat="43.42171" lon="6.07129">
        <ele>239.15948486328</ele>
        <time>2014-06-04T12:15:41Z</time>
      </trkpt>
      <trkpt lat="43.4217" lon="6.07113">
        <ele>239.10455322266</ele>
        <time>2014-06-04T12:15:43Z</time>
      </trkpt>
      <trkpt lat="43.42167" lon="6.07098">
        <ele>239.48640441894</ele>
        <time>2014-06-04T12:15:45Z</time>
      </trkpt>
      <trkpt lat="43.42162" lon="6.07084">
        <ele>239.67913818359</ele>
        <time>2014-06-04T12:15:48Z</time>
      </trkpt>
      <trkpt lat="43.42159" lon="6.07077">
        <ele>239.46752929688</ele>
        <time>2014-06-04T12:15:51Z</time>
      </trkpt>
      <trkpt lat="43.42159" lon="6.07073">
        <ele>239.44006347656</ele>
        <time>2014-06-04T12:15:53Z</time>
      </trkpt>
      <trkpt lat="43.4216" lon="6.07071">
        <ele>239.49499511719</ele>
        <time>2014-06-04T12:15:55Z</time>
      </trkpt>
      <trkpt lat="43.4216" lon="6.07068">
        <ele>239.54992675781</ele>
        <time>2014-06-04T12:15:57Z</time>
      </trkpt>
      <trkpt lat="43.42168" lon="6.07063">
        <ele>240.0940246582</ele>
        <time>2014-06-04T12:16:02Z</time>
      </trkpt>
      <trkpt lat="43.42182" lon="6.07064">
        <ele>240.78942871094</ele>
        <time>2014-06-04T12:16:07Z</time>
      </trkpt>
      <trkpt lat="43.42201" lon="6.07064">
        <ele>241.89553833008</ele>
        <time>2014-06-04T12:16:14Z</time>
      </trkpt>
      <trkpt lat="43.42207" lon="6.07062">
        <ele>242.49684143066</ele>
        <time>2014-06-04T12:16:17Z</time>
      </trkpt>
      <trkpt lat="43.42208" lon="6.07061">
        <ele>242.70796203613</ele>
        <time>2014-06-04T12:16:18Z</time>
      </trkpt>
      <trkpt lat="43.42218" lon="6.07068">
        <ele>243.23207092285</ele>
        <time>2014-06-04T12:16:20Z</time>
      </trkpt>
      <trkpt lat="43.42233" lon="6.07075">
        <ele>244.07272338867</ele>
        <time>2014-06-04T12:16:24Z</time>
      </trkpt>
      <trkpt lat="43.42235" lon="6.0708">
        <ele>244.0315246582</ele>
        <time>2014-06-04T12:16:25Z</time>
      </trkpt>
      <trkpt lat="43.42236" lon="6.07107">
        <ele>242.71762084961</ele>
        <time>2014-06-04T12:16:29Z</time>
      </trkpt>
      <trkpt lat="43.42236" lon="6.07122">
        <ele>242.06134033203</ele>
        <time>2014-06-04T12:16:31Z</time>
      </trkpt>
      <trkpt lat="43.42233" lon="6.07149">
        <ele>240.98002624512</ele>
        <time>2014-06-04T12:16:35Z</time>
      </trkpt>
      <trkpt lat="43.42231" lon="6.07162">
        <ele>240.65591430664</ele>
        <time>2014-06-04T12:16:37Z</time>
      </trkpt>
      <trkpt lat="43.42227" lon="6.07194">
        <ele>240.32897949219</ele>
        <time>2014-06-04T12:16:42Z</time>
      </trkpt>
      <trkpt lat="43.42224" lon="6.07223">
        <ele>239.1072845459</ele>
        <time>2014-06-04T12:16:47Z</time>
      </trkpt>
      <trkpt lat="43.42218" lon="6.07268">
        <ele>238.83489990234</ele>
        <time>2014-06-04T12:16:54Z</time>
      </trkpt>
      <trkpt lat="43.42211" lon="6.07316">
        <ele>238.58770751953</ele>
        <time>2014-06-04T12:17:01Z</time>
      </trkpt>
      <trkpt lat="43.42202" lon="6.07377">
        <ele>238.27185058594</ele>
        <time>2014-06-04T12:17:10Z</time>
      </trkpt>
      <trkpt lat="43.42196" lon="6.07426">
        <ele>239.05212402344</ele>
        <time>2014-06-04T12:17:17Z</time>
      </trkpt>
      <trkpt lat="43.42195" lon="6.07443">
        <ele>239.01092529297</ele>
        <time>2014-06-04T12:17:20Z</time>
      </trkpt>
      <trkpt lat="43.42197" lon="6.07448">
        <ele>239.10705566406</ele>
        <time>2014-06-04T12:17:21Z</time>
      </trkpt>
      <trkpt lat="43.42209" lon="6.0745">
        <ele>239.51904296875</ele>
        <time>2014-06-04T12:17:24Z</time>
      </trkpt>
      <trkpt lat="43.42234" lon="6.07443">
        <ele>240</ele>
        <time>2014-06-04T12:17:30Z</time>
      </trkpt>
      <trkpt lat="43.4225" lon="6.07445">
        <ele>240</ele>
        <time>2014-06-04T12:17:35Z</time>
      </trkpt>
      <trkpt lat="43.42256" lon="6.07457">
        <ele>240</ele>
        <time>2014-06-04T12:17:38Z</time>
      </trkpt>
      <trkpt lat="43.42256" lon="6.07479">
        <ele>240.05682373047</ele>
        <time>2014-06-04T12:17:42Z</time>
      </trkpt>
      <trkpt lat="43.42257" lon="6.07507">
        <ele>240.4924621582</ele>
        <time>2014-06-04T12:17:47Z</time>
      </trkpt>
      <trkpt lat="43.42256" lon="6.07528">
        <ele>241.22717285156</ele>
        <time>2014-06-04T12:17:51Z</time>
      </trkpt>
      <trkpt lat="43.42255" lon="6.07551">
        <ele>241.98934936523</ele>
        <time>2014-06-04T12:17:55Z</time>
      </trkpt>
      <trkpt lat="43.42253" lon="6.07578">
        <ele>243.72401428223</ele>
        <time>2014-06-04T12:18:00Z</time>
      </trkpt>
      <trkpt lat="43.42255" lon="6.0761">
        <ele>244.32751464844</ele>
        <time>2014-06-04T12:18:06Z</time>
      </trkpt>
      <trkpt lat="43.42255" lon="6.07616">
        <ele>244.65948486328</ele>
        <time>2014-06-04T12:18:07Z</time>
      </trkpt>
      <trkpt lat="43.42255" lon="6.07621">
        <ele>245.06282043457</ele>
        <time>2014-06-04T12:18:08Z</time>
      </trkpt>
      <trkpt lat="43.42255" lon="6.07627">
        <ele>245.41305541992</ele>
        <time>2014-06-04T12:18:09Z</time>
      </trkpt>
      <trkpt lat="43.42256" lon="6.07632">
        <ele>245.73417663574</ele>
        <time>2014-06-04T12:18:10Z</time>
      </trkpt>
      <trkpt lat="43.42256" lon="6.07636">
        <ele>246.01406860352</ele>
        <time>2014-06-04T12:18:11Z</time>
      </trkpt>
      <trkpt lat="43.42256" lon="6.0764">
        <ele>246.23031616211</ele>
        <time>2014-06-04T12:18:12Z</time>
      </trkpt>
      <trkpt lat="43.42256" lon="6.07648">
        <ele>246.54788208008</ele>
        <time>2014-06-04T12:18:17Z</time>
      </trkpt>
      <trkpt lat="43.42256" lon="6.07648">
        <ele>246.54788208008</ele>
        <time>2014-06-04T12:18:38Z</time>
      </trkpt>
      <trkpt lat="43.42256" lon="6.07648">
        <ele>246.54788208008</ele>
        <time>2014-06-04T12:18:47Z</time>
      </trkpt>
      <trkpt lat="43.42255" lon="6.07648">
        <ele>246.53759765625</ele>
        <time>2014-06-04T12:19:01Z</time>
      </trkpt>
      <trkpt lat="43.42255" lon="6.07649">
        <ele>246.55303955078</ele>
        <time>2014-06-04T12:19:07Z</time>
      </trkpt>
      <trkpt lat="43.42255" lon="6.07649">
        <ele>246.55303955078</ele>
        <time>2014-06-04T12:19:29Z</time>
      </trkpt>
      <trkpt lat="43.42255" lon="6.07649">
        <ele>246.54788208008</ele>
        <time>2014-06-04T12:22:11Z</time>
      </trkpt>
      <trkpt lat="43.42255" lon="6.07649">
        <ele>246.55474853516</ele>
        <time>2014-06-04T12:22:54Z</time>
      </trkpt>
      <trkpt lat="43.42255" lon="6.07649">
        <ele>246.55474853516</ele>
        <time>2014-06-04T12:23:01Z</time>
      </trkpt>
      <trkpt lat="43.42255" lon="6.07649">
        <ele>246.55647277832</ele>
        <time>2014-06-04T12:23:06Z</time>
      </trkpt>
      <trkpt lat="43.42255" lon="6.07649">
        <ele>246.55647277832</ele>
        <time>2014-06-04T12:23:27Z</time>
      </trkpt>
      <trkpt lat="43.42255" lon="6.07649">
        <ele>246.55303955078</ele>
        <time>2014-06-04T12:24:02Z</time>
      </trkpt>
      <trkpt lat="43.42255" lon="6.07649">
        <ele>246.55303955078</ele>
        <time>2014-06-04T12:24:14Z</time>
      </trkpt>
      <trkpt lat="43.42255" lon="6.07651">
        <ele>246.5856628418</ele>
        <time>2014-06-04T12:24:24Z</time>
      </trkpt>
      <trkpt lat="43.42255" lon="6.07651">
        <ele>246.5856628418</ele>
        <time>2014-06-04T12:24:32Z</time>
      </trkpt>
      <trkpt lat="43.42255" lon="6.07651">
        <ele>246.5856628418</ele>
        <time>2014-06-04T12:24:46Z</time>
      </trkpt>
      <trkpt lat="43.42255" lon="6.07649">
        <ele>246.56506347656</ele>
        <time>2014-06-04T12:24:51Z</time>
      </trkpt>
      <trkpt lat="43.42256" lon="6.0765">
        <ele>246.61140441894</ele>
        <time>2014-06-04T12:24:52Z</time>
      </trkpt>
      <trkpt lat="43.42257" lon="6.07648">
        <ele>246.59252929688</ele>
        <time>2014-06-04T12:24:57Z</time>
      </trkpt>
      <trkpt lat="43.42257" lon="6.07648">
        <ele>246.59252929688</ele>
        <time>2014-06-04T12:25:23Z</time>
      </trkpt>
      <trkpt lat="43.42257" lon="6.07648">
        <ele>246.59252929688</ele>
        <time>2014-06-04T12:25:33Z</time>
      </trkpt>
      <trkpt lat="43.42257" lon="6.07648">
        <ele>246.57534790039</ele>
        <time>2014-06-04T12:25:40Z</time>
      </trkpt>
      <trkpt lat="43.42257" lon="6.07648">
        <ele>246.57534790039</ele>
        <time>2014-06-04T12:25:58Z</time>
      </trkpt>
      <trkpt lat="43.42257" lon="6.07648">
        <ele>246.57534790039</ele>
        <time>2014-06-04T12:26:13Z</time>
      </trkpt>
      <trkpt lat="43.42257" lon="6.07648">
        <ele>246.56848144531</ele>
        <time>2014-06-04T12:26:14Z</time>
      </trkpt>
      <trkpt lat="43.42256" lon="6.0765">
        <ele>246.61999511719</ele>
        <time>2014-06-04T12:26:18Z</time>
      </trkpt>
      <trkpt lat="43.42255" lon="6.07651">
        <ele>246.64401245117</ele>
        <time>2014-06-04T12:26:26Z</time>
      </trkpt>
      <trkpt lat="43.42255" lon="6.07658">
        <ele>246.87232971191</ele>
        <time>2014-06-04T12:26:30Z</time>
      </trkpt>
      <trkpt lat="43.42255" lon="6.07665">
        <ele>247.09205627441</ele>
        <time>2014-06-04T12:26:32Z</time>
      </trkpt>
      <trkpt lat="43.42256" lon="6.07688">
        <ele>247.98469543457</ele>
        <time>2014-06-04T12:26:38Z</time>
      </trkpt>
      <trkpt lat="43.42256" lon="6.07692">
        <ele>248.1237487793</ele>
        <time>2014-06-04T12:26:39Z</time>
      </trkpt>
      <trkpt lat="43.42256" lon="6.07696">
        <ele>248.25935363769</ele>
        <time>2014-06-04T12:26:40Z</time>
      </trkpt>
      <trkpt lat="43.42255" lon="6.077">
        <ele>248.38467407227</ele>
        <time>2014-06-04T12:26:41Z</time>
      </trkpt>
      <trkpt lat="43.42255" lon="6.07704">
        <ele>248.54260253906</ele>
        <time>2014-06-04T12:26:42Z</time>
      </trkpt>
      <trkpt lat="43.42255" lon="6.07713">
        <ele>248.84300231934</ele>
        <time>2014-06-04T12:26:44Z</time>
      </trkpt>
      <trkpt lat="43.42255" lon="6.07729">
        <ele>249.41119384766</ele>
        <time>2014-06-04T12:26:47Z</time>
      </trkpt>
      <trkpt lat="43.42255" lon="6.07737">
        <ele>249.72705078125</ele>
        <time>2014-06-04T12:26:49Z</time>
      </trkpt>
      <trkpt lat="43.42254" lon="6.07745">
        <ele>249.943359375</ele>
        <time>2014-06-04T12:26:51Z</time>
      </trkpt>
      <trkpt lat="43.42253" lon="6.07752">
        <ele>250.19055175781</ele>
        <time>2014-06-04T12:26:53Z</time>
      </trkpt>
      <trkpt lat="43.42253" lon="6.07766">
        <ele>250.66775512695</ele>
        <time>2014-06-04T12:26:56Z</time>
      </trkpt>
      <trkpt lat="43.42252" lon="6.07776">
        <ele>251.01280212402</ele>
        <time>2014-06-04T12:26:58Z</time>
      </trkpt>
      <trkpt lat="43.42252" lon="6.07789">
        <ele>251.88858032227</ele>
        <time>2014-06-04T12:27:01Z</time>
      </trkpt>
      <trkpt lat="43.42253" lon="6.07802">
        <ele>252.86018371582</ele>
        <time>2014-06-04T12:27:04Z</time>
      </trkpt>
      <trkpt lat="43.42255" lon="6.07814">
        <ele>253.1669921875</ele>
        <time>2014-06-04T12:27:07Z</time>
      </trkpt>
      <trkpt lat="43.42257" lon="6.07822">
        <ele>253.24938964844</ele>
        <time>2014-06-04T12:27:09Z</time>
      </trkpt>
      <trkpt lat="43.42258" lon="6.07837">
        <ele>253.60333251953</ele>
        <time>2014-06-04T12:27:13Z</time>
      </trkpt>
      <trkpt lat="43.4226" lon="6.07859">
        <ele>255.21694946289</ele>
        <time>2014-06-04T12:27:20Z</time>
      </trkpt>
      <trkpt lat="43.42256" lon="6.0787">
        <ele>255.52499389648</ele>
        <time>2014-06-04T12:27:24Z</time>
      </trkpt>
      <trkpt lat="43.42253" lon="6.07874">
        <ele>255.59194946289</ele>
        <time>2014-06-04T12:27:26Z</time>
      </trkpt>
      <trkpt lat="43.42248" lon="6.07884">
        <ele>255.66716003418</ele>
        <time>2014-06-04T12:27:30Z</time>
      </trkpt>
      <trkpt lat="43.42245" lon="6.07888">
        <ele>255.61694335938</ele>
        <time>2014-06-04T12:27:35Z</time>
      </trkpt>
      <trkpt lat="43.42242" lon="6.07891">
        <ele>255.38639831543</ele>
        <time>2014-06-04T12:27:42Z</time>
      </trkpt>
      <trkpt lat="43.42242" lon="6.07893">
        <ele>255.29026794434</ele>
        <time>2014-06-04T12:27:43Z</time>
      </trkpt>
      <trkpt lat="43.42241" lon="6.07903">
        <ele>254.81991577148</ele>
        <time>2014-06-04T12:27:47Z</time>
      </trkpt>
      <trkpt lat="43.42244" lon="6.07922">
        <ele>254.34451293945</ele>
        <time>2014-06-04T12:27:52Z</time>
      </trkpt>
      <trkpt lat="43.42249" lon="6.07953">
        <ele>253.58615112305</ele>
        <time>2014-06-04T12:27:59Z</time>
      </trkpt>
      <trkpt lat="43.42255" lon="6.07971">
        <ele>253.39512634277</ele>
        <time>2014-06-04T12:28:03Z</time>
      </trkpt>
      <trkpt lat="43.42258" lon="6.07974">
        <ele>253.60864257812</ele>
        <time>2014-06-04T12:28:04Z</time>
      </trkpt>
      <trkpt lat="43.42262" lon="6.07975">
        <ele>253.85583496094</ele>
        <time>2014-06-04T12:28:05Z</time>
      </trkpt>
      <trkpt lat="43.42271" lon="6.07972">
        <ele>254.55728149414</ele>
        <time>2014-06-04T12:28:08Z</time>
      </trkpt>
      <trkpt lat="43.42283" lon="6.07967">
        <ele>255.73648071289</ele>
        <time>2014-06-04T12:28:12Z</time>
      </trkpt>
      <trkpt lat="43.42292" lon="6.0797">
        <ele>256.5390625</ele>
        <time>2014-06-04T12:28:15Z</time>
      </trkpt>
      <trkpt lat="43.42295" lon="6.07972">
        <ele>256.83197021484</ele>
        <time>2014-06-04T12:28:16Z</time>
      </trkpt>
      <trkpt lat="43.42305" lon="6.07982">
        <ele>257.93920898438</ele>
        <time>2014-06-04T12:28:19Z</time>
      </trkpt>
      <trkpt lat="43.42308" lon="6.07985">
        <ele>258.15173339844</ele>
        <time>2014-06-04T12:28:20Z</time>
      </trkpt>
      <trkpt lat="43.4232" lon="6.08">
        <ele>259.03063964844</ele>
        <time>2014-06-04T12:28:25Z</time>
      </trkpt>
      <trkpt lat="43.42326" lon="6.08007">
        <ele>259.44262695312</ele>
        <time>2014-06-04T12:28:28Z</time>
      </trkpt>
      <trkpt lat="43.42329" lon="6.08009">
        <ele>259.66235351562</ele>
        <time>2014-06-04T12:28:30Z</time>
      </trkpt>
      <trkpt lat="43.42331" lon="6.0801">
        <ele>259.8271484375</ele>
        <time>2014-06-04T12:28:31Z</time>
      </trkpt>
      <trkpt lat="43.42332" lon="6.0801">
        <ele>259.93701171875</ele>
        <time>2014-06-04T12:28:32Z</time>
      </trkpt>
      <trkpt lat="43.42334" lon="6.0801">
        <ele>260</ele>
        <time>2014-06-04T12:28:33Z</time>
      </trkpt>
      <trkpt lat="43.42336" lon="6.08008">
        <ele>260</ele>
        <time>2014-06-04T12:28:34Z</time>
      </trkpt>
      <trkpt lat="43.42336" lon="6.08006">
        <ele>260</ele>
        <time>2014-06-04T12:28:35Z</time>
      </trkpt>
      <trkpt lat="43.4234" lon="6.08">
        <ele>260</ele>
        <time>2014-06-04T12:28:41Z</time>
      </trkpt>
      <trkpt lat="43.42341" lon="6.07998">
        <ele>260</ele>
        <time>2014-06-04T12:28:42Z</time>
      </trkpt>
      <trkpt lat="43.42341" lon="6.07993">
        <ele>260</ele>
        <time>2014-06-04T12:28:44Z</time>
      </trkpt>
      <trkpt lat="43.42345" lon="6.07985">
        <ele>260</ele>
        <time>2014-06-04T12:28:48Z</time>
      </trkpt>
      <trkpt lat="43.42347" lon="6.07984">
        <ele>260</ele>
        <time>2014-06-04T12:28:49Z</time>
      </trkpt>
      <trkpt lat="43.42347" lon="6.07982">
        <ele>260</ele>
        <time>2014-06-04T12:28:50Z</time>
      </trkpt>
      <trkpt lat="43.4235" lon="6.07979">
        <ele>260</ele>
        <time>2014-06-04T12:28:52Z</time>
      </trkpt>
      <trkpt lat="43.42351" lon="6.07976">
        <ele>260</ele>
        <time>2014-06-04T12:28:53Z</time>
      </trkpt>
      <trkpt lat="43.42354" lon="6.07973">
        <ele>260</ele>
        <time>2014-06-04T12:28:55Z</time>
      </trkpt>
      <trkpt lat="43.42355" lon="6.07971">
        <ele>260</ele>
        <time>2014-06-04T12:28:56Z</time>
      </trkpt>
      <trkpt lat="43.42361" lon="6.07964">
        <ele>260</ele>
        <time>2014-06-04T12:28:59Z</time>
      </trkpt>
      <trkpt lat="43.42362" lon="6.07961">
        <ele>260</ele>
        <time>2014-06-04T12:29:00Z</time>
      </trkpt>
      <trkpt lat="43.42373" lon="6.07949">
        <ele>260</ele>
        <time>2014-06-04T12:29:05Z</time>
      </trkpt>
      <trkpt lat="43.42385" lon="6.07931">
        <ele>260</ele>
        <time>2014-06-04T12:29:11Z</time>
      </trkpt>
      <trkpt lat="43.424" lon="6.07919">
        <ele>260</ele>
        <time>2014-06-04T12:29:17Z</time>
      </trkpt>
      <trkpt lat="43.42412" lon="6.07915">
        <ele>260</ele>
        <time>2014-06-04T12:29:22Z</time>
      </trkpt>
      <trkpt lat="43.42418" lon="6.07915">
        <ele>260</ele>
        <time>2014-06-04T12:29:25Z</time>
      </trkpt>
      <trkpt lat="43.42421" lon="6.07916">
        <ele>260</ele>
        <time>2014-06-04T12:29:27Z</time>
      </trkpt>
      <trkpt lat="43.42425" lon="6.07917">
        <ele>260</ele>
        <time>2014-06-04T12:29:29Z</time>
      </trkpt>
      <trkpt lat="43.42429" lon="6.07918">
        <ele>260</ele>
        <time>2014-06-04T12:29:31Z</time>
      </trkpt>
      <trkpt lat="43.42435" lon="6.07919">
        <ele>260</ele>
        <time>2014-06-04T12:29:34Z</time>
      </trkpt>
      <trkpt lat="43.42447" lon="6.07923">
        <ele>260</ele>
        <time>2014-06-04T12:29:40Z</time>
      </trkpt>
      <trkpt lat="43.4245" lon="6.07922">
        <ele>260</ele>
        <time>2014-06-04T12:29:41Z</time>
      </trkpt>
      <trkpt lat="43.42459" lon="6.07918">
        <ele>260</ele>
        <time>2014-06-04T12:29:44Z</time>
      </trkpt>
      <trkpt lat="43.42464" lon="6.07915">
        <ele>260</ele>
        <time>2014-06-04T12:29:46Z</time>
      </trkpt>
      <trkpt lat="43.42471" lon="6.0791">
        <ele>260</ele>
        <time>2014-06-04T12:29:50Z</time>
      </trkpt>
      <trkpt lat="43.42473" lon="6.07902">
        <ele>260</ele>
        <time>2014-06-04T12:29:54Z</time>
      </trkpt>
      <trkpt lat="43.42474" lon="6.07901">
        <ele>260</ele>
        <time>2014-06-04T12:29:55Z</time>
      </trkpt>
      <trkpt lat="43.42475" lon="6.079">
        <ele>260</ele>
        <time>2014-06-04T12:29:56Z</time>
      </trkpt>
      <trkpt lat="43.42476" lon="6.07899">
        <ele>260</ele>
        <time>2014-06-04T12:29:57Z</time>
      </trkpt>
      <trkpt lat="43.42478" lon="6.07897">
        <ele>260</ele>
        <time>2014-06-04T12:29:59Z</time>
      </trkpt>
      <trkpt lat="43.4248" lon="6.07895">
        <ele>260</ele>
        <time>2014-06-04T12:30:01Z</time>
      </trkpt>
      <trkpt lat="43.42482" lon="6.07894">
        <ele>260</ele>
        <time>2014-06-04T12:30:03Z</time>
      </trkpt>
      <trkpt lat="43.4249" lon="6.07892">
        <ele>260</ele>
        <time>2014-06-04T12:30:08Z</time>
      </trkpt>
      <trkpt lat="43.42498" lon="6.07889">
        <ele>260.02743530273</ele>
        <time>2014-06-04T12:30:13Z</time>
      </trkpt>
      <trkpt lat="43.42502" lon="6.07887">
        <ele>260.13043212891</ele>
        <time>2014-06-04T12:30:16Z</time>
      </trkpt>
      <trkpt lat="43.42506" lon="6.07887">
        <ele>260.12701416016</ele>
        <time>2014-06-04T12:30:19Z</time>
      </trkpt>
      <trkpt lat="43.42519" lon="6.07883">
        <ele>260.40850830078</ele>
        <time>2014-06-04T12:30:28Z</time>
      </trkpt>
      <trkpt lat="43.42522" lon="6.07882">
        <ele>260.51837158203</ele>
        <time>2014-06-04T12:30:32Z</time>
      </trkpt>
      <trkpt lat="43.42533" lon="6.07881">
        <ele>260.7067565918</ele>
        <time>2014-06-04T12:30:41Z</time>
      </trkpt>
      <trkpt lat="43.42534" lon="6.07881">
        <ele>260.72378540039</ele>
        <time>2014-06-04T12:30:43Z</time>
      </trkpt>
      <trkpt lat="43.4254" lon="6.07878">
        <ele>261.04202270508</ele>
        <time>2014-06-04T12:30:49Z</time>
      </trkpt>
      <trkpt lat="43.42543" lon="6.07878">
        <ele>261.13369750977</ele>
        <time>2014-06-04T12:30:52Z</time>
      </trkpt>
      <trkpt lat="43.42543" lon="6.07877">
        <ele>261.14929199219</ele>
        <time>2014-06-04T12:30:53Z</time>
      </trkpt>
      <trkpt lat="43.42545" lon="6.07877">
        <ele>261.21505737305</ele>
        <time>2014-06-04T12:30:54Z</time>
      </trkpt>
      <trkpt lat="43.42546" lon="6.07877">
        <ele>261.23126220703</ele>
        <time>2014-06-04T12:30:55Z</time>
      </trkpt>
      <trkpt lat="43.42549" lon="6.07877">
        <ele>261.2971496582</ele>
        <time>2014-06-04T12:30:58Z</time>
      </trkpt>
      <trkpt lat="43.42554" lon="6.07875">
        <ele>261.46594238281</ele>
        <time>2014-06-04T12:31:01Z</time>
      </trkpt>
      <trkpt lat="43.42562" lon="6.07874">
        <ele>262.142578125</ele>
        <time>2014-06-04T12:31:05Z</time>
      </trkpt>
      <trkpt lat="43.4257" lon="6.07872">
        <ele>262.85415649414</ele>
        <time>2014-06-04T12:31:10Z</time>
      </trkpt>
      <trkpt lat="43.42575" lon="6.07873">
        <ele>263.31610107422</ele>
        <time>2014-06-04T12:31:13Z</time>
      </trkpt>
      <trkpt lat="43.42587" lon="6.07875">
        <ele>264.63027954102</ele>
        <time>2014-06-04T12:31:20Z</time>
      </trkpt>
      <trkpt lat="43.42593" lon="6.0788">
        <ele>265.89819335938</ele>
        <time>2014-06-04T12:31:26Z</time>
      </trkpt>
      <trkpt lat="43.42594" lon="6.0788">
        <ele>266.13790893555</ele>
        <time>2014-06-04T12:31:27Z</time>
      </trkpt>
      <trkpt lat="43.42596" lon="6.07882">
        <ele>266.63290405273</ele>
        <time>2014-06-04T12:31:29Z</time>
      </trkpt>
      <trkpt lat="43.42601" lon="6.07885">
        <ele>267.7314453125</ele>
        <time>2014-06-04T12:31:34Z</time>
      </trkpt>
      <trkpt lat="43.42608" lon="6.0789">
        <ele>269.40753173828</ele>
        <time>2014-06-04T12:31:39Z</time>
      </trkpt>
      <trkpt lat="43.42612" lon="6.07892">
        <ele>270.26409912109</ele>
        <time>2014-06-04T12:31:42Z</time>
      </trkpt>
      <trkpt lat="43.42612" lon="6.07892">
        <ele>270.51303100586</ele>
        <time>2014-06-04T12:31:43Z</time>
      </trkpt>
      <trkpt lat="43.42614" lon="6.07894">
        <ele>271.01428222656</ele>
        <time>2014-06-04T12:31:45Z</time>
      </trkpt>
      <trkpt lat="43.42617" lon="6.07895">
        <ele>272.02536010742</ele>
        <time>2014-06-04T12:31:48Z</time>
      </trkpt>
      <trkpt lat="43.42618" lon="6.07895">
        <ele>272.26052856445</ele>
        <time>2014-06-04T12:31:49Z</time>
      </trkpt>
      <trkpt lat="43.4262" lon="6.07896">
        <ele>272.71371459961</ele>
        <time>2014-06-04T12:31:50Z</time>
      </trkpt>
      <trkpt lat="43.4262" lon="6.07896">
        <ele>272.95062255859</ele>
        <time>2014-06-04T12:31:51Z</time>
      </trkpt>
      <trkpt lat="43.42622" lon="6.07896">
        <ele>273.29565429688</ele>
        <time>2014-06-04T12:31:52Z</time>
      </trkpt>
      <trkpt lat="43.42622" lon="6.07897">
        <ele>273.42440795898</ele>
        <time>2014-06-04T12:31:57Z</time>
      </trkpt>
      <trkpt lat="43.42622" lon="6.07897">
        <ele>273.42440795898</ele>
        <time>2014-06-04T12:32:03Z</time>
      </trkpt>
      <trkpt lat="43.42623" lon="6.07897">
        <ele>273.74713134766</ele>
        <time>2014-06-04T12:32:05Z</time>
      </trkpt>
      <trkpt lat="43.42625" lon="6.07899">
        <ele>274.47326660156</ele>
        <time>2014-06-04T12:32:11Z</time>
      </trkpt>
      <trkpt lat="43.42628" lon="6.079">
        <ele>275.19766235352</ele>
        <time>2014-06-04T12:32:17Z</time>
      </trkpt>
      <trkpt lat="43.42629" lon="6.07901">
        <ele>275.55987548828</ele>
        <time>2014-06-04T12:32:19Z</time>
      </trkpt>
      <trkpt lat="43.42632" lon="6.07904">
        <ele>276.65850830078</ele>
        <time>2014-06-04T12:32:26Z</time>
      </trkpt>
      <trkpt lat="43.42635" lon="6.07907">
        <ele>277.39837646484</ele>
        <time>2014-06-04T12:32:32Z</time>
      </trkpt>
      <trkpt lat="43.42635" lon="6.07907">
        <ele>277.39837646484</ele>
        <time>2014-06-04T12:32:47Z</time>
      </trkpt>
      <trkpt lat="43.42635" lon="6.07907">
        <ele>277.39837646484</ele>
        <time>2014-06-04T12:33:04Z</time>
      </trkpt>
      <trkpt lat="43.42635" lon="6.07908">
        <ele>277.54428100586</ele>
        <time>2014-06-04T12:33:07Z</time>
      </trkpt>
      <trkpt lat="43.42638" lon="6.07914">
        <ele>278.65319824219</ele>
        <time>2014-06-04T12:33:12Z</time>
      </trkpt>
      <trkpt lat="43.42638" lon="6.07916">
        <ele>278.71499633789</ele>
        <time>2014-06-04T12:33:13Z</time>
      </trkpt>
      <trkpt lat="43.42639" lon="6.07917">
        <ele>279.04879760742</ele>
        <time>2014-06-04T12:33:14Z</time>
      </trkpt>
      <trkpt lat="43.42645" lon="6.07926">
        <ele>279.88479614258</ele>
        <time>2014-06-04T12:33:20Z</time>
      </trkpt>
      <trkpt lat="43.42646" lon="6.07929">
        <ele>280.13690185547</ele>
        <time>2014-06-04T12:33:22Z</time>
      </trkpt>
      <trkpt lat="43.42656" lon="6.07937">
        <ele>281.09826660156</ele>
        <time>2014-06-04T12:33:29Z</time>
      </trkpt>
      <trkpt lat="43.42659" lon="6.07941">
        <ele>281.41073608398</ele>
        <time>2014-06-04T12:33:32Z</time>
      </trkpt>
      <trkpt lat="43.42665" lon="6.07945">
        <ele>281.86251831055</ele>
        <time>2014-06-04T12:33:37Z</time>
      </trkpt>
      <trkpt lat="43.42677" lon="6.07947">
        <ele>281.92459106445</ele>
        <time>2014-06-04T12:33:46Z</time>
      </trkpt>
      <trkpt lat="43.42681" lon="6.07947">
        <ele>281.92459106445</ele>
        <time>2014-06-04T12:33:50Z</time>
      </trkpt>
      <trkpt lat="43.42693" lon="6.07948">
        <ele>281.88854980469</ele>
        <time>2014-06-04T12:33:59Z</time>
      </trkpt>
      <trkpt lat="43.42701" lon="6.07948">
        <ele>282.08700561523</ele>
        <time>2014-06-04T12:34:05Z</time>
      </trkpt>
      <trkpt lat="43.42705" lon="6.07949">
        <ele>282.236328125</ele>
        <time>2014-06-04T12:34:09Z</time>
      </trkpt>
      <trkpt lat="43.42712" lon="6.07948">
        <ele>282.52130126953</ele>
        <time>2014-06-04T12:34:14Z</time>
      </trkpt>
      <trkpt lat="43.42714" lon="6.07947">
        <ele>282.60711669922</ele>
        <time>2014-06-04T12:34:16Z</time>
      </trkpt>
      <trkpt lat="43.42718" lon="6.07947">
        <ele>282.75991821289</ele>
        <time>2014-06-04T12:34:19Z</time>
      </trkpt>
      <trkpt lat="43.4272" lon="6.07947">
        <ele>282.83200073242</ele>
        <time>2014-06-04T12:34:21Z</time>
      </trkpt>
      <trkpt lat="43.42723" lon="6.07946">
        <ele>282.93316650391</ele>
        <time>2014-06-04T12:34:23Z</time>
      </trkpt>
      <trkpt lat="43.42727" lon="6.07943">
        <ele>283.04302978516</ele>
        <time>2014-06-04T12:34:26Z</time>
      </trkpt>
      <trkpt lat="43.42737" lon="6.07939">
        <ele>283.19409179688</ele>
        <time>2014-06-04T12:34:33Z</time>
      </trkpt>
      <trkpt lat="43.42743" lon="6.07934">
        <ele>283.3606262207</ele>
        <time>2014-06-04T12:34:37Z</time>
      </trkpt>
      <trkpt lat="43.42748" lon="6.07931">
        <ele>283.48422241211</ele>
        <time>2014-06-04T12:34:40Z</time>
      </trkpt>
      <trkpt lat="43.4275" lon="6.0793">
        <ele>283.52630615234</ele>
        <time>2014-06-04T12:34:41Z</time>
      </trkpt>
      <trkpt lat="43.42754" lon="6.07925">
        <ele>283.84387207031</ele>
        <time>2014-06-04T12:34:44Z</time>
      </trkpt>
      <trkpt lat="43.42755" lon="6.07923">
        <ele>283.95889282227</ele>
        <time>2014-06-04T12:34:45Z</time>
      </trkpt>
      <trkpt lat="43.42759" lon="6.07915">
        <ele>284.35668945312</ele>
        <time>2014-06-04T12:34:49Z</time>
      </trkpt>
      <trkpt lat="43.42769" lon="6.079">
        <ele>285.08401489258</ele>
        <time>2014-06-04T12:34:57Z</time>
      </trkpt>
      <trkpt lat="43.42772" lon="6.07894">
        <ele>285.44390869141</ele>
        <time>2014-06-04T12:35:00Z</time>
      </trkpt>
      <trkpt lat="43.42777" lon="6.07886">
        <ele>286.05310058594</ele>
        <time>2014-06-04T12:35:05Z</time>
      </trkpt>
      <trkpt lat="43.42781" lon="6.0788">
        <ele>287.01245117188</ele>
        <time>2014-06-04T12:35:09Z</time>
      </trkpt>
      <trkpt lat="43.42783" lon="6.07877">
        <ele>287.50283813477</ele>
        <time>2014-06-04T12:35:11Z</time>
      </trkpt>
      <trkpt lat="43.42789" lon="6.07864">
        <ele>289.19924926758</ele>
        <time>2014-06-04T12:35:18Z</time>
      </trkpt>
      <trkpt lat="43.42794" lon="6.07861">
        <ele>290.62030029297</ele>
        <time>2014-06-04T12:35:22Z</time>
      </trkpt>
      <trkpt lat="43.42798" lon="6.0786">
        <ele>291.38458251953</ele>
        <time>2014-06-04T12:35:24Z</time>
      </trkpt>
      <trkpt lat="43.42801" lon="6.07862">
        <ele>291.9619140625</ele>
        <time>2014-06-04T12:35:26Z</time>
      </trkpt>
      <trkpt lat="43.42803" lon="6.0786">
        <ele>292.54684448242</ele>
        <time>2014-06-04T12:35:30Z</time>
      </trkpt>
      <trkpt lat="43.42807" lon="6.07858">
        <ele>293.50668334961</ele>
        <time>2014-06-04T12:35:33Z</time>
      </trkpt>
      <trkpt lat="43.42809" lon="6.07857">
        <ele>293.88467407227</ele>
        <time>2014-06-04T12:35:35Z</time>
      </trkpt>
      <trkpt lat="43.42814" lon="6.07854">
        <ele>294.85406494141</ele>
        <time>2014-06-04T12:35:39Z</time>
      </trkpt>
      <trkpt lat="43.42826" lon="6.07855">
        <ele>296.53894042969</ele>
        <time>2014-06-04T12:35:46Z</time>
      </trkpt>
      <trkpt lat="43.42832" lon="6.07853">
        <ele>297.63613891602</ele>
        <time>2014-06-04T12:35:50Z</time>
      </trkpt>
      <trkpt lat="43.42836" lon="6.0785">
        <ele>298.26181030273</ele>
        <time>2014-06-04T12:35:52Z</time>
      </trkpt>
      <trkpt lat="43.42844" lon="6.07844">
        <ele>299.13885498047</ele>
        <time>2014-06-04T12:35:57Z</time>
      </trkpt>
      <trkpt lat="43.42845" lon="6.07843">
        <ele>299.28768920898</ele>
        <time>2014-06-04T12:35:58Z</time>
      </trkpt>
      <trkpt lat="43.42846" lon="6.07841">
        <ele>299.42852783203</ele>
        <time>2014-06-04T12:35:59Z</time>
      </trkpt>
      <trkpt lat="43.42861" lon="6.0782">
        <ele>300</ele>
        <time>2014-06-04T12:36:14Z</time>
      </trkpt>
      <trkpt lat="43.42864" lon="6.07814">
        <ele>300</ele>
        <time>2014-06-04T12:36:20Z</time>
      </trkpt>
      <trkpt lat="43.42866" lon="6.07807">
        <ele>300</ele>
        <time>2014-06-04T12:36:24Z</time>
      </trkpt>
      <trkpt lat="43.42867" lon="6.07803">
        <ele>300</ele>
        <time>2014-06-04T12:36:26Z</time>
      </trkpt>
      <trkpt lat="43.42868" lon="6.07792">
        <ele>300</ele>
        <time>2014-06-04T12:36:32Z</time>
      </trkpt>
      <trkpt lat="43.42874" lon="6.07771">
        <ele>300</ele>
        <time>2014-06-04T12:36:42Z</time>
      </trkpt>
      <trkpt lat="43.42875" lon="6.07766">
        <ele>300</ele>
        <time>2014-06-04T12:36:45Z</time>
      </trkpt>
      <trkpt lat="43.42876" lon="6.07764">
        <ele>300</ele>
        <time>2014-06-04T12:36:46Z</time>
      </trkpt>
      <trkpt lat="43.42882" lon="6.07752">
        <ele>300</ele>
        <time>2014-06-04T12:36:54Z</time>
      </trkpt>
      <trkpt lat="43.42885" lon="6.07751">
        <ele>300</ele>
        <time>2014-06-04T12:36:56Z</time>
      </trkpt>
      <trkpt lat="43.42898" lon="6.0775">
        <ele>300</ele>
        <time>2014-06-04T12:37:06Z</time>
      </trkpt>
      <trkpt lat="43.42904" lon="6.07755">
        <ele>300</ele>
        <time>2014-06-04T12:37:10Z</time>
      </trkpt>
      <trkpt lat="43.4291" lon="6.07776">
        <ele>300</ele>
        <time>2014-06-04T12:37:19Z</time>
      </trkpt>
      <trkpt lat="43.42912" lon="6.07789">
        <ele>300</ele>
        <time>2014-06-04T12:37:23Z</time>
      </trkpt>
      <trkpt lat="43.42914" lon="6.07799">
        <ele>300</ele>
        <time>2014-06-04T12:37:26Z</time>
      </trkpt>
      <trkpt lat="43.42918" lon="6.0781">
        <ele>300</ele>
        <time>2014-06-04T12:37:29Z</time>
      </trkpt>
      <trkpt lat="43.42919" lon="6.07815">
        <ele>300</ele>
        <time>2014-06-04T12:37:30Z</time>
      </trkpt>
      <trkpt lat="43.4292" lon="6.07819">
        <ele>300</ele>
        <time>2014-06-04T12:37:31Z</time>
      </trkpt>
      <trkpt lat="43.42921" lon="6.07824">
        <ele>300</ele>
        <time>2014-06-04T12:37:32Z</time>
      </trkpt>
      <trkpt lat="43.42923" lon="6.07828">
        <ele>300</ele>
        <time>2014-06-04T12:37:33Z</time>
      </trkpt>
      <trkpt lat="43.42924" lon="6.07833">
        <ele>300</ele>
        <time>2014-06-04T12:37:34Z</time>
      </trkpt>
      <trkpt lat="43.42928" lon="6.07849">
        <ele>300.54776000977</ele>
        <time>2014-06-04T12:37:37Z</time>
      </trkpt>
      <trkpt lat="43.42931" lon="6.07861">
        <ele>300.97863769531</ele>
        <time>2014-06-04T12:37:40Z</time>
      </trkpt>
      <trkpt lat="43.42933" lon="6.07866">
        <ele>300.92892456055</ele>
        <time>2014-06-04T12:37:42Z</time>
      </trkpt>
      <trkpt lat="43.42937" lon="6.07884">
        <ele>300.77743530273</ele>
        <time>2014-06-04T12:37:49Z</time>
      </trkpt>
      <trkpt lat="43.42941" lon="6.07901">
        <ele>300.40899658203</ele>
        <time>2014-06-04T12:37:56Z</time>
      </trkpt>
      <trkpt lat="43.42943" lon="6.07912">
        <ele>300.11889648438</ele>
        <time>2014-06-04T12:38:01Z</time>
      </trkpt>
      <trkpt lat="43.42945" lon="6.07919">
        <ele>299.92065429688</ele>
        <time>2014-06-04T12:38:04Z</time>
      </trkpt>
      <trkpt lat="43.42949" lon="6.07934">
        <ele>299.65396118164</ele>
        <time>2014-06-04T12:38:11Z</time>
      </trkpt>
      <trkpt lat="43.42953" lon="6.07952">
        <ele>299.38369750977</ele>
        <time>2014-06-04T12:38:18Z</time>
      </trkpt>
      <trkpt lat="43.42962" lon="6.0798">
        <ele>299.12454223633</ele>
        <time>2014-06-04T12:38:26Z</time>
      </trkpt>
      <trkpt lat="43.42963" lon="6.07983">
        <ele>299.20541381836</ele>
        <time>2014-06-04T12:38:30Z</time>
      </trkpt>
      <trkpt lat="43.42963" lon="6.07983">
        <ele>299.20541381836</ele>
        <time>2014-06-04T12:38:37Z</time>
      </trkpt>
      <trkpt lat="43.42963" lon="6.07983">
        <ele>299.20541381836</ele>
        <time>2014-06-04T12:38:42Z</time>
      </trkpt>
      <trkpt lat="43.42965" lon="6.07988">
        <ele>299.2922668457</ele>
        <time>2014-06-04T12:38:48Z</time>
      </trkpt>
      <trkpt lat="43.42967" lon="6.07996">
        <ele>299.44863891602</ele>
        <time>2014-06-04T12:38:51Z</time>
      </trkpt>
      <trkpt lat="43.4297" lon="6.08008">
        <ele>299.65185546875</ele>
        <time>2014-06-04T12:38:55Z</time>
      </trkpt>
      <trkpt lat="43.42974" lon="6.08025">
        <ele>300.40496826172</ele>
        <time>2014-06-04T12:39:01Z</time>
      </trkpt>
      <trkpt lat="43.42978" lon="6.08037">
        <ele>301.01498413086</ele>
        <time>2014-06-04T12:39:06Z</time>
      </trkpt>
      <trkpt lat="43.42981" lon="6.08043">
        <ele>301.66430664062</ele>
        <time>2014-06-04T12:39:12Z</time>
      </trkpt>
      <trkpt lat="43.42981" lon="6.08043">
        <ele>301.66430664062</ele>
        <time>2014-06-04T12:39:37Z</time>
      </trkpt>
      <trkpt lat="43.42981" lon="6.08043">
        <ele>301.66430664062</ele>
        <time>2014-06-04T12:39:49Z</time>
      </trkpt>
      <trkpt lat="43.4298" lon="6.08043">
        <ele>301.51229858398</ele>
        <time>2014-06-04T12:39:54Z</time>
      </trkpt>
      <trkpt lat="43.4298" lon="6.08043">
        <ele>301.51229858398</ele>
        <time>2014-06-04T12:40:14Z</time>
      </trkpt>
      <trkpt lat="43.42979" lon="6.08043">
        <ele>301.43807983398</ele>
        <time>2014-06-04T12:40:38Z</time>
      </trkpt>
      <trkpt lat="43.42979" lon="6.08043">
        <ele>301.43807983398</ele>
        <time>2014-06-04T12:40:50Z</time>
      </trkpt>
      <trkpt lat="43.4298" lon="6.08046">
        <ele>301.61883544922</ele>
        <time>2014-06-04T12:40:56Z</time>
      </trkpt>
      <trkpt lat="43.4298" lon="6.08047">
        <ele>301.63360595703</ele>
        <time>2014-06-04T12:40:57Z</time>
      </trkpt>
      <trkpt lat="43.42981" lon="6.08053">
        <ele>301.77890014648</ele>
        <time>2014-06-04T12:41:00Z</time>
      </trkpt>
      <trkpt lat="43.42982" lon="6.08058">
        <ele>302.05151367188</ele>
        <time>2014-06-04T12:41:03Z</time>
      </trkpt>
      <trkpt lat="43.42982" lon="6.08062">
        <ele>302.05151367188</ele>
        <time>2014-06-04T12:41:05Z</time>
      </trkpt>
      <trkpt lat="43.42983" lon="6.08066">
        <ele>302.29870605469</ele>
        <time>2014-06-04T12:41:07Z</time>
      </trkpt>
      <trkpt lat="43.42983" lon="6.08067">
        <ele>302.29870605469</ele>
        <time>2014-06-04T12:41:08Z</time>
      </trkpt>
      <trkpt lat="43.42988" lon="6.08086">
        <ele>303.31842041016</ele>
        <time>2014-06-04T12:41:18Z</time>
      </trkpt>
      <trkpt lat="43.42988" lon="6.0809">
        <ele>303.16098022461</ele>
        <time>2014-06-04T12:41:20Z</time>
      </trkpt>
      <trkpt lat="43.42992" lon="6.08097">
        <ele>303.95260620117</ele>
        <time>2014-06-04T12:41:25Z</time>
      </trkpt>
      <trkpt lat="43.42993" lon="6.08103">
        <ele>303.99975585938</ele>
        <time>2014-06-04T12:41:28Z</time>
      </trkpt>
      <trkpt lat="43.42995" lon="6.08107">
        <ele>304.47286987305</ele>
        <time>2014-06-04T12:41:31Z</time>
      </trkpt>
      <trkpt lat="43.42995" lon="6.08111">
        <ele>304.53329467773</ele>
        <time>2014-06-04T12:41:34Z</time>
      </trkpt>
      <trkpt lat="43.42997" lon="6.08116">
        <ele>305.0202331543</ele>
        <time>2014-06-04T12:41:37Z</time>
      </trkpt>
      <trkpt lat="43.42996" lon="6.08118">
        <ele>304.96334838867</ele>
        <time>2014-06-04T12:41:39Z</time>
      </trkpt>
      <trkpt lat="43.42997" lon="6.08123">
        <ele>305.48907470703</ele>
        <time>2014-06-04T12:41:43Z</time>
      </trkpt>
      <trkpt lat="43.43" lon="6.08127">
        <ele>306.57235717773</ele>
        <time>2014-06-04T12:41:46Z</time>
      </trkpt>
      <trkpt lat="43.43002" lon="6.08128">
        <ele>307.35446166992</ele>
        <time>2014-06-04T12:41:48Z</time>
      </trkpt>
      <trkpt lat="43.43003" lon="6.08133">
        <ele>308.11703491211</ele>
        <time>2014-06-04T12:41:51Z</time>
      </trkpt>
      <trkpt lat="43.43004" lon="6.08135">
        <ele>308.35684204102</ele>
        <time>2014-06-04T12:41:53Z</time>
      </trkpt>
      <trkpt lat="43.43005" lon="6.08138">
        <ele>309.06781005859</ele>
        <time>2014-06-04T12:41:55Z</time>
      </trkpt>
      <trkpt lat="43.43009" lon="6.08143">
        <ele>310.74557495117</ele>
        <time>2014-06-04T12:41:59Z</time>
      </trkpt>
      <trkpt lat="43.43013" lon="6.08149">
        <ele>312.49224853516</ele>
        <time>2014-06-04T12:42:03Z</time>
      </trkpt>
      <trkpt lat="43.43015" lon="6.08151">
        <ele>313.55178833008</ele>
        <time>2014-06-04T12:42:06Z</time>
      </trkpt>
      <trkpt lat="43.43018" lon="6.0816">
        <ele>314.9280090332</ele>
        <time>2014-06-04T12:42:12Z</time>
      </trkpt>
      <trkpt lat="43.43018" lon="6.08162">
        <ele>315.36959838867</ele>
        <time>2014-06-04T12:42:14Z</time>
      </trkpt>
      <trkpt lat="43.4302" lon="6.0817">
        <ele>316.37771606445</ele>
        <time>2014-06-04T12:42:20Z</time>
      </trkpt>
      <trkpt lat="43.43023" lon="6.08177">
        <ele>317.53625488281</ele>
        <time>2014-06-04T12:42:24Z</time>
      </trkpt>
      <trkpt lat="43.43023" lon="6.08178">
        <ele>317.71224975586</ele>
        <time>2014-06-04T12:42:25Z</time>
      </trkpt>
      <trkpt lat="43.43025" lon="6.08182">
        <ele>318.64627075195</ele>
        <time>2014-06-04T12:42:28Z</time>
      </trkpt>
      <trkpt lat="43.43027" lon="6.08188">
        <ele>319.42456054688</ele>
        <time>2014-06-04T12:42:31Z</time>
      </trkpt>
      <trkpt lat="43.43029" lon="6.08196">
        <ele>320</ele>
        <time>2014-06-04T12:42:35Z</time>
      </trkpt>
      <trkpt lat="43.43031" lon="6.08205">
        <ele>320</ele>
        <time>2014-06-04T12:42:41Z</time>
      </trkpt>
      <trkpt lat="43.43032" lon="6.08207">
        <ele>320</ele>
        <time>2014-06-04T12:42:42Z</time>
      </trkpt>
      <trkpt lat="43.43033" lon="6.08208">
        <ele>320</ele>
        <time>2014-06-04T12:42:46Z</time>
      </trkpt>
      <trkpt lat="43.43033" lon="6.08208">
        <ele>320</ele>
        <time>2014-06-04T12:43:01Z</time>
      </trkpt>
      <trkpt lat="43.43033" lon="6.08208">
        <ele>320</ele>
        <time>2014-06-04T12:44:28Z</time>
      </trkpt>
      <trkpt lat="43.43033" lon="6.08208">
        <ele>320</ele>
        <time>2014-06-04T12:44:42Z</time>
      </trkpt>
      <trkpt lat="43.43033" lon="6.08208">
        <ele>320</ele>
        <time>2014-06-04T12:44:46Z</time>
      </trkpt>
      <trkpt lat="43.43033" lon="6.08208">
        <ele>320</ele>
        <time>2014-06-04T12:45:30Z</time>
      </trkpt>
      <trkpt lat="43.43033" lon="6.08208">
        <ele>320</ele>
        <time>2014-06-04T12:45:59Z</time>
      </trkpt>
      <trkpt lat="43.43033" lon="6.08211">
        <ele>320</ele>
        <time>2014-06-04T12:46:01Z</time>
      </trkpt>
      <trkpt lat="43.43036" lon="6.08218">
        <ele>320</ele>
        <time>2014-06-04T12:46:04Z</time>
      </trkpt>
      <trkpt lat="43.43042" lon="6.08238">
        <ele>318.26010131836</ele>
        <time>2014-06-04T12:46:10Z</time>
      </trkpt>
      <trkpt lat="43.43043" lon="6.08241">
        <ele>318.14657592773</ele>
        <time>2014-06-04T12:46:11Z</time>
      </trkpt>
      <trkpt lat="43.43044" lon="6.08244">
        <ele>318.03567504883</ele>
        <time>2014-06-04T12:46:12Z</time>
      </trkpt>
      <trkpt lat="43.43045" lon="6.08247">
        <ele>317.93621826172</ele>
        <time>2014-06-04T12:46:13Z</time>
      </trkpt>
      <trkpt lat="43.43046" lon="6.08251">
        <ele>317.84378051758</ele>
        <time>2014-06-04T12:46:14Z</time>
      </trkpt>
      <trkpt lat="43.43048" lon="6.08261">
        <ele>317.86828613281</ele>
        <time>2014-06-04T12:46:17Z</time>
      </trkpt>
      <trkpt lat="43.43048" lon="6.08266">
        <ele>317.87274169922</ele>
        <time>2014-06-04T12:46:19Z</time>
      </trkpt>
      <trkpt lat="43.43049" lon="6.08269">
        <ele>317.89468383789</ele>
        <time>2014-06-04T12:46:20Z</time>
      </trkpt>
      <trkpt lat="43.4305" lon="6.08277">
        <ele>318.02111816406</ele>
        <time>2014-06-04T12:46:23Z</time>
      </trkpt>
      <trkpt lat="43.4305" lon="6.0828">
        <ele>318.09680175781</ele>
        <time>2014-06-04T12:46:24Z</time>
      </trkpt>
      <trkpt lat="43.43051" lon="6.08282">
        <ele>318.33264160156</ele>
        <time>2014-06-04T12:46:25Z</time>
      </trkpt>
      <trkpt lat="43.43052" lon="6.08285">
        <ele>318.43588256836</ele>
        <time>2014-06-04T12:46:26Z</time>
      </trkpt>
      <trkpt lat="43.43057" lon="6.08299">
        <ele>320</ele>
        <time>2014-06-04T12:46:30Z</time>
      </trkpt>
      <trkpt lat="43.43058" lon="6.08303">
        <ele>320</ele>
        <time>2014-06-04T12:46:31Z</time>
      </trkpt>
      <trkpt lat="43.4306" lon="6.08307">
        <ele>319.74990844727</ele>
        <time>2014-06-04T12:46:32Z</time>
      </trkpt>
      <trkpt lat="43.43061" lon="6.08311">
        <ele>318.8459777832</ele>
        <time>2014-06-04T12:46:33Z</time>
      </trkpt>
      <trkpt lat="43.43062" lon="6.08316">
        <ele>317.76644897461</ele>
        <time>2014-06-04T12:46:34Z</time>
      </trkpt>
      <trkpt lat="43.43063" lon="6.08322">
        <ele>316.60427856445</ele>
        <time>2014-06-04T12:46:35Z</time>
      </trkpt>
      <trkpt lat="43.43065" lon="6.08328">
        <ele>315.44229125977</ele>
        <time>2014-06-04T12:46:36Z</time>
      </trkpt>
      <trkpt lat="43.43067" lon="6.08334">
        <ele>314.255859375</ele>
        <time>2014-06-04T12:46:37Z</time>
      </trkpt>
      <trkpt lat="43.43069" lon="6.08339">
        <ele>313.1994934082</ele>
        <time>2014-06-04T12:46:38Z</time>
      </trkpt>
      <trkpt lat="43.43078" lon="6.08356">
        <ele>310.33584594727</ele>
        <time>2014-06-04T12:46:42Z</time>
      </trkpt>
      <trkpt lat="43.43094" lon="6.08391">
        <ele>306.02874755859</ele>
        <time>2014-06-04T12:46:51Z</time>
      </trkpt>
      <trkpt lat="43.43097" lon="6.08405">
        <ele>304.57238769531</ele>
        <time>2014-06-04T12:46:53Z</time>
      </trkpt>
      <trkpt lat="43.43098" lon="6.08426">
        <ele>302.74444580078</ele>
        <time>2014-06-04T12:46:56Z</time>
      </trkpt>
      <trkpt lat="43.431" lon="6.08435">
        <ele>301.98251342773</ele>
        <time>2014-06-04T12:46:58Z</time>
      </trkpt>
      <trkpt lat="43.43102" lon="6.08454">
        <ele>300.99197387695</ele>
        <time>2014-06-04T12:47:03Z</time>
      </trkpt>
      <trkpt lat="43.43106" lon="6.08469">
        <ele>300.76708984375</ele>
        <time>2014-06-04T12:47:07Z</time>
      </trkpt>
      <trkpt lat="43.43111" lon="6.08487">
        <ele>300.99337768555</ele>
        <time>2014-06-04T12:47:14Z</time>
      </trkpt>
      <trkpt lat="43.43113" lon="6.08493">
        <ele>301.06048583984</ele>
        <time>2014-06-04T12:47:17Z</time>
      </trkpt>
      <trkpt lat="43.43114" lon="6.08496">
        <ele>301.07891845703</ele>
        <time>2014-06-04T12:47:18Z</time>
      </trkpt>
      <trkpt lat="43.43114" lon="6.08501">
        <ele>301.10525512695</ele>
        <time>2014-06-04T12:47:20Z</time>
      </trkpt>
      <trkpt lat="43.43115" lon="6.08502">
        <ele>301.08920288086</ele>
        <time>2014-06-04T12:47:21Z</time>
      </trkpt>
      <trkpt lat="43.43121" lon="6.08515">
        <ele>301.17385864258</ele>
        <time>2014-06-04T12:47:28Z</time>
      </trkpt>
      <trkpt lat="43.43121" lon="6.08516">
        <ele>301.21331787109</ele>
        <time>2014-06-04T12:47:29Z</time>
      </trkpt>
      <trkpt lat="43.43127" lon="6.08524">
        <ele>301.74270629883</ele>
        <time>2014-06-04T12:47:35Z</time>
      </trkpt>
      <trkpt lat="43.4313" lon="6.08529">
        <ele>302.07147216797</ele>
        <time>2014-06-04T12:47:38Z</time>
      </trkpt>
      <trkpt lat="43.43132" lon="6.08531">
        <ele>302.35177612305</ele>
        <time>2014-06-04T12:47:40Z</time>
      </trkpt>
      <trkpt lat="43.43134" lon="6.08534">
        <ele>302.59967041016</ele>
        <time>2014-06-04T12:47:42Z</time>
      </trkpt>
      <trkpt lat="43.43138" lon="6.08541">
        <ele>303.34924316406</ele>
        <time>2014-06-04T12:47:48Z</time>
      </trkpt>
      <trkpt lat="43.43143" lon="6.08554">
        <ele>304.22634887695</ele>
        <time>2014-06-04T12:47:55Z</time>
      </trkpt>
      <trkpt lat="43.43146" lon="6.0856">
        <ele>304.77554321289</ele>
        <time>2014-06-04T12:47:58Z</time>
      </trkpt>
      <trkpt lat="43.43154" lon="6.08575">
        <ele>306.91632080078</ele>
        <time>2014-06-04T12:48:06Z</time>
      </trkpt>
      <trkpt lat="43.4316" lon="6.08584">
        <ele>308.87701416016</ele>
        <time>2014-06-04T12:48:11Z</time>
      </trkpt>
      <trkpt lat="43.43164" lon="6.08594">
        <ele>310.49740600586</ele>
        <time>2014-06-04T12:48:15Z</time>
      </trkpt>
      <trkpt lat="43.43166" lon="6.086">
        <ele>311.70370483398</ele>
        <time>2014-06-04T12:48:17Z</time>
      </trkpt>
      <trkpt lat="43.4317" lon="6.08611">
        <ele>312.76504516602</ele>
        <time>2014-06-04T12:48:20Z</time>
      </trkpt>
      <trkpt lat="43.43173" lon="6.08625">
        <ele>313.27841186523</ele>
        <time>2014-06-04T12:48:23Z</time>
      </trkpt>
      <trkpt lat="43.43176" lon="6.08639">
        <ele>313.98654174805</ele>
        <time>2014-06-04T12:48:26Z</time>
      </trkpt>
      <trkpt lat="43.4318" lon="6.08652">
        <ele>315.849609375</ele>
        <time>2014-06-04T12:48:29Z</time>
      </trkpt>
      <trkpt lat="43.43182" lon="6.08667">
        <ele>318.01657104492</ele>
        <time>2014-06-04T12:48:32Z</time>
      </trkpt>
      <trkpt lat="43.43184" lon="6.08677">
        <ele>318.73413085938</ele>
        <time>2014-06-04T12:48:34Z</time>
      </trkpt>
      <trkpt lat="43.43187" lon="6.08686">
        <ele>319.38299560547</ele>
        <time>2014-06-04T12:48:36Z</time>
      </trkpt>
      <trkpt lat="43.43193" lon="6.08707">
        <ele>320</ele>
        <time>2014-06-04T12:48:42Z</time>
      </trkpt>
      <trkpt lat="43.43196" lon="6.08717">
        <ele>319.77569580078</ele>
        <time>2014-06-04T12:48:46Z</time>
      </trkpt>
      <trkpt lat="43.43198" lon="6.08724">
        <ele>319.60540771484</ele>
        <time>2014-06-04T12:48:49Z</time>
      </trkpt>
      <trkpt lat="43.43202" lon="6.08737">
        <ele>319.62109375</ele>
        <time>2014-06-04T12:48:54Z</time>
      </trkpt>
      <trkpt lat="43.43204" lon="6.08744">
        <ele>319.76904296875</ele>
        <time>2014-06-04T12:48:57Z</time>
      </trkpt>
      <trkpt lat="43.43209" lon="6.08761">
        <ele>320</ele>
        <time>2014-06-04T12:49:06Z</time>
      </trkpt>
      <trkpt lat="43.43213" lon="6.08778">
        <ele>320</ele>
        <time>2014-06-04T12:49:14Z</time>
      </trkpt>
      <trkpt lat="43.43217" lon="6.08793">
        <ele>320</ele>
        <time>2014-06-04T12:49:21Z</time>
      </trkpt>
      <trkpt lat="43.43219" lon="6.088">
        <ele>320</ele>
        <time>2014-06-04T12:49:25Z</time>
      </trkpt>
      <trkpt lat="43.43221" lon="6.08806">
        <ele>320</ele>
        <time>2014-06-04T12:49:28Z</time>
      </trkpt>
      <trkpt lat="43.43223" lon="6.08812">
        <ele>319.83026123047</ele>
        <time>2014-06-04T12:49:31Z</time>
      </trkpt>
      <trkpt lat="43.43225" lon="6.08823">
        <ele>319.33142089844</ele>
        <time>2014-06-04T12:49:38Z</time>
      </trkpt>
      <trkpt lat="43.43226" lon="6.08829">
        <ele>319.17764282227</ele>
        <time>2014-06-04T12:49:41Z</time>
      </trkpt>
      <trkpt lat="43.43228" lon="6.0884">
        <ele>319.0940246582</ele>
        <time>2014-06-04T12:49:48Z</time>
      </trkpt>
      <trkpt lat="43.43231" lon="6.08854">
        <ele>318.92166137695</ele>
        <time>2014-06-04T12:49:55Z</time>
      </trkpt>
      <trkpt lat="43.43235" lon="6.08869">
        <ele>318.99786376953</ele>
        <time>2014-06-04T12:50:01Z</time>
      </trkpt>
      <trkpt lat="43.43236" lon="6.08871">
        <ele>319.0712890625</ele>
        <time>2014-06-04T12:50:02Z</time>
      </trkpt>
      <trkpt lat="43.43237" lon="6.08876">
        <ele>319.26544189453</ele>
        <time>2014-06-04T12:50:04Z</time>
      </trkpt>
      <trkpt lat="43.43239" lon="6.08887">
        <ele>319.87832641602</ele>
        <time>2014-06-04T12:50:09Z</time>
      </trkpt>
      <trkpt lat="43.4324" lon="6.08893">
        <ele>320</ele>
        <time>2014-06-04T12:50:12Z</time>
      </trkpt>
      <trkpt lat="43.43242" lon="6.08896">
        <ele>320</ele>
        <time>2014-06-04T12:50:14Z</time>
      </trkpt>
      <trkpt lat="43.43242" lon="6.08896">
        <ele>320</ele>
        <time>2014-06-04T12:50:32Z</time>
      </trkpt>
      <trkpt lat="43.43242" lon="6.08897">
        <ele>320</ele>
        <time>2014-06-04T12:51:59Z</time>
      </trkpt>
      <trkpt lat="43.43242" lon="6.08897">
        <ele>320</ele>
        <time>2014-06-04T12:52:10Z</time>
      </trkpt>
      <trkpt lat="43.43242" lon="6.08897">
        <ele>320</ele>
        <time>2014-06-04T12:52:15Z</time>
      </trkpt>
      <trkpt lat="43.43242" lon="6.08897">
        <ele>320</ele>
        <time>2014-06-04T12:52:38Z</time>
      </trkpt>
      <trkpt lat="43.43242" lon="6.08897">
        <ele>320</ele>
        <time>2014-06-04T12:52:50Z</time>
      </trkpt>
      <trkpt lat="43.43243" lon="6.08905">
        <ele>320</ele>
        <time>2014-06-04T12:52:57Z</time>
      </trkpt>
      <trkpt lat="43.43245" lon="6.08916">
        <ele>320</ele>
        <time>2014-06-04T12:53:01Z</time>
      </trkpt>
      <trkpt lat="43.43246" lon="6.08926">
        <ele>320</ele>
        <time>2014-06-04T12:53:04Z</time>
      </trkpt>
      <trkpt lat="43.43251" lon="6.08947">
        <ele>319.93551635742</ele>
        <time>2014-06-04T12:53:11Z</time>
      </trkpt>
      <trkpt lat="43.43256" lon="6.0897">
        <ele>319.94155883789</ele>
        <time>2014-06-04T12:53:18Z</time>
      </trkpt>
      <trkpt lat="43.43257" lon="6.08997">
        <ele>320</ele>
        <time>2014-06-04T12:53:24Z</time>
      </trkpt>
      <trkpt lat="43.43259" lon="6.09015">
        <ele>320</ele>
        <time>2014-06-04T12:53:28Z</time>
      </trkpt>
      <trkpt lat="43.4326" lon="6.09032">
        <ele>320</ele>
        <time>2014-06-04T12:53:32Z</time>
      </trkpt>
      <trkpt lat="43.43261" lon="6.0904">
        <ele>320</ele>
        <time>2014-06-04T12:53:34Z</time>
      </trkpt>
      <trkpt lat="43.43261" lon="6.09044">
        <ele>320</ele>
        <time>2014-06-04T12:53:35Z</time>
      </trkpt>
      <trkpt lat="43.43259" lon="6.0905">
        <ele>320</ele>
        <time>2014-06-04T12:53:37Z</time>
      </trkpt>
      <trkpt lat="43.43254" lon="6.0907">
        <ele>319.85736083984</ele>
        <time>2014-06-04T12:53:42Z</time>
      </trkpt>
      <trkpt lat="43.43245" lon="6.0908">
        <ele>319.85140991211</ele>
        <time>2014-06-04T12:53:45Z</time>
      </trkpt>
      <trkpt lat="43.43239" lon="6.09086">
        <ele>319.53561401367</ele>
        <time>2014-06-04T12:53:47Z</time>
      </trkpt>
      <trkpt lat="43.43235" lon="6.09089">
        <ele>319.37069702148</ele>
        <time>2014-06-04T12:53:48Z</time>
      </trkpt>
      <trkpt lat="43.43231" lon="6.09091">
        <ele>319.23739624023</ele>
        <time>2014-06-04T12:53:49Z</time>
      </trkpt>
      <trkpt lat="43.43228" lon="6.09092">
        <ele>319.13497924805</ele>
        <time>2014-06-04T12:53:50Z</time>
      </trkpt>
      <trkpt lat="43.43225" lon="6.09094">
        <ele>319.05514526367</ele>
        <time>2014-06-04T12:53:51Z</time>
      </trkpt>
      <trkpt lat="43.43212" lon="6.09101">
        <ele>319</ele>
        <time>2014-06-04T12:53:55Z</time>
      </trkpt>
      <trkpt lat="43.4321" lon="6.09107">
        <ele>319</ele>
        <time>2014-06-04T12:53:57Z</time>
      </trkpt>
      <trkpt lat="43.43211" lon="6.0911">
        <ele>319</ele>
        <time>2014-06-04T12:53:58Z</time>
      </trkpt>
      <trkpt lat="43.43214" lon="6.09121">
        <ele>319.10040283203</ele>
        <time>2014-06-04T12:54:03Z</time>
      </trkpt>
      <trkpt lat="43.43216" lon="6.09123">
        <ele>319.09301757812</ele>
        <time>2014-06-04T12:54:04Z</time>
      </trkpt>
      <trkpt lat="43.43229" lon="6.09138">
        <ele>318.74951171875</ele>
        <time>2014-06-04T12:54:09Z</time>
      </trkpt>
      <trkpt lat="43.43241" lon="6.09148">
        <ele>318.20541381836</ele>
        <time>2014-06-04T12:54:12Z</time>
      </trkpt>
      <trkpt lat="43.43246" lon="6.0915">
        <ele>317.88049316406</ele>
        <time>2014-06-04T12:54:13Z</time>
      </trkpt>
      <trkpt lat="43.43269" lon="6.09154">
        <ele>315.44244384766</ele>
        <time>2014-06-04T12:54:18Z</time>
      </trkpt>
      <trkpt lat="43.43273" lon="6.09154">
        <ele>314.93774414062</ele>
        <time>2014-06-04T12:54:19Z</time>
      </trkpt>
      <trkpt lat="43.43282" lon="6.09156">
        <ele>313.40368652344</ele>
        <time>2014-06-04T12:54:21Z</time>
      </trkpt>
      <trkpt lat="43.43291" lon="6.09159">
        <ele>311.47595214844</ele>
        <time>2014-06-04T12:54:23Z</time>
      </trkpt>
      <trkpt lat="43.43299" lon="6.09167">
        <ele>309.39883422852</ele>
        <time>2014-06-04T12:54:25Z</time>
      </trkpt>
      <trkpt lat="43.43303" lon="6.09172">
        <ele>308.65222167969</ele>
        <time>2014-06-04T12:54:26Z</time>
      </trkpt>
      <trkpt lat="43.43305" lon="6.09178">
        <ele>308.15783691406</ele>
        <time>2014-06-04T12:54:27Z</time>
      </trkpt>
      <trkpt lat="43.43307" lon="6.09185">
        <ele>307.48684692383</ele>
        <time>2014-06-04T12:54:28Z</time>
      </trkpt>
      <trkpt lat="43.4331" lon="6.09199">
        <ele>307.73858642578</ele>
        <time>2014-06-04T12:54:30Z</time>
      </trkpt>
      <trkpt lat="43.43312" lon="6.0921">
        <ele>309.38180541992</ele>
        <time>2014-06-04T12:54:32Z</time>
      </trkpt>
      <trkpt lat="43.43312" lon="6.09214">
        <ele>310.09252929688</ele>
        <time>2014-06-04T12:54:33Z</time>
      </trkpt>
      <trkpt lat="43.43312" lon="6.09223">
        <ele>311.74807739258</ele>
        <time>2014-06-04T12:54:35Z</time>
      </trkpt>
      <trkpt lat="43.43312" lon="6.09228">
        <ele>311.59582519531</ele>
        <time>2014-06-04T12:54:36Z</time>
      </trkpt>
      <trkpt lat="43.43312" lon="6.09235">
        <ele>311.52581787109</ele>
        <time>2014-06-04T12:54:37Z</time>
      </trkpt>
      <trkpt lat="43.43311" lon="6.09241">
        <ele>311.81677246094</ele>
        <time>2014-06-04T12:54:38Z</time>
      </trkpt>
      <trkpt lat="43.43309" lon="6.09246">
        <ele>312.22406005859</ele>
        <time>2014-06-04T12:54:39Z</time>
      </trkpt>
      <trkpt lat="43.43306" lon="6.09251">
        <ele>312.94116210938</ele>
        <time>2014-06-04T12:54:40Z</time>
      </trkpt>
      <trkpt lat="43.43303" lon="6.09253">
        <ele>313.20455932617</ele>
        <time>2014-06-04T12:54:41Z</time>
      </trkpt>
      <trkpt lat="43.43296" lon="6.09256">
        <ele>314.26812744141</ele>
        <time>2014-06-04T12:54:43Z</time>
      </trkpt>
      <trkpt lat="43.43287" lon="6.09262">
        <ele>315.24224853516</ele>
        <time>2014-06-04T12:54:45Z</time>
      </trkpt>
      <trkpt lat="43.43275" lon="6.0927">
        <ele>316.10870361328</ele>
        <time>2014-06-04T12:54:48Z</time>
      </trkpt>
      <trkpt lat="43.4327" lon="6.09273">
        <ele>316.02117919922</ele>
        <time>2014-06-04T12:54:49Z</time>
      </trkpt>
      <trkpt lat="43.43262" lon="6.09285">
        <ele>314.5539855957</ele>
        <time>2014-06-04T12:54:51Z</time>
      </trkpt>
      <trkpt lat="43.43258" lon="6.09292">
        <ele>313.29055786133</ele>
        <time>2014-06-04T12:54:52Z</time>
      </trkpt>
      <trkpt lat="43.43255" lon="6.093">
        <ele>311.76275634766</ele>
        <time>2014-06-04T12:54:53Z</time>
      </trkpt>
      <trkpt lat="43.43253" lon="6.09309">
        <ele>310.22210693359</ele>
        <time>2014-06-04T12:54:54Z</time>
      </trkpt>
      <trkpt lat="43.43251" lon="6.09317">
        <ele>308.79644775391</ele>
        <time>2014-06-04T12:54:55Z</time>
      </trkpt>
      <trkpt lat="43.4325" lon="6.09326">
        <ele>307.30712890625</ele>
        <time>2014-06-04T12:54:56Z</time>
      </trkpt>
      <trkpt lat="43.43248" lon="6.09335">
        <ele>305.6217956543</ele>
        <time>2014-06-04T12:54:57Z</time>
      </trkpt>
      <trkpt lat="43.43246" lon="6.09343">
        <ele>303.69760131836</ele>
        <time>2014-06-04T12:54:58Z</time>
      </trkpt>
      <trkpt lat="43.43245" lon="6.09352">
        <ele>301.92266845703</ele>
        <time>2014-06-04T12:54:59Z</time>
      </trkpt>
      <trkpt lat="43.43244" lon="6.0936">
        <ele>300.31198120117</ele>
        <time>2014-06-04T12:55:00Z</time>
      </trkpt>
      <trkpt lat="43.43244" lon="6.09367">
        <ele>299.79180908203</ele>
        <time>2014-06-04T12:55:01Z</time>
      </trkpt>
      <trkpt lat="43.43245" lon="6.09373">
        <ele>299.58755493164</ele>
        <time>2014-06-04T12:55:02Z</time>
      </trkpt>
      <trkpt lat="43.43246" lon="6.09376">
        <ele>299.46737670898</ele>
        <time>2014-06-04T12:55:03Z</time>
      </trkpt>
      <trkpt lat="43.4325" lon="6.09379">
        <ele>299.36437988281</ele>
        <time>2014-06-04T12:55:04Z</time>
      </trkpt>
      <trkpt lat="43.43251" lon="6.0938">
        <ele>299.31246948242</ele>
        <time>2014-06-04T12:55:05Z</time>
      </trkpt>
      <trkpt lat="43.43251" lon="6.0938">
        <ele>299.31246948242</ele>
        <time>2014-06-04T12:55:06Z</time>
      </trkpt>
      <trkpt lat="43.43251" lon="6.09381">
        <ele>299.25338745117</ele>
        <time>2014-06-04T12:55:18Z</time>
      </trkpt>
      <trkpt lat="43.43251" lon="6.09381">
        <ele>299.25338745117</ele>
        <time>2014-06-04T12:55:31Z</time>
      </trkpt>
      <trkpt lat="43.43251" lon="6.09383">
        <ele>299.18927001953</ele>
        <time>2014-06-04T12:55:40Z</time>
      </trkpt>
      <trkpt lat="43.43251" lon="6.09383">
        <ele>299.18927001953</ele>
        <time>2014-06-04T12:55:42Z</time>
      </trkpt>
      <trkpt lat="43.43251" lon="6.09383">
        <ele>299.20529174805</ele>
        <time>2014-06-04T12:55:44Z</time>
      </trkpt>
      <trkpt lat="43.43247" lon="6.09382">
        <ele>299.24765014648</ele>
        <time>2014-06-04T12:55:46Z</time>
      </trkpt>
      <trkpt lat="43.4324" lon="6.09382">
        <ele>299.24423217773</ele>
        <time>2014-06-04T12:55:49Z</time>
      </trkpt>
      <trkpt lat="43.43237" lon="6.09384">
        <ele>299.18243408203</ele>
        <time>2014-06-04T12:55:50Z</time>
      </trkpt>
      <trkpt lat="43.43234" lon="6.09386">
        <ele>299.11547851562</ele>
        <time>2014-06-04T12:55:51Z</time>
      </trkpt>
      <trkpt lat="43.4323" lon="6.09387">
        <ele>299.07943725586</ele>
        <time>2014-06-04T12:55:52Z</time>
      </trkpt>
      <trkpt lat="43.43222" lon="6.09386">
        <ele>299.10345458984</ele>
        <time>2014-06-04T12:55:54Z</time>
      </trkpt>
      <trkpt lat="43.43218" lon="6.09386">
        <ele>299.09487915039</ele>
        <time>2014-06-04T12:55:55Z</time>
      </trkpt>
      <trkpt lat="43.432" lon="6.09388">
        <ele>299.04852294922</ele>
        <time>2014-06-04T12:56:00Z</time>
      </trkpt>
      <trkpt lat="43.43188" lon="6.09387">
        <ele>298.59997558594</ele>
        <time>2014-06-04T12:56:03Z</time>
      </trkpt>
      <trkpt lat="43.43184" lon="6.09389">
        <ele>298.24072265625</ele>
        <time>2014-06-04T12:56:04Z</time>
      </trkpt>
      <trkpt lat="43.43176" lon="6.09395">
        <ele>297.63647460938</ele>
        <time>2014-06-04T12:56:06Z</time>
      </trkpt>
      <trkpt lat="43.43165" lon="6.09406">
        <ele>296.75814819336</ele>
        <time>2014-06-04T12:56:09Z</time>
      </trkpt>
      <trkpt lat="43.43148" lon="6.09424">
        <ele>293.23385620117</ele>
        <time>2014-06-04T12:56:14Z</time>
      </trkpt>
      <trkpt lat="43.43137" lon="6.09431">
        <ele>290.67706298828</ele>
        <time>2014-06-04T12:56:17Z</time>
      </trkpt>
      <trkpt lat="43.4313" lon="6.09437">
        <ele>289.18362426758</ele>
        <time>2014-06-04T12:56:19Z</time>
      </trkpt>
      <trkpt lat="43.43107" lon="6.09459">
        <ele>284.24597167969</ele>
        <time>2014-06-04T12:56:25Z</time>
      </trkpt>
      <trkpt lat="43.43095" lon="6.09468">
        <ele>281.8713684082</ele>
        <time>2014-06-04T12:56:28Z</time>
      </trkpt>
      <trkpt lat="43.43072" lon="6.09481">
        <ele>280</ele>
        <time>2014-06-04T12:56:34Z</time>
      </trkpt>
      <trkpt lat="43.43068" lon="6.09479">
        <ele>280</ele>
        <time>2014-06-04T12:56:35Z</time>
      </trkpt>
      <trkpt lat="43.43061" lon="6.09474">
        <ele>280</ele>
        <time>2014-06-04T12:56:37Z</time>
      </trkpt>
      <trkpt lat="43.43058" lon="6.09473">
        <ele>280</ele>
        <time>2014-06-04T12:56:38Z</time>
      </trkpt>
      <trkpt lat="43.43053" lon="6.09474">
        <ele>280</ele>
        <time>2014-06-04T12:56:40Z</time>
      </trkpt>
      <trkpt lat="43.4305" lon="6.09475">
        <ele>280</ele>
        <time>2014-06-04T12:56:41Z</time>
      </trkpt>
      <trkpt lat="43.43041" lon="6.09472">
        <ele>280</ele>
        <time>2014-06-04T12:56:44Z</time>
      </trkpt>
      <trkpt lat="43.43035" lon="6.09467">
        <ele>280</ele>
        <time>2014-06-04T12:56:46Z</time>
      </trkpt>
      <trkpt lat="43.43023" lon="6.09454">
        <ele>280</ele>
        <time>2014-06-04T12:56:49Z</time>
      </trkpt>
      <trkpt lat="43.43019" lon="6.0945">
        <ele>280</ele>
        <time>2014-06-04T12:56:50Z</time>
      </trkpt>
      <trkpt lat="43.43015" lon="6.09447">
        <ele>280</ele>
        <time>2014-06-04T12:56:51Z</time>
      </trkpt>
      <trkpt lat="43.43012" lon="6.09444">
        <ele>280</ele>
        <time>2014-06-04T12:56:52Z</time>
      </trkpt>
      <trkpt lat="43.43009" lon="6.09443">
        <ele>280</ele>
        <time>2014-06-04T12:56:53Z</time>
      </trkpt>
      <trkpt lat="43.43006" lon="6.09441">
        <ele>280</ele>
        <time>2014-06-04T12:56:54Z</time>
      </trkpt>
      <trkpt lat="43.43003" lon="6.09439">
        <ele>280</ele>
        <time>2014-06-04T12:56:55Z</time>
      </trkpt>
      <trkpt lat="43.42997" lon="6.0944">
        <ele>280</ele>
        <time>2014-06-04T12:56:57Z</time>
      </trkpt>
      <trkpt lat="43.42995" lon="6.09441">
        <ele>280</ele>
        <time>2014-06-04T12:56:58Z</time>
      </trkpt>
      <trkpt lat="43.42993" lon="6.09442">
        <ele>280</ele>
        <time>2014-06-04T12:56:59Z</time>
      </trkpt>
      <trkpt lat="43.42992" lon="6.09442">
        <ele>280</ele>
        <time>2014-06-04T12:57:02Z</time>
      </trkpt>
      <trkpt lat="43.42992" lon="6.09443">
        <ele>280</ele>
        <time>2014-06-04T12:57:13Z</time>
      </trkpt>
      <trkpt lat="43.42992" lon="6.09443">
        <ele>280</ele>
        <time>2014-06-04T12:57:24Z</time>
      </trkpt>
      <trkpt lat="43.4299" lon="6.09443">
        <ele>280</ele>
        <time>2014-06-04T12:57:33Z</time>
      </trkpt>
      <trkpt lat="43.42988" lon="6.09446">
        <ele>280</ele>
        <time>2014-06-04T12:57:38Z</time>
      </trkpt>
      <trkpt lat="43.42987" lon="6.09455">
        <ele>280</ele>
        <time>2014-06-04T12:57:43Z</time>
      </trkpt>
      <trkpt lat="43.42987" lon="6.09461">
        <ele>280</ele>
        <time>2014-06-04T12:57:45Z</time>
      </trkpt>
      <trkpt lat="43.42988" lon="6.09476">
        <ele>280</ele>
        <time>2014-06-04T12:57:50Z</time>
      </trkpt>
      <trkpt lat="43.42988" lon="6.09489">
        <ele>280</ele>
        <time>2014-06-04T12:57:55Z</time>
      </trkpt>
      <trkpt lat="43.42989" lon="6.09497">
        <ele>280</ele>
        <time>2014-06-04T12:57:58Z</time>
      </trkpt>
      <trkpt lat="43.4299" lon="6.09512">
        <ele>280</ele>
        <time>2014-06-04T12:58:03Z</time>
      </trkpt>
      <trkpt lat="43.42992" lon="6.0952">
        <ele>280</ele>
        <time>2014-06-04T12:58:06Z</time>
      </trkpt>
      <trkpt lat="43.42992" lon="6.09524">
        <ele>280</ele>
        <time>2014-06-04T12:58:08Z</time>
      </trkpt>
      <trkpt lat="43.42992" lon="6.09526">
        <ele>280</ele>
        <time>2014-06-04T12:58:09Z</time>
      </trkpt>
      <trkpt lat="43.42992" lon="6.09531">
        <ele>280</ele>
        <time>2014-06-04T12:58:11Z</time>
      </trkpt>
      <trkpt lat="43.42992" lon="6.09541">
        <ele>280</ele>
        <time>2014-06-04T12:58:15Z</time>
      </trkpt>
      <trkpt lat="43.42984" lon="6.09565">
        <ele>280</ele>
        <time>2014-06-04T12:58:20Z</time>
      </trkpt>
      <trkpt lat="43.42981" lon="6.09577">
        <ele>280</ele>
        <time>2014-06-04T12:58:22Z</time>
      </trkpt>
      <trkpt lat="43.4298" lon="6.09584">
        <ele>280</ele>
        <time>2014-06-04T12:58:23Z</time>
      </trkpt>
      <trkpt lat="43.42979" lon="6.09589">
        <ele>280</ele>
        <time>2014-06-04T12:58:24Z</time>
      </trkpt>
      <trkpt lat="43.42979" lon="6.09594">
        <ele>280</ele>
        <time>2014-06-04T12:58:25Z</time>
      </trkpt>
      <trkpt lat="43.42979" lon="6.09597">
        <ele>280</ele>
        <time>2014-06-04T12:58:26Z</time>
      </trkpt>
      <trkpt lat="43.42979" lon="6.09604">
        <ele>280</ele>
        <time>2014-06-04T12:58:28Z</time>
      </trkpt>
      <trkpt lat="43.42977" lon="6.09622">
        <ele>280.06292724609</ele>
        <time>2014-06-04T12:58:33Z</time>
      </trkpt>
      <trkpt lat="43.42976" lon="6.09643">
        <ele>280.2626953125</ele>
        <time>2014-06-04T12:58:38Z</time>
      </trkpt>
      <trkpt lat="43.42973" lon="6.09677">
        <ele>281.41519165039</ele>
        <time>2014-06-04T12:58:45Z</time>
      </trkpt>
      <trkpt lat="43.42971" lon="6.097">
        <ele>281.87219238281</ele>
        <time>2014-06-04T12:58:51Z</time>
      </trkpt>
      <trkpt lat="43.42969" lon="6.09715">
        <ele>281.625</ele>
        <time>2014-06-04T12:58:57Z</time>
      </trkpt>
      <trkpt lat="43.4297" lon="6.09719">
        <ele>281.70739746094</ele>
        <time>2014-06-04T12:58:59Z</time>
      </trkpt>
      <trkpt lat="43.4297" lon="6.09725">
        <ele>281.78979492188</ele>
        <time>2014-06-04T12:59:02Z</time>
      </trkpt>
      <trkpt lat="43.4297" lon="6.0973">
        <ele>281.78979492188</ele>
        <time>2014-06-04T12:59:04Z</time>
      </trkpt>
      <trkpt lat="43.42968" lon="6.0974">
        <ele>281.58380126953</ele>
        <time>2014-06-04T12:59:08Z</time>
      </trkpt>
      <trkpt lat="43.42967" lon="6.09745">
        <ele>281.46020507812</ele>
        <time>2014-06-04T12:59:10Z</time>
      </trkpt>
      <trkpt lat="43.42967" lon="6.0975">
        <ele>281.41900634766</ele>
        <time>2014-06-04T12:59:12Z</time>
      </trkpt>
      <trkpt lat="43.42965" lon="6.09758">
        <ele>281.42660522461</ele>
        <time>2014-06-04T12:59:15Z</time>
      </trkpt>
      <trkpt lat="43.42964" lon="6.09781">
        <ele>281.78588867188</ele>
        <time>2014-06-04T12:59:22Z</time>
      </trkpt>
      <trkpt lat="43.42964" lon="6.09787">
        <ele>281.78588867188</ele>
        <time>2014-06-04T12:59:24Z</time>
      </trkpt>
      <trkpt lat="43.42963" lon="6.09795">
        <ele>281.67602539062</ele>
        <time>2014-06-04T12:59:27Z</time>
      </trkpt>
      <trkpt lat="43.42963" lon="6.09803">
        <ele>281.62109375</ele>
        <time>2014-06-04T12:59:31Z</time>
      </trkpt>
      <trkpt lat="43.42961" lon="6.09808">
        <ele>281.32104492188</ele>
        <time>2014-06-04T12:59:34Z</time>
      </trkpt>
      <trkpt lat="43.4296" lon="6.09811">
        <ele>281.23904418945</ele>
        <time>2014-06-04T12:59:35Z</time>
      </trkpt>
      <trkpt lat="43.4296" lon="6.09815">
        <ele>281.05511474609</ele>
        <time>2014-06-04T12:59:37Z</time>
      </trkpt>
      <trkpt lat="43.42959" lon="6.09817">
        <ele>280.95944213867</ele>
        <time>2014-06-04T12:59:38Z</time>
      </trkpt>
      <trkpt lat="43.42957" lon="6.09834">
        <ele>280.27554321289</ele>
        <time>2014-06-04T12:59:46Z</time>
      </trkpt>
      <trkpt lat="43.42958" lon="6.09837">
        <ele>280.51779174805</ele>
        <time>2014-06-04T12:59:47Z</time>
      </trkpt>
      <trkpt lat="43.42958" lon="6.09846">
        <ele>281.22546386719</ele>
        <time>2014-06-04T12:59:50Z</time>
      </trkpt>
      <trkpt lat="43.42959" lon="6.0985">
        <ele>281.4958190918</ele>
        <time>2014-06-04T12:59:51Z</time>
      </trkpt>
      <trkpt lat="43.4296" lon="6.09872">
        <ele>282.82608032227</ele>
        <time>2014-06-04T12:59:58Z</time>
      </trkpt>
      <trkpt lat="43.42958" lon="6.09887">
        <ele>282.96856689453</ele>
        <time>2014-06-04T13:00:03Z</time>
      </trkpt>
      <trkpt lat="43.42955" lon="6.09908">
        <ele>284.48251342773</ele>
        <time>2014-06-04T13:00:10Z</time>
      </trkpt>
      <trkpt lat="43.42952" lon="6.09927">
        <ele>285.42935180664</ele>
        <time>2014-06-04T13:00:17Z</time>
      </trkpt>
      <trkpt lat="43.42952" lon="6.09928">
        <ele>285.45336914062</ele>
        <time>2014-06-04T13:00:18Z</time>
      </trkpt>
      <trkpt lat="43.42952" lon="6.09932">
        <ele>285.65594482422</ele>
        <time>2014-06-04T13:00:20Z</time>
      </trkpt>
      <trkpt lat="43.4295" lon="6.09936">
        <ele>285.6628112793</ele>
        <time>2014-06-04T13:00:22Z</time>
      </trkpt>
      <trkpt lat="43.42949" lon="6.09939">
        <ele>285.57696533203</ele>
        <time>2014-06-04T13:00:24Z</time>
      </trkpt>
      <trkpt lat="43.42947" lon="6.09946">
        <ele>285.79541015625</ele>
        <time>2014-06-04T13:00:28Z</time>
      </trkpt>
      <trkpt lat="43.42945" lon="6.09948">
        <ele>285.66513061523</ele>
        <time>2014-06-04T13:00:30Z</time>
      </trkpt>
      <trkpt lat="43.42944" lon="6.09949">
        <ele>285.62216186523</ele>
        <time>2014-06-04T13:00:31Z</time>
      </trkpt>
      <trkpt lat="43.42943" lon="6.09949">
        <ele>285.46423339844</ele>
        <time>2014-06-04T13:00:32Z</time>
      </trkpt>
      <trkpt lat="43.42938" lon="6.09948">
        <ele>284.64712524414</ele>
        <time>2014-06-04T13:00:35Z</time>
      </trkpt>
      <trkpt lat="43.42935" lon="6.09948">
        <ele>284.20080566406</ele>
        <time>2014-06-04T13:00:37Z</time>
      </trkpt>
      <trkpt lat="43.42928" lon="6.09951">
        <ele>283.63088989258</ele>
        <time>2014-06-04T13:00:41Z</time>
      </trkpt>
      <trkpt lat="43.42922" lon="6.09955">
        <ele>283.31503295898</ele>
        <time>2014-06-04T13:00:44Z</time>
      </trkpt>
      <trkpt lat="43.42914" lon="6.0996">
        <ele>282.96185302734</ele>
        <time>2014-06-04T13:00:48Z</time>
      </trkpt>
      <trkpt lat="43.42905" lon="6.09967">
        <ele>283.11978149414</ele>
        <time>2014-06-04T13:00:53Z</time>
      </trkpt>
      <trkpt lat="43.42903" lon="6.09971">
        <ele>283.40356445312</ele>
        <time>2014-06-04T13:00:55Z</time>
      </trkpt>
      <trkpt lat="43.429" lon="6.09976">
        <ele>283.65902709961</ele>
        <time>2014-06-04T13:00:57Z</time>
      </trkpt>
      <trkpt lat="43.42896" lon="6.09983">
        <ele>283.95770263672</ele>
        <time>2014-06-04T13:01:00Z</time>
      </trkpt>
      <trkpt lat="43.42889" lon="6.09992">
        <ele>284.10192871094</ele>
        <time>2014-06-04T13:01:05Z</time>
      </trkpt>
      <trkpt lat="43.42888" lon="6.09998">
        <ele>284.74816894531</ele>
        <time>2014-06-04T13:01:09Z</time>
      </trkpt>
      <trkpt lat="43.42887" lon="6.1">
        <ele>284.88864135742</ele>
        <time>2014-06-04T13:01:10Z</time>
      </trkpt>
      <trkpt lat="43.42887" lon="6.10002">
        <ele>285.07290649414</ele>
        <time>2014-06-04T13:01:11Z</time>
      </trkpt>
      <trkpt lat="43.42886" lon="6.10005">
        <ele>285.30551147461</ele>
        <time>2014-06-04T13:01:13Z</time>
      </trkpt>
      <trkpt lat="43.42881" lon="6.1001">
        <ele>285.42050170898</ele>
        <time>2014-06-04T13:01:17Z</time>
      </trkpt>
      <trkpt lat="43.42878" lon="6.10014">
        <ele>285.51113891602</ele>
        <time>2014-06-04T13:01:20Z</time>
      </trkpt>
      <trkpt lat="43.42875" lon="6.10019">
        <ele>285.68280029297</ele>
        <time>2014-06-04T13:01:23Z</time>
      </trkpt>
      <trkpt lat="43.42873" lon="6.10026">
        <ele>286.1155090332</ele>
        <time>2014-06-04T13:01:26Z</time>
      </trkpt>
      <trkpt lat="43.42871" lon="6.10029">
        <ele>286.17105102539</ele>
        <time>2014-06-04T13:01:27Z</time>
      </trkpt>
      <trkpt lat="43.42871" lon="6.10031">
        <ele>286.28247070312</ele>
        <time>2014-06-04T13:01:28Z</time>
      </trkpt>
      <trkpt lat="43.42871" lon="6.10033">
        <ele>286.37982177734</ele>
        <time>2014-06-04T13:01:29Z</time>
      </trkpt>
      <trkpt lat="43.42872" lon="6.10036">
        <ele>286.68499755859</ele>
        <time>2014-06-04T13:01:34Z</time>
      </trkpt>
      <trkpt lat="43.42872" lon="6.10036">
        <ele>286.68499755859</ele>
        <time>2014-06-04T13:01:50Z</time>
      </trkpt>
      <trkpt lat="43.42872" lon="6.10036">
        <ele>286.68194580078</ele>
        <time>2014-06-04T13:02:30Z</time>
      </trkpt>
      <trkpt lat="43.42872" lon="6.10036">
        <ele>286.68194580078</ele>
        <time>2014-06-04T13:02:45Z</time>
      </trkpt>
      <trkpt lat="43.42872" lon="6.10037">
        <ele>286.73370361328</ele>
        <time>2014-06-04T13:02:55Z</time>
      </trkpt>
      <trkpt lat="43.42872" lon="6.10037">
        <ele>286.73370361328</ele>
        <time>2014-06-04T13:03:13Z</time>
      </trkpt>
      <trkpt lat="43.42872" lon="6.10037">
        <ele>286.73370361328</ele>
        <time>2014-06-04T13:03:25Z</time>
      </trkpt>
      <trkpt lat="43.42871" lon="6.10037">
        <ele>286.72259521484</ele>
        <time>2014-06-04T13:03:36Z</time>
      </trkpt>
      <trkpt lat="43.42871" lon="6.10037">
        <ele>286.72259521484</ele>
        <time>2014-06-04T13:03:38Z</time>
      </trkpt>
      <trkpt lat="43.42872" lon="6.10039">
        <ele>286.87985229492</ele>
        <time>2014-06-04T13:03:43Z</time>
      </trkpt>
      <trkpt lat="43.42872" lon="6.10039">
        <ele>286.87985229492</ele>
        <time>2014-06-04T13:04:06Z</time>
      </trkpt>
      <trkpt lat="43.42872" lon="6.10039">
        <ele>286.87985229492</ele>
        <time>2014-06-04T13:04:13Z</time>
      </trkpt>
      <trkpt lat="43.42872" lon="6.10039">
        <ele>286.95385742188</ele>
        <time>2014-06-04T13:04:22Z</time>
      </trkpt>
      <trkpt lat="43.42873" lon="6.1004">
        <ele>287.11972045898</ele>
        <time>2014-06-04T13:04:30Z</time>
      </trkpt>
      <trkpt lat="43.42873" lon="6.1004">
        <ele>287.11972045898</ele>
        <time>2014-06-04T13:05:03Z</time>
      </trkpt>
      <trkpt lat="43.42873" lon="6.10041">
        <ele>287.14202880859</ele>
        <time>2014-06-04T13:05:23Z</time>
      </trkpt>
      <trkpt lat="43.42873" lon="6.10041">
        <ele>287.14202880859</ele>
        <time>2014-06-04T13:05:49Z</time>
      </trkpt>
      <trkpt lat="43.42873" lon="6.10041">
        <ele>287.14202880859</ele>
        <time>2014-06-04T13:06:00Z</time>
      </trkpt>
      <trkpt lat="43.42873" lon="6.10041">
        <ele>287.19915771484</ele>
        <time>2014-06-04T13:06:11Z</time>
      </trkpt>
      <trkpt lat="43.42873" lon="6.10043">
        <ele>287.31726074219</ele>
        <time>2014-06-04T13:06:16Z</time>
      </trkpt>
      <trkpt lat="43.42873" lon="6.10045">
        <ele>287.34866333008</ele>
        <time>2014-06-04T13:06:17Z</time>
      </trkpt>
      <trkpt lat="43.42872" lon="6.10051">
        <ele>287.65930175781</ele>
        <time>2014-06-04T13:06:20Z</time>
      </trkpt>
      <trkpt lat="43.42871" lon="6.10058">
        <ele>288.04089355469</ele>
        <time>2014-06-04T13:06:22Z</time>
      </trkpt>
      <trkpt lat="43.4287" lon="6.10088">
        <ele>290.74203491211</ele>
        <time>2014-06-04T13:06:28Z</time>
      </trkpt>
      <trkpt lat="43.4287" lon="6.10098">
        <ele>291.20556640625</ele>
        <time>2014-06-04T13:06:30Z</time>
      </trkpt>
      <trkpt lat="43.42869" lon="6.10103">
        <ele>291.35348510742</ele>
        <time>2014-06-04T13:06:31Z</time>
      </trkpt>
      <trkpt lat="43.42869" lon="6.10108">
        <ele>291.51419067383</ele>
        <time>2014-06-04T13:06:32Z</time>
      </trkpt>
      <trkpt lat="43.42868" lon="6.10118">
        <ele>292.15182495117</ele>
        <time>2014-06-04T13:06:34Z</time>
      </trkpt>
      <trkpt lat="43.42867" lon="6.1013">
        <ele>292.8994140625</ele>
        <time>2014-06-04T13:06:36Z</time>
      </trkpt>
      <trkpt lat="43.42865" lon="6.10136">
        <ele>292.85147094727</ele>
        <time>2014-06-04T13:06:37Z</time>
      </trkpt>
      <trkpt lat="43.4286" lon="6.10146">
        <ele>291.5791015625</ele>
        <time>2014-06-04T13:06:39Z</time>
      </trkpt>
      <trkpt lat="43.42854" lon="6.10155">
        <ele>289.8212890625</ele>
        <time>2014-06-04T13:06:41Z</time>
      </trkpt>
      <trkpt lat="43.42841" lon="6.10176">
        <ele>285.90908813477</ele>
        <time>2014-06-04T13:06:45Z</time>
      </trkpt>
      <trkpt lat="43.42831" lon="6.1019">
        <ele>283.69418334961</ele>
        <time>2014-06-04T13:06:48Z</time>
      </trkpt>
      <trkpt lat="43.42828" lon="6.10195">
        <ele>283.43814086914</ele>
        <time>2014-06-04T13:06:49Z</time>
      </trkpt>
      <trkpt lat="43.42826" lon="6.10201">
        <ele>283.87588500977</ele>
        <time>2014-06-04T13:06:50Z</time>
      </trkpt>
      <trkpt lat="43.4282" lon="6.10213">
        <ele>284.62774658203</ele>
        <time>2014-06-04T13:06:52Z</time>
      </trkpt>
      <trkpt lat="43.42818" lon="6.10219">
        <ele>284.94189453125</ele>
        <time>2014-06-04T13:06:53Z</time>
      </trkpt>
      <trkpt lat="43.42815" lon="6.10223">
        <ele>285.08337402344</ele>
        <time>2014-06-04T13:06:54Z</time>
      </trkpt>
      <trkpt lat="43.42813" lon="6.10226">
        <ele>285.20407104492</ele>
        <time>2014-06-04T13:06:55Z</time>
      </trkpt>
      <trkpt lat="43.42808" lon="6.10231">
        <ele>285.24060058594</ele>
        <time>2014-06-04T13:06:58Z</time>
      </trkpt>
      <trkpt lat="43.428" lon="6.10244">
        <ele>286.17807006836</ele>
        <time>2014-06-04T13:07:03Z</time>
      </trkpt>
      <trkpt lat="43.42796" lon="6.1026">
        <ele>287.35064697266</ele>
        <time>2014-06-04T13:07:08Z</time>
      </trkpt>
      <trkpt lat="43.42796" lon="6.10286">
        <ele>289.48458862305</ele>
        <time>2014-06-04T13:07:15Z</time>
      </trkpt>
      <trkpt lat="43.42804" lon="6.10309">
        <ele>292.13482666016</ele>
        <time>2014-06-04T13:07:21Z</time>
      </trkpt>
      <trkpt lat="43.42813" lon="6.1033">
        <ele>294.03607177734</ele>
        <time>2014-06-04T13:07:27Z</time>
      </trkpt>
      <trkpt lat="43.42818" lon="6.10337">
        <ele>294.57458496094</ele>
        <time>2014-06-04T13:07:29Z</time>
      </trkpt>
      <trkpt lat="43.42825" lon="6.10354">
        <ele>295.44491577148</ele>
        <time>2014-06-04T13:07:34Z</time>
      </trkpt>
      <trkpt lat="43.4283" lon="6.10359">
        <ele>295.80197143555</ele>
        <time>2014-06-04T13:07:39Z</time>
      </trkpt>
      <trkpt lat="43.42831" lon="6.10361">
        <ele>295.90368652344</ele>
        <time>2014-06-04T13:07:44Z</time>
      </trkpt>
      <trkpt lat="43.42831" lon="6.10361">
        <ele>295.90368652344</ele>
        <time>2014-06-04T13:07:50Z</time>
      </trkpt>
      <trkpt lat="43.42828" lon="6.10362">
        <ele>295.79382324219</ele>
        <time>2014-06-04T13:07:56Z</time>
      </trkpt>
      <trkpt lat="43.42828" lon="6.10362">
        <ele>295.79382324219</ele>
        <time>2014-06-04T13:08:20Z</time>
      </trkpt>
      <trkpt lat="43.42828" lon="6.10362">
        <ele>295.79382324219</ele>
        <time>2014-06-04T13:08:22Z</time>
      </trkpt>
      <trkpt lat="43.42828" lon="6.10362">
        <ele>295.79382324219</ele>
        <time>2014-06-04T13:08:31Z</time>
      </trkpt>
      <trkpt lat="43.42829" lon="6.10362">
        <ele>295.84875488281</ele>
        <time>2014-06-04T13:08:36Z</time>
      </trkpt>
      <trkpt lat="43.4283" lon="6.1036">
        <ele>295.84832763672</ele>
        <time>2014-06-04T13:08:37Z</time>
      </trkpt>
      <trkpt lat="43.42834" lon="6.10353">
        <ele>295.79663085938</ele>
        <time>2014-06-04T13:08:45Z</time>
      </trkpt>
      <trkpt lat="43.42836" lon="6.10353">
        <ele>295.88763427734</ele>
        <time>2014-06-04T13:08:50Z</time>
      </trkpt>
      <trkpt lat="43.42841" lon="6.10351">
        <ele>296.18115234375</ele>
        <time>2014-06-04T13:08:55Z</time>
      </trkpt>
      <trkpt lat="43.42842" lon="6.1035">
        <ele>296.24981689453</ele>
        <time>2014-06-04T13:08:58Z</time>
      </trkpt>
      <trkpt lat="43.42843" lon="6.10349">
        <ele>296.28588867188</ele>
        <time>2014-06-04T13:09:00Z</time>
      </trkpt>
      <trkpt lat="43.42844" lon="6.10349">
        <ele>296.34423828125</ele>
        <time>2014-06-04T13:09:02Z</time>
      </trkpt>
      <trkpt lat="43.42844" lon="6.10349">
        <ele>296.34423828125</ele>
        <time>2014-06-04T13:09:14Z</time>
      </trkpt>
      <trkpt lat="43.42846" lon="6.10348">
        <ele>296.43524169922</ele>
        <time>2014-06-04T13:09:19Z</time>
      </trkpt>
      <trkpt lat="43.42847" lon="6.10348">
        <ele>296.48672485352</ele>
        <time>2014-06-04T13:09:21Z</time>
      </trkpt>
      <trkpt lat="43.42847" lon="6.10348">
        <ele>296.48672485352</ele>
        <time>2014-06-04T13:09:28Z</time>
      </trkpt>
      <trkpt lat="43.42847" lon="6.10349">
        <ele>296.56396484375</ele>
        <time>2014-06-04T13:09:32Z</time>
      </trkpt>
      <trkpt lat="43.42847" lon="6.10349">
        <ele>296.56396484375</ele>
        <time>2014-06-04T13:09:38Z</time>
      </trkpt>
      <trkpt lat="43.42848" lon="6.1035">
        <ele>296.65667724609</ele>
        <time>2014-06-04T13:09:48Z</time>
      </trkpt>
      <trkpt lat="43.42848" lon="6.1035">
        <ele>296.65838623047</ele>
        <time>2014-06-04T13:09:57Z</time>
      </trkpt>
      <trkpt lat="43.42849" lon="6.1035">
        <ele>296.75109863281</ele>
        <time>2014-06-04T13:10:02Z</time>
      </trkpt>
      <trkpt lat="43.42849" lon="6.1035">
        <ele>296.75109863281</ele>
        <time>2014-06-04T13:10:11Z</time>
      </trkpt>
      <trkpt lat="43.4285" lon="6.10351">
        <ele>296.82147216797</ele>
        <time>2014-06-04T13:10:13Z</time>
      </trkpt>
      <trkpt lat="43.4285" lon="6.10352">
        <ele>296.86779785156</ele>
        <time>2014-06-04T13:10:15Z</time>
      </trkpt>
      <trkpt lat="43.42851" lon="6.10352">
        <ele>296.93475341797</ele>
        <time>2014-06-04T13:10:18Z</time>
      </trkpt>
      <trkpt lat="43.42854" lon="6.10355">
        <ele>297.22659301758</ele>
        <time>2014-06-04T13:10:20Z</time>
      </trkpt>
      <trkpt lat="43.42856" lon="6.10355">
        <ele>297.39996337891</ele>
        <time>2014-06-04T13:10:22Z</time>
      </trkpt>
      <trkpt lat="43.42856" lon="6.10355">
        <ele>297.42913818359</ele>
        <time>2014-06-04T13:10:24Z</time>
      </trkpt>
      <trkpt lat="43.42856" lon="6.10355">
        <ele>297.42572021484</ele>
        <time>2014-06-04T13:10:26Z</time>
      </trkpt>
      <trkpt lat="43.42856" lon="6.10355">
        <ele>297.42572021484</ele>
        <time>2014-06-04T13:10:27Z</time>
      </trkpt>
      <trkpt lat="43.42857" lon="6.10355">
        <ele>297.45831298828</ele>
        <time>2014-06-04T13:10:28Z</time>
      </trkpt>
      <trkpt lat="43.42857" lon="6.10355">
        <ele>297.45831298828</ele>
        <time>2014-06-04T13:10:29Z</time>
      </trkpt>
      <trkpt lat="43.42855" lon="6.10355">
        <ele>297.36563110352</ele>
        <time>2014-06-04T13:10:33Z</time>
      </trkpt>
      <trkpt lat="43.42854" lon="6.10355">
        <ele>297.24374389648</ele>
        <time>2014-06-04T13:10:36Z</time>
      </trkpt>
      <trkpt lat="43.42852" lon="6.10354">
        <ele>297.09268188477</ele>
        <time>2014-06-04T13:10:41Z</time>
      </trkpt>
      <trkpt lat="43.42854" lon="6.10353">
        <ele>297.20599365234</ele>
        <time>2014-06-04T13:10:44Z</time>
      </trkpt>
      <trkpt lat="43.42855" lon="6.10352">
        <ele>297.22659301758</ele>
        <time>2014-06-04T13:10:47Z</time>
      </trkpt>
      <trkpt lat="43.42857" lon="6.10353">
        <ele>297.38107299805</ele>
        <time>2014-06-04T13:10:49Z</time>
      </trkpt>
      <trkpt lat="43.42857" lon="6.10354">
        <ele>297.40853881836</ele>
        <time>2014-06-04T13:10:51Z</time>
      </trkpt>
      <trkpt lat="43.42856" lon="6.10353">
        <ele>297.34161376953</ele>
        <time>2014-06-04T13:10:56Z</time>
      </trkpt>
      <trkpt lat="43.42857" lon="6.10353">
        <ele>297.37078857422</ele>
        <time>2014-06-04T13:11:01Z</time>
      </trkpt>
      <trkpt lat="43.42855" lon="6.10352">
        <ele>297.19912719727</ele>
        <time>2014-06-04T13:11:05Z</time>
      </trkpt>
      <trkpt lat="43.42854" lon="6.10352">
        <ele>297.17337036133</ele>
        <time>2014-06-04T13:11:06Z</time>
      </trkpt>
      <trkpt lat="43.4285" lon="6.10351">
        <ele>296.87640380859</ele>
        <time>2014-06-04T13:11:12Z</time>
      </trkpt>
      <trkpt lat="43.4285" lon="6.10352">
        <ele>296.83862304688</ele>
        <time>2014-06-04T13:11:17Z</time>
      </trkpt>
      <trkpt lat="43.42849" lon="6.10352">
        <ele>296.78198242188</ele>
        <time>2014-06-04T13:11:22Z</time>
      </trkpt>
      <trkpt lat="43.42849" lon="6.10352">
        <ele>296.78198242188</ele>
        <time>2014-06-04T13:11:40Z</time>
      </trkpt>
      <trkpt lat="43.42849" lon="6.10352">
        <ele>296.79913330078</ele>
        <time>2014-06-04T13:11:47Z</time>
      </trkpt>
      <trkpt lat="43.42849" lon="6.10352">
        <ele>296.79913330078</ele>
        <time>2014-06-04T13:12:07Z</time>
      </trkpt>
      <trkpt lat="43.42849" lon="6.10352">
        <ele>296.75451660156</ele>
        <time>2014-06-04T13:12:22Z</time>
      </trkpt>
      <trkpt lat="43.42848" lon="6.10352">
        <ele>296.74935913086</ele>
        <time>2014-06-04T13:12:30Z</time>
      </trkpt>
      <trkpt lat="43.42849" lon="6.10352">
        <ele>296.76824951172</ele>
        <time>2014-06-04T13:12:35Z</time>
      </trkpt>
      <trkpt lat="43.42849" lon="6.10352">
        <ele>296.77166748047</ele>
        <time>2014-06-04T13:12:42Z</time>
      </trkpt>
      <trkpt lat="43.42849" lon="6.10352">
        <ele>296.77166748047</ele>
        <time>2014-06-04T13:12:49Z</time>
      </trkpt>
      <trkpt lat="43.42849" lon="6.10352">
        <ele>296.80087280273</ele>
        <time>2014-06-04T13:12:51Z</time>
      </trkpt>
      <trkpt lat="43.42849" lon="6.10352">
        <ele>296.80087280273</ele>
        <time>2014-06-04T13:13:01Z</time>
      </trkpt>
      <trkpt lat="43.4285" lon="6.10351">
        <ele>296.81286621094</ele>
        <time>2014-06-04T13:13:16Z</time>
      </trkpt>
      <trkpt lat="43.4285" lon="6.1035">
        <ele>296.81631469727</ele>
        <time>2014-06-04T13:13:25Z</time>
      </trkpt>
      <trkpt lat="43.4285" lon="6.10347">
        <ele>296.69100952148</ele>
        <time>2014-06-04T13:13:30Z</time>
      </trkpt>
      <trkpt lat="43.4285" lon="6.10345">
        <ele>296.60687255859</ele>
        <time>2014-06-04T13:13:37Z</time>
      </trkpt>
      <trkpt lat="43.42849" lon="6.10346">
        <ele>296.57083129883</ele>
        <time>2014-06-04T13:13:38Z</time>
      </trkpt>
      <trkpt lat="43.42849" lon="6.10352">
        <ele>296.80944824219</ele>
        <time>2014-06-04T13:13:41Z</time>
      </trkpt>
      <trkpt lat="43.42849" lon="6.10356">
        <ele>296.92272949219</ele>
        <time>2014-06-04T13:13:46Z</time>
      </trkpt>
      <trkpt lat="43.42849" lon="6.10356">
        <ele>296.95193481445</ele>
        <time>2014-06-04T13:13:54Z</time>
      </trkpt>
      <trkpt lat="43.42849" lon="6.10356">
        <ele>296.92617797852</ele>
        <time>2014-06-04T13:14:04Z</time>
      </trkpt>
      <trkpt lat="43.42849" lon="6.10356">
        <ele>296.92617797852</ele>
        <time>2014-06-04T13:14:14Z</time>
      </trkpt>
      <trkpt lat="43.42849" lon="6.10356">
        <ele>296.90042114258</ele>
        <time>2014-06-04T13:14:22Z</time>
      </trkpt>
      <trkpt lat="43.42849" lon="6.10356">
        <ele>296.90042114258</ele>
        <time>2014-06-04T13:14:32Z</time>
      </trkpt>
      <trkpt lat="43.42848" lon="6.10354">
        <ele>296.79229736328</ele>
        <time>2014-06-04T13:14:43Z</time>
      </trkpt>
      <trkpt lat="43.42849" lon="6.10353">
        <ele>296.81802368164</ele>
        <time>2014-06-04T13:14:51Z</time>
      </trkpt>
      <trkpt lat="43.42849" lon="6.10354">
        <ele>296.8369140625</ele>
        <time>2014-06-04T13:14:55Z</time>
      </trkpt>
      <trkpt lat="43.42849" lon="6.10354">
        <ele>296.8369140625</ele>
        <time>2014-06-04T13:15:05Z</time>
      </trkpt>
      <trkpt lat="43.42849" lon="6.10353">
        <ele>296.81802368164</ele>
        <time>2014-06-04T13:15:13Z</time>
      </trkpt>
      <trkpt lat="43.42847" lon="6.10352">
        <ele>296.6171875</ele>
        <time>2014-06-04T13:15:19Z</time>
      </trkpt>
      <trkpt lat="43.42846" lon="6.10352">
        <ele>296.59143066406</ele>
        <time>2014-06-04T13:15:26Z</time>
      </trkpt>
      <trkpt lat="43.42845" lon="6.10351">
        <ele>296.48327636719</ele>
        <time>2014-06-04T13:15:34Z</time>
      </trkpt>
      <trkpt lat="43.42845" lon="6.10351">
        <ele>296.4541015625</ele>
        <time>2014-06-04T13:15:41Z</time>
      </trkpt>
      <trkpt lat="43.42844" lon="6.1035">
        <ele>296.38031005859</ele>
        <time>2014-06-04T13:15:52Z</time>
      </trkpt>
      <trkpt lat="43.42844" lon="6.10351">
        <ele>296.39404296875</ele>
        <time>2014-06-04T13:16:05Z</time>
      </trkpt>
      <trkpt lat="43.42844" lon="6.10351">
        <ele>296.39404296875</ele>
        <time>2014-06-04T13:16:12Z</time>
      </trkpt>
      <trkpt lat="43.42842" lon="6.10353">
        <ele>296.2961730957</ele>
        <time>2014-06-04T13:16:21Z</time>
      </trkpt>
      <trkpt lat="43.42837" lon="6.10353">
        <ele>295.97860717773</ele>
        <time>2014-06-04T13:16:23Z</time>
      </trkpt>
      <trkpt lat="43.42835" lon="6.10353">
        <ele>295.83270263672</ele>
        <time>2014-06-04T13:16:24Z</time>
      </trkpt>
      <trkpt lat="43.42833" lon="6.10355">
        <ele>295.77108764648</ele>
        <time>2014-06-04T13:16:26Z</time>
      </trkpt>
      <trkpt lat="43.42831" lon="6.10354">
        <ele>295.66809082031</ele>
        <time>2014-06-04T13:16:29Z</time>
      </trkpt>
      <trkpt lat="43.4283" lon="6.10354">
        <ele>295.60971069336</ele>
        <time>2014-06-04T13:16:30Z</time>
      </trkpt>
      <trkpt lat="43.42828" lon="6.10354">
        <ele>295.56335449219</ele>
        <time>2014-06-04T13:16:37Z</time>
      </trkpt>
      <trkpt lat="43.42828" lon="6.10353">
        <ele>295.51358032227</ele>
        <time>2014-06-04T13:16:41Z</time>
      </trkpt>
      <trkpt lat="43.42828" lon="6.10353">
        <ele>295.52215576172</ele>
        <time>2014-06-04T13:16:47Z</time>
      </trkpt>
      <trkpt lat="43.42828" lon="6.10352">
        <ele>295.4826965332</ele>
        <time>2014-06-04T13:16:48Z</time>
      </trkpt>
      <trkpt lat="43.42827" lon="6.10351">
        <ele>295.41744995117</ele>
        <time>2014-06-04T13:16:51Z</time>
      </trkpt>
      <trkpt lat="43.42827" lon="6.10351">
        <ele>295.4157409668</ele>
        <time>2014-06-04T13:16:54Z</time>
      </trkpt>
      <trkpt lat="43.42827" lon="6.10351">
        <ele>295.4157409668</ele>
        <time>2014-06-04T13:17:02Z</time>
      </trkpt>
      <trkpt lat="43.42828" lon="6.10351">
        <ele>295.43634033203</ele>
        <time>2014-06-04T13:17:06Z</time>
      </trkpt>
      <trkpt lat="43.42828" lon="6.10351">
        <ele>295.43634033203</ele>
        <time>2014-06-04T13:17:22Z</time>
      </trkpt>
      <trkpt lat="43.42827" lon="6.10352">
        <ele>295.46551513672</ele>
        <time>2014-06-04T13:17:23Z</time>
      </trkpt>
      <trkpt lat="43.42827" lon="6.10358">
        <ele>295.66122436523</ele>
        <time>2014-06-04T13:17:27Z</time>
      </trkpt>
      <trkpt lat="43.42827" lon="6.10361">
        <ele>295.74703979492</ele>
        <time>2014-06-04T13:17:32Z</time>
      </trkpt>
      <trkpt lat="43.42827" lon="6.10361">
        <ele>295.74703979492</ele>
        <time>2014-06-04T13:17:43Z</time>
      </trkpt>
      <trkpt lat="43.42826" lon="6.1036">
        <ele>295.70413208008</ele>
        <time>2014-06-04T13:17:49Z</time>
      </trkpt>
      <trkpt lat="43.42826" lon="6.1036">
        <ele>295.70413208008</ele>
        <time>2014-06-04T13:17:58Z</time>
      </trkpt>
      <trkpt lat="43.42827" lon="6.10359">
        <ele>295.67321777344</ele>
        <time>2014-06-04T13:18:05Z</time>
      </trkpt>
      <trkpt lat="43.42827" lon="6.10359">
        <ele>295.67321777344</ele>
        <time>2014-06-04T13:18:13Z</time>
      </trkpt>
      <trkpt lat="43.42826" lon="6.10356">
        <ele>295.58224487305</ele>
        <time>2014-06-04T13:18:15Z</time>
      </trkpt>
      <trkpt lat="43.42825" lon="6.10351">
        <ele>295.31616210938</ele>
        <time>2014-06-04T13:18:17Z</time>
      </trkpt>
      <trkpt lat="43.42817" lon="6.10334">
        <ele>294.44757080078</ele>
        <time>2014-06-04T13:18:23Z</time>
      </trkpt>
      <trkpt lat="43.42806" lon="6.10312">
        <ele>292.5048828125</ele>
        <time>2014-06-04T13:18:30Z</time>
      </trkpt>
      <trkpt lat="43.42795" lon="6.10304">
        <ele>291.103515625</ele>
        <time>2014-06-04T13:18:35Z</time>
      </trkpt>
      <trkpt lat="43.42784" lon="6.10308">
        <ele>290.65167236328</ele>
        <time>2014-06-04T13:18:40Z</time>
      </trkpt>
      <trkpt lat="43.42777" lon="6.10319">
        <ele>290.95211791992</ele>
        <time>2014-06-04T13:18:45Z</time>
      </trkpt>
      <trkpt lat="43.42776" lon="6.10322">
        <ele>291.08599853516</ele>
        <time>2014-06-04T13:18:46Z</time>
      </trkpt>
      <trkpt lat="43.42773" lon="6.10327">
        <ele>291.35723876953</ele>
        <time>2014-06-04T13:18:48Z</time>
      </trkpt>
      <trkpt lat="43.42771" lon="6.10335">
        <ele>291.79275512695</ele>
        <time>2014-06-04T13:18:52Z</time>
      </trkpt>
      <trkpt lat="43.42772" lon="6.10343">
        <ele>292.12579345703</ele>
        <time>2014-06-04T13:18:55Z</time>
      </trkpt>
      <trkpt lat="43.42772" lon="6.10352">
        <ele>292.45538330078</ele>
        <time>2014-06-04T13:18:58Z</time>
      </trkpt>
      <trkpt lat="43.42771" lon="6.10368">
        <ele>292.76135253906</ele>
        <time>2014-06-04T13:19:04Z</time>
      </trkpt>
      <trkpt lat="43.42773" lon="6.10378">
        <ele>292.81628417969</ele>
        <time>2014-06-04T13:19:08Z</time>
      </trkpt>
      <trkpt lat="43.42776" lon="6.10386">
        <ele>292.93988037109</ele>
        <time>2014-06-04T13:19:11Z</time>
      </trkpt>
      <trkpt lat="43.42785" lon="6.10401">
        <ele>293.53894042969</ele>
        <time>2014-06-04T13:19:17Z</time>
      </trkpt>
      <trkpt lat="43.42791" lon="6.10407">
        <ele>293.92346191406</ele>
        <time>2014-06-04T13:19:20Z</time>
      </trkpt>
      <trkpt lat="43.42793" lon="6.10423">
        <ele>294.11572265625</ele>
        <time>2014-06-04T13:19:26Z</time>
      </trkpt>
      <trkpt lat="43.42795" lon="6.1043">
        <ele>294.2255859375</ele>
        <time>2014-06-04T13:19:29Z</time>
      </trkpt>
      <trkpt lat="43.42796" lon="6.10444">
        <ele>294.28051757812</ele>
        <time>2014-06-04T13:19:34Z</time>
      </trkpt>
      <trkpt lat="43.42797" lon="6.10452">
        <ele>294.36291503906</ele>
        <time>2014-06-04T13:19:37Z</time>
      </trkpt>
      <trkpt lat="43.42797" lon="6.10455">
        <ele>294.39038085938</ele>
        <time>2014-06-04T13:19:38Z</time>
      </trkpt>
      <trkpt lat="43.428" lon="6.10466">
        <ele>294.58264160156</ele>
        <time>2014-06-04T13:19:42Z</time>
      </trkpt>
      <trkpt lat="43.42802" lon="6.10483">
        <ele>294.32757568359</ele>
        <time>2014-06-04T13:19:47Z</time>
      </trkpt>
      <trkpt lat="43.42803" lon="6.10491">
        <ele>294.1130065918</ele>
        <time>2014-06-04T13:19:49Z</time>
      </trkpt>
      <trkpt lat="43.42805" lon="6.10507">
        <ele>293.99462890625</ele>
        <time>2014-06-04T13:19:53Z</time>
      </trkpt>
      <trkpt lat="43.42809" lon="6.10521">
        <ele>294.10717773438</ele>
        <time>2014-06-04T13:19:56Z</time>
      </trkpt>
      <trkpt lat="43.42813" lon="6.10537">
        <ele>293.96557617188</ele>
        <time>2014-06-04T13:19:59Z</time>
      </trkpt>
      <trkpt lat="43.4282" lon="6.10555">
        <ele>293.53295898438</ele>
        <time>2014-06-04T13:20:02Z</time>
      </trkpt>
      <trkpt lat="43.42824" lon="6.10567">
        <ele>293.65649414062</ele>
        <time>2014-06-04T13:20:04Z</time>
      </trkpt>
      <trkpt lat="43.42826" lon="6.10573">
        <ele>293.72515869141</ele>
        <time>2014-06-04T13:20:05Z</time>
      </trkpt>
      <trkpt lat="43.42828" lon="6.1058">
        <ele>293.79382324219</ele>
        <time>2014-06-04T13:20:06Z</time>
      </trkpt>
      <trkpt lat="43.4283" lon="6.10587">
        <ele>293.73303222656</ele>
        <time>2014-06-04T13:20:07Z</time>
      </trkpt>
      <trkpt lat="43.42831" lon="6.10595">
        <ele>293.51159667969</ele>
        <time>2014-06-04T13:20:08Z</time>
      </trkpt>
      <trkpt lat="43.42835" lon="6.10619">
        <ele>293.06848144531</ele>
        <time>2014-06-04T13:20:11Z</time>
      </trkpt>
      <trkpt lat="43.42837" lon="6.10626">
        <ele>293.13714599609</ele>
        <time>2014-06-04T13:20:12Z</time>
      </trkpt>
      <trkpt lat="43.42839" lon="6.10633">
        <ele>293.20581054688</ele>
        <time>2014-06-04T13:20:13Z</time>
      </trkpt>
      <trkpt lat="43.4284" lon="6.1064">
        <ele>293.24700927734</ele>
        <time>2014-06-04T13:20:14Z</time>
      </trkpt>
      <trkpt lat="43.42841" lon="6.10646">
        <ele>293.2607421875</ele>
        <time>2014-06-04T13:20:15Z</time>
      </trkpt>
      <trkpt lat="43.42839" lon="6.10651">
        <ele>293.21954345703</ele>
        <time>2014-06-04T13:20:16Z</time>
      </trkpt>
      <trkpt lat="43.42839" lon="6.10656">
        <ele>293.19207763672</ele>
        <time>2014-06-04T13:20:17Z</time>
      </trkpt>
      <trkpt lat="43.42838" lon="6.10661">
        <ele>293.17834472656</ele>
        <time>2014-06-04T13:20:18Z</time>
      </trkpt>
      <trkpt lat="43.42839" lon="6.10664">
        <ele>293.20581054688</ele>
        <time>2014-06-04T13:20:19Z</time>
      </trkpt>
      <trkpt lat="43.42839" lon="6.10667">
        <ele>293.16326904297</ele>
        <time>2014-06-04T13:20:20Z</time>
      </trkpt>
      <trkpt lat="43.42838" lon="6.10669">
        <ele>293.07916259766</ele>
        <time>2014-06-04T13:20:21Z</time>
      </trkpt>
      <trkpt lat="43.42839" lon="6.10668">
        <ele>293.13064575195</ele>
        <time>2014-06-04T13:20:23Z</time>
      </trkpt>
      <trkpt lat="43.42839" lon="6.10668">
        <ele>293.13064575195</ele>
        <time>2014-06-04T13:20:43Z</time>
      </trkpt>
      <trkpt lat="43.42839" lon="6.10668">
        <ele>293.13064575195</ele>
        <time>2014-06-04T13:20:53Z</time>
      </trkpt>
      <trkpt lat="43.42838" lon="6.10671">
        <ele>293.0207824707</ele>
        <time>2014-06-04T13:20:55Z</time>
      </trkpt>
      <trkpt lat="43.42836" lon="6.10678">
        <ele>292.71350097656</ele>
        <time>2014-06-04T13:20:58Z</time>
      </trkpt>
      <trkpt lat="43.42837" lon="6.10685">
        <ele>292.44570922852</ele>
        <time>2014-06-04T13:21:00Z</time>
      </trkpt>
      <trkpt lat="43.42836" lon="6.10714">
        <ele>292.09594726562</ele>
        <time>2014-06-04T13:21:07Z</time>
      </trkpt>
      <trkpt lat="43.42835" lon="6.10722">
        <ele>292.06848144531</ele>
        <time>2014-06-04T13:21:09Z</time>
      </trkpt>
      <trkpt lat="43.42837" lon="6.10771">
        <ele>290.49554443359</ele>
        <time>2014-06-04T13:21:20Z</time>
      </trkpt>
      <trkpt lat="43.42836" lon="6.10789">
        <ele>289.75653076172</ele>
        <time>2014-06-04T13:21:24Z</time>
      </trkpt>
      <trkpt lat="43.42835" lon="6.10794">
        <ele>289.53851318359</ele>
        <time>2014-06-04T13:21:25Z</time>
      </trkpt>
      <trkpt lat="43.42831" lon="6.10823">
        <ele>288.28900146484</ele>
        <time>2014-06-04T13:21:31Z</time>
      </trkpt>
      <trkpt lat="43.42827" lon="6.10848">
        <ele>287.22814941406</ele>
        <time>2014-06-04T13:21:36Z</time>
      </trkpt>
      <trkpt lat="43.42824" lon="6.10862">
        <ele>286.62561035156</ele>
        <time>2014-06-04T13:21:39Z</time>
      </trkpt>
      <trkpt lat="43.42818" lon="6.10875">
        <ele>285.92864990234</ele>
        <time>2014-06-04T13:21:42Z</time>
      </trkpt>
      <trkpt lat="43.42812" lon="6.10893">
        <ele>285.08236694336</ele>
        <time>2014-06-04T13:21:45Z</time>
      </trkpt>
      <trkpt lat="43.42812" lon="6.10908">
        <ele>284.53649902344</ele>
        <time>2014-06-04T13:21:47Z</time>
      </trkpt>
      <trkpt lat="43.42811" lon="6.10916">
        <ele>284.24124145508</ele>
        <time>2014-06-04T13:21:48Z</time>
      </trkpt>
      <trkpt lat="43.42811" lon="6.10924">
        <ele>283.71011352539</ele>
        <time>2014-06-04T13:21:49Z</time>
      </trkpt>
      <trkpt lat="43.42811" lon="6.10941">
        <ele>282.63372802734</ele>
        <time>2014-06-04T13:21:51Z</time>
      </trkpt>
      <trkpt lat="43.42811" lon="6.10949">
        <ele>282.40661621094</ele>
        <time>2014-06-04T13:21:52Z</time>
      </trkpt>
      <trkpt lat="43.42812" lon="6.10957">
        <ele>282.43408203125</ele>
        <time>2014-06-04T13:21:53Z</time>
      </trkpt>
      <trkpt lat="43.42812" lon="6.10965">
        <ele>282.48901367188</ele>
        <time>2014-06-04T13:21:54Z</time>
      </trkpt>
      <trkpt lat="43.42815" lon="6.10972">
        <ele>282.65380859375</ele>
        <time>2014-06-04T13:21:55Z</time>
      </trkpt>
      <trkpt lat="43.42818" lon="6.10977">
        <ele>282.55142211914</ele>
        <time>2014-06-04T13:21:56Z</time>
      </trkpt>
      <trkpt lat="43.42829" lon="6.10989">
        <ele>282.50335693359</ele>
        <time>2014-06-04T13:21:59Z</time>
      </trkpt>
      <trkpt lat="43.42832" lon="6.10992">
        <ele>282.49304199219</ele>
        <time>2014-06-04T13:22:00Z</time>
      </trkpt>
      <trkpt lat="43.42844" lon="6.1101">
        <ele>283.17633056641</ele>
        <time>2014-06-04T13:22:06Z</time>
      </trkpt>
      <trkpt lat="43.42847" lon="6.11017">
        <ele>283.43997192383</ele>
        <time>2014-06-04T13:22:08Z</time>
      </trkpt>
      <trkpt lat="43.42852" lon="6.11026">
        <ele>284.08050537109</ele>
        <time>2014-06-04T13:22:11Z</time>
      </trkpt>
      <trkpt lat="43.42855" lon="6.11038">
        <ele>284.32049560547</ele>
        <time>2014-06-04T13:22:15Z</time>
      </trkpt>
      <trkpt lat="43.42857" lon="6.11044">
        <ele>284.53094482422</ele>
        <time>2014-06-04T13:22:17Z</time>
      </trkpt>
      <trkpt lat="43.42858" lon="6.11047">
        <ele>284.65579223633</ele>
        <time>2014-06-04T13:22:18Z</time>
      </trkpt>
      <trkpt lat="43.42861" lon="6.11056">
        <ele>284.97451782227</ele>
        <time>2014-06-04T13:22:21Z</time>
      </trkpt>
      <trkpt lat="43.42862" lon="6.11062">
        <ele>284.80456542969</ele>
        <time>2014-06-04T13:22:23Z</time>
      </trkpt>
      <trkpt lat="43.42863" lon="6.11065">
        <ele>284.72561645508</ele>
        <time>2014-06-04T13:22:24Z</time>
      </trkpt>
      <trkpt lat="43.42863" lon="6.11066">
        <ele>284.69128417969</ele>
        <time>2014-06-04T13:22:25Z</time>
      </trkpt>
      <trkpt lat="43.42864" lon="6.11068">
        <ele>284.65008544922</ele>
        <time>2014-06-04T13:22:26Z</time>
      </trkpt>
      <trkpt lat="43.42865" lon="6.11068">
        <ele>284.67755126953</ele>
        <time>2014-06-04T13:22:27Z</time>
      </trkpt>
      <trkpt lat="43.42865" lon="6.11069">
        <ele>284.65179443359</ele>
        <time>2014-06-04T13:22:29Z</time>
      </trkpt>
      <trkpt lat="43.42865" lon="6.11069">
        <ele>284.65179443359</ele>
        <time>2014-06-04T13:22:56Z</time>
      </trkpt>
      <trkpt lat="43.42865" lon="6.11069">
        <ele>284.65179443359</ele>
        <time>2014-06-04T13:23:03Z</time>
      </trkpt>
      <trkpt lat="43.42865" lon="6.11069">
        <ele>284.63977050781</ele>
        <time>2014-06-04T13:23:11Z</time>
      </trkpt>
      <trkpt lat="43.42869" lon="6.11074">
        <ele>284.60372924805</ele>
        <time>2014-06-04T13:23:17Z</time>
      </trkpt>
      <trkpt lat="43.42876" lon="6.11086">
        <ele>284.47320556641</ele>
        <time>2014-06-04T13:23:22Z</time>
      </trkpt>
      <trkpt lat="43.42884" lon="6.11098">
        <ele>284.38204956055</ele>
        <time>2014-06-04T13:23:26Z</time>
      </trkpt>
      <trkpt lat="43.42886" lon="6.11102">
        <ele>284.29028320312</ele>
        <time>2014-06-04T13:23:27Z</time>
      </trkpt>
      <trkpt lat="43.42897" lon="6.11122">
        <ele>283.91879272461</ele>
        <time>2014-06-04T13:23:32Z</time>
      </trkpt>
      <trkpt lat="43.429" lon="6.11126">
        <ele>283.84326171875</ele>
        <time>2014-06-04T13:23:33Z</time>
      </trkpt>
      <trkpt lat="43.42902" lon="6.11131">
        <ele>283.76947021484</ele>
        <time>2014-06-04T13:23:34Z</time>
      </trkpt>
      <trkpt lat="43.42905" lon="6.11137">
        <ele>283.67333984375</ele>
        <time>2014-06-04T13:23:35Z</time>
      </trkpt>
      <trkpt lat="43.42908" lon="6.11142">
        <ele>283.5634765625</ele>
        <time>2014-06-04T13:23:36Z</time>
      </trkpt>
      <trkpt lat="43.42916" lon="6.11161">
        <ele>283.18237304688</ele>
        <time>2014-06-04T13:23:39Z</time>
      </trkpt>
      <trkpt lat="43.42918" lon="6.11167">
        <ele>283.05191040039</ele>
        <time>2014-06-04T13:23:40Z</time>
      </trkpt>
      <trkpt lat="43.4292" lon="6.11172">
        <ele>282.904296875</ele>
        <time>2014-06-04T13:23:41Z</time>
      </trkpt>
      <trkpt lat="43.4292" lon="6.11177">
        <ele>282.75665283203</ele>
        <time>2014-06-04T13:23:42Z</time>
      </trkpt>
      <trkpt lat="43.42921" lon="6.1118">
        <ele>282.66394042969</ele>
        <time>2014-06-04T13:23:43Z</time>
      </trkpt>
      <trkpt lat="43.42922" lon="6.11184">
        <ele>282.59185791016</ele>
        <time>2014-06-04T13:23:45Z</time>
      </trkpt>
      <trkpt lat="43.42923" lon="6.11184">
        <ele>282.60217285156</ele>
        <time>2014-06-04T13:23:48Z</time>
      </trkpt>
      <trkpt lat="43.42923" lon="6.11184">
        <ele>282.60217285156</ele>
        <time>2014-06-04T13:23:53Z</time>
      </trkpt>
      <trkpt lat="43.42923" lon="6.11185">
        <ele>282.55407714844</ele>
        <time>2014-06-04T13:23:59Z</time>
      </trkpt>
      <trkpt lat="43.42928" lon="6.11202">
        <ele>282.13525390625</ele>
        <time>2014-06-04T13:24:05Z</time>
      </trkpt>
      <trkpt lat="43.42927" lon="6.11215">
        <ele>281.64428710938</ele>
        <time>2014-06-04T13:24:08Z</time>
      </trkpt>
      <trkpt lat="43.42926" lon="6.11219">
        <ele>281.46405029297</ele>
        <time>2014-06-04T13:24:09Z</time>
      </trkpt>
      <trkpt lat="43.42925" lon="6.11227">
        <ele>280.8600769043</ele>
        <time>2014-06-04T13:24:11Z</time>
      </trkpt>
      <trkpt lat="43.42924" lon="6.11236">
        <ele>280.07171630859</ele>
        <time>2014-06-04T13:24:13Z</time>
      </trkpt>
      <trkpt lat="43.42924" lon="6.11239">
        <ele>279.75033569336</ele>
        <time>2014-06-04T13:24:14Z</time>
      </trkpt>
      <trkpt lat="43.42923" lon="6.11242">
        <ele>279.42098999023</ele>
        <time>2014-06-04T13:24:15Z</time>
      </trkpt>
      <trkpt lat="43.42922" lon="6.11246">
        <ele>278.97198486328</ele>
        <time>2014-06-04T13:24:16Z</time>
      </trkpt>
      <trkpt lat="43.4292" lon="6.11254">
        <ele>277.90090942383</ele>
        <time>2014-06-04T13:24:18Z</time>
      </trkpt>
      <trkpt lat="43.42917" lon="6.11262">
        <ele>276.71826171875</ele>
        <time>2014-06-04T13:24:20Z</time>
      </trkpt>
      <trkpt lat="43.42916" lon="6.11266">
        <ele>276.29046630859</ele>
        <time>2014-06-04T13:24:21Z</time>
      </trkpt>
      <trkpt lat="43.42914" lon="6.11281">
        <ele>274.70849609375</ele>
        <time>2014-06-04T13:24:25Z</time>
      </trkpt>
      <trkpt lat="43.42913" lon="6.11287">
        <ele>273.67337036133</ele>
        <time>2014-06-04T13:24:27Z</time>
      </trkpt>
      <trkpt lat="43.42912" lon="6.11292">
        <ele>272.84423828125</ele>
        <time>2014-06-04T13:24:29Z</time>
      </trkpt>
      <trkpt lat="43.42912" lon="6.11295">
        <ele>272.20394897461</ele>
        <time>2014-06-04T13:24:30Z</time>
      </trkpt>
      <trkpt lat="43.42912" lon="6.11306">
        <ele>270.27420043945</ele>
        <time>2014-06-04T13:24:33Z</time>
      </trkpt>
      <trkpt lat="43.42911" lon="6.1131">
        <ele>269.78964233398</ele>
        <time>2014-06-04T13:24:34Z</time>
      </trkpt>
      <trkpt lat="43.42911" lon="6.11313">
        <ele>269.21304321289</ele>
        <time>2014-06-04T13:24:35Z</time>
      </trkpt>
      <trkpt lat="43.4291" lon="6.1132">
        <ele>268.27053833008</ele>
        <time>2014-06-04T13:24:37Z</time>
      </trkpt>
      <trkpt lat="43.42909" lon="6.11323">
        <ele>267.80395507812</ele>
        <time>2014-06-04T13:24:38Z</time>
      </trkpt>
      <trkpt lat="43.42908" lon="6.11326">
        <ele>267.39743041992</ele>
        <time>2014-06-04T13:24:39Z</time>
      </trkpt>
      <trkpt lat="43.42908" lon="6.11329">
        <ele>266.95462036133</ele>
        <time>2014-06-04T13:24:40Z</time>
      </trkpt>
      <trkpt lat="43.42907" lon="6.11331">
        <ele>266.62796020508</ele>
        <time>2014-06-04T13:24:41Z</time>
      </trkpt>
      <trkpt lat="43.42908" lon="6.11333">
        <ele>266.34619140625</ele>
        <time>2014-06-04T13:24:42Z</time>
      </trkpt>
      <trkpt lat="43.42908" lon="6.11335">
        <ele>266.06112670898</ele>
        <time>2014-06-04T13:24:44Z</time>
      </trkpt>
      <trkpt lat="43.42908" lon="6.11335">
        <ele>265.96871948242</ele>
        <time>2014-06-04T13:24:45Z</time>
      </trkpt>
      <trkpt lat="43.42908" lon="6.11335">
        <ele>265.96871948242</ele>
        <time>2014-06-04T13:24:46Z</time>
      </trkpt>
      <trkpt lat="43.42908" lon="6.11335">
        <ele>265.95950317383</ele>
        <time>2014-06-04T13:24:47Z</time>
      </trkpt>
      <trkpt lat="43.42908" lon="6.11335">
        <ele>265.95950317383</ele>
        <time>2014-06-04T13:24:48Z</time>
      </trkpt>
      <trkpt lat="43.42908" lon="6.11336">
        <ele>265.88555908203</ele>
        <time>2014-06-04T13:24:52Z</time>
      </trkpt>
      <trkpt lat="43.42908" lon="6.11336">
        <ele>265.72848510742</ele>
        <time>2014-06-04T13:24:58Z</time>
      </trkpt>
      <trkpt lat="43.42908" lon="6.11336">
        <ele>265.72848510742</ele>
        <time>2014-06-04T13:25:21Z</time>
      </trkpt>
      <trkpt lat="43.42908" lon="6.11336">
        <ele>265.72848510742</ele>
        <time>2014-06-04T13:25:30Z</time>
      </trkpt>
      <trkpt lat="43.42908" lon="6.11337">
        <ele>265.59106445312</ele>
        <time>2014-06-04T13:25:41Z</time>
      </trkpt>
      <trkpt lat="43.42908" lon="6.11338">
        <ele>265.40505981445</ele>
        <time>2014-06-04T13:25:48Z</time>
      </trkpt>
      <trkpt lat="43.42908" lon="6.11338">
        <ele>265.40505981445</ele>
        <time>2014-06-04T13:26:04Z</time>
      </trkpt>
      <trkpt lat="43.42908" lon="6.11338">
        <ele>265.40505981445</ele>
        <time>2014-06-04T13:26:23Z</time>
      </trkpt>
      <trkpt lat="43.42909" lon="6.11338">
        <ele>265.34970092773</ele>
        <time>2014-06-04T13:26:32Z</time>
      </trkpt>
      <trkpt lat="43.42909" lon="6.11338">
        <ele>265.34970092773</ele>
        <time>2014-06-04T13:26:43Z</time>
      </trkpt>
      <trkpt lat="43.4291" lon="6.11339">
        <ele>265.08654785156</ele>
        <time>2014-06-04T13:27:09Z</time>
      </trkpt>
      <trkpt lat="43.4291" lon="6.11339">
        <ele>265.08654785156</ele>
        <time>2014-06-04T13:27:23Z</time>
      </trkpt>
      <trkpt lat="43.4291" lon="6.1134">
        <ele>264.94509887695</ele>
        <time>2014-06-04T13:27:31Z</time>
      </trkpt>
      <trkpt lat="43.4291" lon="6.1134">
        <ele>264.94509887695</ele>
        <time>2014-06-04T13:28:05Z</time>
      </trkpt>
      <trkpt lat="43.4291" lon="6.1134">
        <ele>264.94509887695</ele>
        <time>2014-06-04T13:28:30Z</time>
      </trkpt>
      <trkpt lat="43.4291" lon="6.11339">
        <ele>265.0959777832</ele>
        <time>2014-06-04T13:28:34Z</time>
      </trkpt>
      <trkpt lat="43.4291" lon="6.11339">
        <ele>265.0959777832</ele>
        <time>2014-06-04T13:28:37Z</time>
      </trkpt>
      <trkpt lat="43.42908" lon="6.11337">
        <ele>265.6282043457</ele>
        <time>2014-06-04T13:28:48Z</time>
      </trkpt>
      <trkpt lat="43.42908" lon="6.11337">
        <ele>265.6282043457</ele>
        <time>2014-06-04T13:28:57Z</time>
      </trkpt>
      <trkpt lat="43.42908" lon="6.11335">
        <ele>265.98114013672</ele>
        <time>2014-06-04T13:29:01Z</time>
      </trkpt>
      <trkpt lat="43.42908" lon="6.11333">
        <ele>266.31860351562</ele>
        <time>2014-06-04T13:29:02Z</time>
      </trkpt>
      <trkpt lat="43.4291" lon="6.11329">
        <ele>266.87591552734</ele>
        <time>2014-06-04T13:29:04Z</time>
      </trkpt>
      <trkpt lat="43.4291" lon="6.11327">
        <ele>267.23135375977</ele>
        <time>2014-06-04T13:29:05Z</time>
      </trkpt>
      <trkpt lat="43.42912" lon="6.11319">
        <ele>268.30661010742</ele>
        <time>2014-06-04T13:29:08Z</time>
      </trkpt>
      <trkpt lat="43.42913" lon="6.11314">
        <ele>268.97454833984</ele>
        <time>2014-06-04T13:29:10Z</time>
      </trkpt>
      <trkpt lat="43.42913" lon="6.1131">
        <ele>269.61557006836</ele>
        <time>2014-06-04T13:29:12Z</time>
      </trkpt>
      <trkpt lat="43.42913" lon="6.11308">
        <ele>269.94061279297</ele>
        <time>2014-06-04T13:29:13Z</time>
      </trkpt>
      <trkpt lat="43.42915" lon="6.11303">
        <ele>270.55084228516</ele>
        <time>2014-06-04T13:29:15Z</time>
      </trkpt>
      <trkpt lat="43.42915" lon="6.11297">
        <ele>271.61169433594</ele>
        <time>2014-06-04T13:29:18Z</time>
      </trkpt>
      <trkpt lat="43.42918" lon="6.11282">
        <ele>274.41934204102</ele>
        <time>2014-06-04T13:29:25Z</time>
      </trkpt>
      <trkpt lat="43.42921" lon="6.11273">
        <ele>276.30801391602</ele>
        <time>2014-06-04T13:29:30Z</time>
      </trkpt>
      <trkpt lat="43.42921" lon="6.11267">
        <ele>276.74298095703</ele>
        <time>2014-06-04T13:29:33Z</time>
      </trkpt>
      <trkpt lat="43.42924" lon="6.11254">
        <ele>278.43515014648</ele>
        <time>2014-06-04T13:29:40Z</time>
      </trkpt>
      <trkpt lat="43.42926" lon="6.11248">
        <ele>279.14166259766</ele>
        <time>2014-06-04T13:29:43Z</time>
      </trkpt>
      <trkpt lat="43.42926" lon="6.11239">
        <ele>279.95004272461</ele>
        <time>2014-06-04T13:29:47Z</time>
      </trkpt>
      <trkpt lat="43.42927" lon="6.11235">
        <ele>280.28073120117</ele>
        <time>2014-06-04T13:29:49Z</time>
      </trkpt>
      <trkpt lat="43.42928" lon="6.11221">
        <ele>281.45031738281</ele>
        <time>2014-06-04T13:29:56Z</time>
      </trkpt>
      <trkpt lat="43.42928" lon="6.11212">
        <ele>281.79193115234</ele>
        <time>2014-06-04T13:30:01Z</time>
      </trkpt>
      <trkpt lat="43.42926" lon="6.1119">
        <ele>282.50430297852</ele>
        <time>2014-06-04T13:30:15Z</time>
      </trkpt>
      <trkpt lat="43.42926" lon="6.11185">
        <ele>282.6794128418</ele>
        <time>2014-06-04T13:30:18Z</time>
      </trkpt>
      <trkpt lat="43.42925" lon="6.11183">
        <ele>282.70513916016</ele>
        <time>2014-06-04T13:30:19Z</time>
      </trkpt>
      <trkpt lat="43.42924" lon="6.11181">
        <ele>282.76351928711</ele>
        <time>2014-06-04T13:30:21Z</time>
      </trkpt>
      <trkpt lat="43.42922" lon="6.11173">
        <ele>282.96606445312</ele>
        <time>2014-06-04T13:30:27Z</time>
      </trkpt>
      <trkpt lat="43.42922" lon="6.11172">
        <ele>282.97637939453</ele>
        <time>2014-06-04T13:30:31Z</time>
      </trkpt>
      <trkpt lat="43.42922" lon="6.11172">
        <ele>282.97637939453</ele>
        <time>2014-06-04T13:30:48Z</time>
      </trkpt>
      <trkpt lat="43.42922" lon="6.11172">
        <ele>282.97637939453</ele>
        <time>2014-06-04T13:31:00Z</time>
      </trkpt>
      <trkpt lat="43.42921" lon="6.11168">
        <ele>283.12915039062</ele>
        <time>2014-06-04T13:31:05Z</time>
      </trkpt>
      <trkpt lat="43.4292" lon="6.11159">
        <ele>283.37634277344</ele>
        <time>2014-06-04T13:31:09Z</time>
      </trkpt>
      <trkpt lat="43.42917" lon="6.11152">
        <ele>283.53942871094</ele>
        <time>2014-06-04T13:31:12Z</time>
      </trkpt>
      <trkpt lat="43.42913" lon="6.11145">
        <ele>283.67333984375</ele>
        <time>2014-06-04T13:31:16Z</time>
      </trkpt>
      <trkpt lat="43.42912" lon="6.11143">
        <ele>283.70593261719</ele>
        <time>2014-06-04T13:31:17Z</time>
      </trkpt>
      <trkpt lat="43.4291" lon="6.11139">
        <ele>283.77288818359</ele>
        <time>2014-06-04T13:31:19Z</time>
      </trkpt>
      <trkpt lat="43.42905" lon="6.11129">
        <ele>283.93597412109</ele>
        <time>2014-06-04T13:31:24Z</time>
      </trkpt>
      <trkpt lat="43.42898" lon="6.11119">
        <ele>284.06643676758</ele>
        <time>2014-06-04T13:31:30Z</time>
      </trkpt>
      <trkpt lat="43.42891" lon="6.11108">
        <ele>284.19345092773</ele>
        <time>2014-06-04T13:31:36Z</time>
      </trkpt>
      <trkpt lat="43.42888" lon="6.11103">
        <ele>284.26779174805</ele>
        <time>2014-06-04T13:31:39Z</time>
      </trkpt>
      <trkpt lat="43.4288" lon="6.11088">
        <ele>284.56436157227</ele>
        <time>2014-06-04T13:31:48Z</time>
      </trkpt>
      <trkpt lat="43.42876" lon="6.11081">
        <ele>284.59170532227</ele>
        <time>2014-06-04T13:31:52Z</time>
      </trkpt>
      <trkpt lat="43.42871" lon="6.11077">
        <ele>284.57971191406</ele>
        <time>2014-06-04T13:31:56Z</time>
      </trkpt>
      <trkpt lat="43.42865" lon="6.11077">
        <ele>284.35137939453</ele>
        <time>2014-06-04T13:32:02Z</time>
      </trkpt>
      <trkpt lat="43.4286" lon="6.1108">
        <ele>284.00802612305</ele>
        <time>2014-06-04T13:32:06Z</time>
      </trkpt>
      <trkpt lat="43.42859" lon="6.1108">
        <ele>283.88806152344</ele>
        <time>2014-06-04T13:32:07Z</time>
      </trkpt>
      <trkpt lat="43.42857" lon="6.11083">
        <ele>283.67797851562</ele>
        <time>2014-06-04T13:32:09Z</time>
      </trkpt>
      <trkpt lat="43.42852" lon="6.11092">
        <ele>283.56094360352</ele>
        <time>2014-06-04T13:32:15Z</time>
      </trkpt>
      <trkpt lat="43.42849" lon="6.11096">
        <ele>283.50018310547</ele>
        <time>2014-06-04T13:32:18Z</time>
      </trkpt>
      <trkpt lat="43.42844" lon="6.11101">
        <ele>283.54577636719</ele>
        <time>2014-06-04T13:32:22Z</time>
      </trkpt>
      <trkpt lat="43.42839" lon="6.11102">
        <ele>283.48159790039</ele>
        <time>2014-06-04T13:32:25Z</time>
      </trkpt>
      <trkpt lat="43.42834" lon="6.11101">
        <ele>283.27569580078</ele>
        <time>2014-06-04T13:32:28Z</time>
      </trkpt>
      <trkpt lat="43.42831" lon="6.111">
        <ele>283.11590576172</ele>
        <time>2014-06-04T13:32:31Z</time>
      </trkpt>
      <trkpt lat="43.4283" lon="6.111">
        <ele>283.08657836914</ele>
        <time>2014-06-04T13:32:33Z</time>
      </trkpt>
      <trkpt lat="43.4283" lon="6.111">
        <ele>283.08657836914</ele>
        <time>2014-06-04T13:32:51Z</time>
      </trkpt>
      <trkpt lat="43.42829" lon="6.111">
        <ele>283.07159423828</ele>
        <time>2014-06-04T13:35:55Z</time>
      </trkpt>
      <trkpt lat="43.42829" lon="6.111">
        <ele>283.07159423828</ele>
        <time>2014-06-04T13:36:20Z</time>
      </trkpt>
      <trkpt lat="43.4283" lon="6.111">
        <ele>283.07485961914</ele>
        <time>2014-06-04T13:37:18Z</time>
      </trkpt>
      <trkpt lat="43.42829" lon="6.11099">
        <ele>283.02053833008</ele>
        <time>2014-06-04T13:37:44Z</time>
      </trkpt>
      <trkpt lat="43.42828" lon="6.111">
        <ele>283.05349731445</ele>
        <time>2014-06-04T13:37:50Z</time>
      </trkpt>
      <trkpt lat="43.4283" lon="6.11101">
        <ele>283.23059082031</ele>
        <time>2014-06-04T13:37:57Z</time>
      </trkpt>
      <trkpt lat="43.42831" lon="6.11102">
        <ele>283.26644897461</ele>
        <time>2014-06-04T13:37:58Z</time>
      </trkpt>
      <trkpt lat="43.42834" lon="6.11101">
        <ele>283.31225585938</ele>
        <time>2014-06-04T13:38:01Z</time>
      </trkpt>
      <trkpt lat="43.42842" lon="6.11102">
        <ele>283.57266235352</ele>
        <time>2014-06-04T13:38:06Z</time>
      </trkpt>
      <trkpt lat="43.42843" lon="6.11104">
        <ele>283.66464233398</ele>
        <time>2014-06-04T13:38:07Z</time>
      </trkpt>
      <trkpt lat="43.42849" lon="6.11113">
        <ele>283.96606445312</ele>
        <time>2014-06-04T13:38:12Z</time>
      </trkpt>
      <trkpt lat="43.42854" lon="6.11122">
        <ele>283.69696044922</ele>
        <time>2014-06-04T13:38:17Z</time>
      </trkpt>
      <trkpt lat="43.42858" lon="6.11128">
        <ele>283.47943115234</ele>
        <time>2014-06-04T13:38:20Z</time>
      </trkpt>
      <trkpt lat="43.42863" lon="6.11133">
        <ele>283.22732543945</ele>
        <time>2014-06-04T13:38:23Z</time>
      </trkpt>
      <trkpt lat="43.42864" lon="6.11134">
        <ele>283.17413330078</ele>
        <time>2014-06-04T13:38:24Z</time>
      </trkpt>
      <trkpt lat="43.4287" lon="6.11143">
        <ele>282.84454345703</ele>
        <time>2014-06-04T13:38:28Z</time>
      </trkpt>
      <trkpt lat="43.42876" lon="6.11156">
        <ele>282.37417602539</ele>
        <time>2014-06-04T13:38:32Z</time>
      </trkpt>
      <trkpt lat="43.42887" lon="6.11176">
        <ele>282</ele>
        <time>2014-06-04T13:38:38Z</time>
      </trkpt>
      <trkpt lat="43.42891" lon="6.11184">
        <ele>282.0227355957</ele>
        <time>2014-06-04T13:38:40Z</time>
      </trkpt>
      <trkpt lat="43.42895" lon="6.11201">
        <ele>281.75714111328</ele>
        <time>2014-06-04T13:38:44Z</time>
      </trkpt>
      <trkpt lat="43.42896" lon="6.11206">
        <ele>281.56829833984</ele>
        <time>2014-06-04T13:38:45Z</time>
      </trkpt>
      <trkpt lat="43.42895" lon="6.11211">
        <ele>281.41552734375</ele>
        <time>2014-06-04T13:38:46Z</time>
      </trkpt>
      <trkpt lat="43.42894" lon="6.11214">
        <ele>281.30395507812</ele>
        <time>2014-06-04T13:38:47Z</time>
      </trkpt>
      <trkpt lat="43.42886" lon="6.11224">
        <ele>280.86190795898</ele>
        <time>2014-06-04T13:38:53Z</time>
      </trkpt>
      <trkpt lat="43.42881" lon="6.1123">
        <ele>280.59429931641</ele>
        <time>2014-06-04T13:38:56Z</time>
      </trkpt>
      <trkpt lat="43.42876" lon="6.11237">
        <ele>280.42761230469</ele>
        <time>2014-06-04T13:38:59Z</time>
      </trkpt>
      <trkpt lat="43.42868" lon="6.11248">
        <ele>280.55484008789</ele>
        <time>2014-06-04T13:39:04Z</time>
      </trkpt>
      <trkpt lat="43.42862" lon="6.11259">
        <ele>280.63580322266</ele>
        <time>2014-06-04T13:39:08Z</time>
      </trkpt>
      <trkpt lat="43.4285" lon="6.11278">
        <ele>280.41848754883</ele>
        <time>2014-06-04T13:39:15Z</time>
      </trkpt>
      <trkpt lat="43.42845" lon="6.11289">
        <ele>280.57446289062</ele>
        <time>2014-06-04T13:39:19Z</time>
      </trkpt>
      <trkpt lat="43.42838" lon="6.11309">
        <ele>280.67376708984</ele>
        <time>2014-06-04T13:39:25Z</time>
      </trkpt>
      <trkpt lat="43.42829" lon="6.11329">
        <ele>280.14801025391</ele>
        <time>2014-06-04T13:39:30Z</time>
      </trkpt>
      <trkpt lat="43.42822" lon="6.11346">
        <ele>280</ele>
        <time>2014-06-04T13:39:34Z</time>
      </trkpt>
      <trkpt lat="43.42811" lon="6.11366">
        <ele>280</ele>
        <time>2014-06-04T13:39:40Z</time>
      </trkpt>
      <trkpt lat="43.42801" lon="6.11375">
        <ele>280</ele>
        <time>2014-06-04T13:39:44Z</time>
      </trkpt>
      <trkpt lat="43.42783" lon="6.11388">
        <ele>280</ele>
        <time>2014-06-04T13:39:50Z</time>
      </trkpt>
      <trkpt lat="43.42769" lon="6.11408">
        <ele>280</ele>
        <time>2014-06-04T13:39:56Z</time>
      </trkpt>
      <trkpt lat="43.42762" lon="6.11426">
        <ele>280</ele>
        <time>2014-06-04T13:40:01Z</time>
      </trkpt>
      <trkpt lat="43.4276" lon="6.1143">
        <ele>280</ele>
        <time>2014-06-04T13:40:02Z</time>
      </trkpt>
      <trkpt lat="43.42758" lon="6.11433">
        <ele>280</ele>
        <time>2014-06-04T13:40:03Z</time>
      </trkpt>
      <trkpt lat="43.42757" lon="6.11436">
        <ele>280</ele>
        <time>2014-06-04T13:40:04Z</time>
      </trkpt>
      <trkpt lat="43.42756" lon="6.11439">
        <ele>280</ele>
        <time>2014-06-04T13:40:05Z</time>
      </trkpt>
      <trkpt lat="43.42755" lon="6.11442">
        <ele>280</ele>
        <time>2014-06-04T13:40:06Z</time>
      </trkpt>
      <trkpt lat="43.42752" lon="6.11452">
        <ele>279.9582824707</ele>
        <time>2014-06-04T13:40:10Z</time>
      </trkpt>
      <trkpt lat="43.4275" lon="6.11455">
        <ele>279.99530029297</ele>
        <time>2014-06-04T13:40:12Z</time>
      </trkpt>
      <trkpt lat="43.4275" lon="6.11455">
        <ele>279.99694824219</ele>
        <time>2014-06-04T13:40:13Z</time>
      </trkpt>
      <trkpt lat="43.4275" lon="6.11455">
        <ele>279.99694824219</ele>
        <time>2014-06-04T13:40:14Z</time>
      </trkpt>
      <trkpt lat="43.4275" lon="6.11456">
        <ele>279.99685668945</ele>
        <time>2014-06-04T13:40:15Z</time>
      </trkpt>
      <trkpt lat="43.42749" lon="6.11458">
        <ele>279.98239135742</ele>
        <time>2014-06-04T13:40:22Z</time>
      </trkpt>
      <trkpt lat="43.42749" lon="6.11461">
        <ele>279.9700012207</ele>
        <time>2014-06-04T13:40:23Z</time>
      </trkpt>
      <trkpt lat="43.42746" lon="6.11476">
        <ele>279.49200439453</ele>
        <time>2014-06-04T13:40:26Z</time>
      </trkpt>
      <trkpt lat="43.42745" lon="6.11479">
        <ele>279.15658569336</ele>
        <time>2014-06-04T13:40:27Z</time>
      </trkpt>
      <trkpt lat="43.42742" lon="6.11484">
        <ele>278.51840209961</ele>
        <time>2014-06-04T13:40:29Z</time>
      </trkpt>
      <trkpt lat="43.42741" lon="6.11487">
        <ele>278.27215576172</ele>
        <time>2014-06-04T13:40:30Z</time>
      </trkpt>
      <trkpt lat="43.4274" lon="6.11492">
        <ele>277.72518920898</ele>
        <time>2014-06-04T13:40:32Z</time>
      </trkpt>
      <trkpt lat="43.4274" lon="6.11496">
        <ele>277.37762451172</ele>
        <time>2014-06-04T13:40:33Z</time>
      </trkpt>
      <trkpt lat="43.42743" lon="6.11512">
        <ele>276.2585144043</ele>
        <time>2014-06-04T13:40:36Z</time>
      </trkpt>
      <trkpt lat="43.42745" lon="6.11517">
        <ele>275.86505126953</ele>
        <time>2014-06-04T13:40:37Z</time>
      </trkpt>
      <trkpt lat="43.42747" lon="6.11523">
        <ele>275.40985107422</ele>
        <time>2014-06-04T13:40:38Z</time>
      </trkpt>
      <trkpt lat="43.42749" lon="6.1153">
        <ele>274.89105224609</ele>
        <time>2014-06-04T13:40:39Z</time>
      </trkpt>
      <trkpt lat="43.4275" lon="6.11536">
        <ele>274.37689208984</ele>
        <time>2014-06-04T13:40:40Z</time>
      </trkpt>
      <trkpt lat="43.42751" lon="6.11542">
        <ele>273.88592529297</ele>
        <time>2014-06-04T13:40:41Z</time>
      </trkpt>
      <trkpt lat="43.42754" lon="6.11566">
        <ele>271.98391723633</ele>
        <time>2014-06-04T13:40:46Z</time>
      </trkpt>
      <trkpt lat="43.42756" lon="6.11578">
        <ele>270.91961669922</ele>
        <time>2014-06-04T13:40:50Z</time>
      </trkpt>
      <trkpt lat="43.42756" lon="6.11587">
        <ele>270.28524780273</ele>
        <time>2014-06-04T13:40:55Z</time>
      </trkpt>
      <trkpt lat="43.42757" lon="6.11588">
        <ele>270.14465332031</ele>
        <time>2014-06-04T13:40:56Z</time>
      </trkpt>
      <trkpt lat="43.42758" lon="6.11595">
        <ele>269.45840454102</ele>
        <time>2014-06-04T13:40:59Z</time>
      </trkpt>
      <trkpt lat="43.42759" lon="6.11598">
        <ele>269.12103271484</ele>
        <time>2014-06-04T13:41:00Z</time>
      </trkpt>
      <trkpt lat="43.42757" lon="6.11614">
        <ele>267.99877929688</ele>
        <time>2014-06-04T13:41:05Z</time>
      </trkpt>
      <trkpt lat="43.42752" lon="6.11626">
        <ele>267.70693969727</ele>
        <time>2014-06-04T13:41:09Z</time>
      </trkpt>
      <trkpt lat="43.4275" lon="6.11628">
        <ele>267.76187133789</ele>
        <time>2014-06-04T13:41:10Z</time>
      </trkpt>
      <trkpt lat="43.42743" lon="6.11633">
        <ele>267.67437744141</ele>
        <time>2014-06-04T13:41:13Z</time>
      </trkpt>
      <trkpt lat="43.42741" lon="6.11635">
        <ele>267.62289428711</ele>
        <time>2014-06-04T13:41:14Z</time>
      </trkpt>
      <trkpt lat="43.42736" lon="6.11637">
        <ele>267.64691162109</ele>
        <time>2014-06-04T13:41:16Z</time>
      </trkpt>
      <trkpt lat="43.42733" lon="6.1164">
        <ele>267.54876708984</ele>
        <time>2014-06-04T13:41:18Z</time>
      </trkpt>
      <trkpt lat="43.4273" lon="6.11642">
        <ele>267.60025024414</ele>
        <time>2014-06-04T13:41:20Z</time>
      </trkpt>
      <trkpt lat="43.42726" lon="6.11644">
        <ele>267.66891479492</ele>
        <time>2014-06-04T13:41:23Z</time>
      </trkpt>
      <trkpt lat="43.4272" lon="6.11656">
        <ele>267.24008178711</ele>
        <time>2014-06-04T13:41:27Z</time>
      </trkpt>
      <trkpt lat="43.42717" lon="6.11665">
        <ele>266.64956665039</ele>
        <time>2014-06-04T13:41:30Z</time>
      </trkpt>
      <trkpt lat="43.42717" lon="6.11667">
        <ele>266.55877685547</ele>
        <time>2014-06-04T13:41:31Z</time>
      </trkpt>
      <trkpt lat="43.42717" lon="6.11673">
        <ele>266.25210571289</ele>
        <time>2014-06-04T13:41:33Z</time>
      </trkpt>
      <trkpt lat="43.4272" lon="6.11679">
        <ele>266.01919555664</ele>
        <time>2014-06-04T13:41:37Z</time>
      </trkpt>
      <trkpt lat="43.42723" lon="6.11683">
        <ele>265.78704833984</ele>
        <time>2014-06-04T13:41:39Z</time>
      </trkpt>
      <trkpt lat="43.42725" lon="6.11685">
        <ele>265.62911987305</ele>
        <time>2014-06-04T13:41:40Z</time>
      </trkpt>
      <trkpt lat="43.42726" lon="6.11686">
        <ele>265.46432495117</ele>
        <time>2014-06-04T13:41:41Z</time>
      </trkpt>
      <trkpt lat="43.42732" lon="6.11693">
        <ele>264.72619628906</ele>
        <time>2014-06-04T13:41:46Z</time>
      </trkpt>
      <trkpt lat="43.4274" lon="6.11703">
        <ele>263.59243774414</ele>
        <time>2014-06-04T13:41:51Z</time>
      </trkpt>
      <trkpt lat="43.42743" lon="6.11707">
        <ele>263.00164794922</ele>
        <time>2014-06-04T13:41:54Z</time>
      </trkpt>
      <trkpt lat="43.42746" lon="6.1171">
        <ele>262.48788452148</ele>
        <time>2014-06-04T13:41:56Z</time>
      </trkpt>
      <trkpt lat="43.42748" lon="6.11711">
        <ele>262.32116699219</ele>
        <time>2014-06-04T13:41:57Z</time>
      </trkpt>
      <trkpt lat="43.42749" lon="6.11711">
        <ele>262.33294677734</ele>
        <time>2014-06-04T13:41:58Z</time>
      </trkpt>
      <trkpt lat="43.42749" lon="6.1171">
        <ele>262.32019042969</ele>
        <time>2014-06-04T13:41:59Z</time>
      </trkpt>
      <trkpt lat="43.42753" lon="6.11712">
        <ele>261.44039916992</ele>
        <time>2014-06-04T13:42:01Z</time>
      </trkpt>
      <trkpt lat="43.42756" lon="6.11712">
        <ele>260.97454833984</ele>
        <time>2014-06-04T13:42:03Z</time>
      </trkpt>
      <trkpt lat="43.42756" lon="6.11712">
        <ele>260.97454833984</ele>
        <time>2014-06-04T13:42:19Z</time>
      </trkpt>
      <trkpt lat="43.42756" lon="6.11712">
        <ele>260.9065246582</ele>
        <time>2014-06-04T13:42:44Z</time>
      </trkpt>
      <trkpt lat="43.42756" lon="6.11712">
        <ele>260.9065246582</ele>
        <time>2014-06-04T13:43:10Z</time>
      </trkpt>
      <trkpt lat="43.42756" lon="6.11712">
        <ele>260.88781738281</ele>
        <time>2014-06-04T13:43:46Z</time>
      </trkpt>
      <trkpt lat="43.42756" lon="6.11712">
        <ele>260.88781738281</ele>
        <time>2014-06-04T13:43:58Z</time>
      </trkpt>
      <trkpt lat="43.42756" lon="6.11712">
        <ele>260.79458618164</ele>
        <time>2014-06-04T13:44:03Z</time>
      </trkpt>
      <trkpt lat="43.42756" lon="6.11712">
        <ele>260.79458618164</ele>
        <time>2014-06-04T13:44:11Z</time>
      </trkpt>
      <trkpt lat="43.42756" lon="6.11712">
        <ele>260.71884155273</ele>
        <time>2014-06-04T13:44:15Z</time>
      </trkpt>
      <trkpt lat="43.42757" lon="6.11715">
        <ele>260.26065063477</ele>
        <time>2014-06-04T13:44:16Z</time>
      </trkpt>
      <trkpt lat="43.42757" lon="6.11717">
        <ele>259.91674804688</ele>
        <time>2014-06-04T13:44:17Z</time>
      </trkpt>
      <trkpt lat="43.42765" lon="6.11719">
        <ele>257.73580932617</ele>
        <time>2014-06-04T13:44:21Z</time>
      </trkpt>
      <trkpt lat="43.42773" lon="6.11711">
        <ele>257.37460327148</ele>
        <time>2014-06-04T13:44:25Z</time>
      </trkpt>
      <trkpt lat="43.42775" lon="6.11708">
        <ele>257.78369140625</ele>
        <time>2014-06-04T13:44:27Z</time>
      </trkpt>
      <trkpt lat="43.42775" lon="6.11704">
        <ele>258.28485107422</ele>
        <time>2014-06-04T13:44:28Z</time>
      </trkpt>
      <trkpt lat="43.42776" lon="6.11699">
        <ele>259.44506835938</ele>
        <time>2014-06-04T13:44:30Z</time>
      </trkpt>
      <trkpt lat="43.42775" lon="6.11697">
        <ele>259.90002441406</ele>
        <time>2014-06-04T13:44:31Z</time>
      </trkpt>
      <trkpt lat="43.42776" lon="6.11695">
        <ele>260.16818237305</ele>
        <time>2014-06-04T13:44:32Z</time>
      </trkpt>
      <trkpt lat="43.42776" lon="6.11695">
        <ele>260.10781860352</ele>
        <time>2014-06-04T13:44:34Z</time>
      </trkpt>
      <trkpt lat="43.42776" lon="6.11695">
        <ele>260.01727294922</ele>
        <time>2014-06-04T13:44:35Z</time>
      </trkpt>
      <trkpt lat="43.42781" lon="6.117">
        <ele>257.22341918945</ele>
        <time>2014-06-04T13:44:36Z</time>
      </trkpt>
      <trkpt lat="43.42786" lon="6.11707">
        <ele>254.15669250488</ele>
        <time>2014-06-04T13:44:37Z</time>
      </trkpt>
      <trkpt lat="43.42789" lon="6.11713">
        <ele>251.62216186523</ele>
        <time>2014-06-04T13:44:38Z</time>
      </trkpt>
      <trkpt lat="43.42793" lon="6.1172">
        <ele>249.54479980469</ele>
        <time>2014-06-04T13:44:39Z</time>
      </trkpt>
      <trkpt lat="43.42797" lon="6.11733">
        <ele>246.65057373047</ele>
        <time>2014-06-04T13:44:41Z</time>
      </trkpt>
      <trkpt lat="43.42796" lon="6.11739">
        <ele>246.13044738769</ele>
        <time>2014-06-04T13:44:42Z</time>
      </trkpt>
      <trkpt lat="43.42795" lon="6.11745">
        <ele>246.07379150391</ele>
        <time>2014-06-04T13:44:43Z</time>
      </trkpt>
      <trkpt lat="43.42794" lon="6.1175">
        <ele>245.74420166016</ele>
        <time>2014-06-04T13:44:44Z</time>
      </trkpt>
      <trkpt lat="43.42794" lon="6.11755">
        <ele>245.42778015137</ele>
        <time>2014-06-04T13:44:45Z</time>
      </trkpt>
      <trkpt lat="43.4279" lon="6.11764">
        <ele>245.69915771484</ele>
        <time>2014-06-04T13:44:48Z</time>
      </trkpt>
      <trkpt lat="43.4279" lon="6.11776">
        <ele>244.59957885742</ele>
        <time>2014-06-04T13:44:51Z</time>
      </trkpt>
      <trkpt lat="43.42792" lon="6.11779">
        <ele>243.77020263672</ele>
        <time>2014-06-04T13:44:52Z</time>
      </trkpt>
      <trkpt lat="43.42793" lon="6.11781">
        <ele>243.29635620117</ele>
        <time>2014-06-04T13:44:53Z</time>
      </trkpt>
      <trkpt lat="43.42797" lon="6.11792">
        <ele>240.56037902832</ele>
        <time>2014-06-04T13:44:56Z</time>
      </trkpt>
      <trkpt lat="43.42799" lon="6.11804">
        <ele>238.56181335449</ele>
        <time>2014-06-04T13:44:58Z</time>
      </trkpt>
      <trkpt lat="43.42801" lon="6.11813">
        <ele>237.40377807617</ele>
        <time>2014-06-04T13:45:02Z</time>
      </trkpt>
      <trkpt lat="43.42804" lon="6.11829">
        <ele>235.66960144043</ele>
        <time>2014-06-04T13:45:07Z</time>
      </trkpt>
      <trkpt lat="43.42803" lon="6.11832">
        <ele>235.55421447754</ele>
        <time>2014-06-04T13:45:08Z</time>
      </trkpt>
      <trkpt lat="43.42804" lon="6.1184">
        <ele>235.10610961914</ele>
        <time>2014-06-04T13:45:11Z</time>
      </trkpt>
      <trkpt lat="43.42804" lon="6.11844">
        <ele>234.98422241211</ele>
        <time>2014-06-04T13:45:12Z</time>
      </trkpt>
      <trkpt lat="43.42797" lon="6.11856">
        <ele>235.64340209961</ele>
        <time>2014-06-04T13:45:17Z</time>
      </trkpt>
      <trkpt lat="43.42793" lon="6.1186">
        <ele>236.38668823242</ele>
        <time>2014-06-04T13:45:20Z</time>
      </trkpt>
      <trkpt lat="43.42791" lon="6.1186">
        <ele>236.74032592773</ele>
        <time>2014-06-04T13:45:21Z</time>
      </trkpt>
      <trkpt lat="43.42785" lon="6.11858">
        <ele>237.83551025391</ele>
        <time>2014-06-04T13:45:24Z</time>
      </trkpt>
      <trkpt lat="43.4278" lon="6.11853">
        <ele>238.9684753418</ele>
        <time>2014-06-04T13:45:27Z</time>
      </trkpt>
      <trkpt lat="43.42775" lon="6.11852">
        <ele>239.79670715332</ele>
        <time>2014-06-04T13:45:30Z</time>
      </trkpt>
      <trkpt lat="43.42774" lon="6.11853">
        <ele>239.94357299805</ele>
        <time>2014-06-04T13:45:31Z</time>
      </trkpt>
      <trkpt lat="43.42772" lon="6.11854">
        <ele>240.07855224609</ele>
        <time>2014-06-04T13:45:32Z</time>
      </trkpt>
      <trkpt lat="43.42771" lon="6.11854">
        <ele>240.25254821777</ele>
        <time>2014-06-04T13:45:33Z</time>
      </trkpt>
      <trkpt lat="43.42767" lon="6.11856">
        <ele>240.67434692383</ele>
        <time>2014-06-04T13:45:36Z</time>
      </trkpt>
      <trkpt lat="43.42767" lon="6.11856">
        <ele>240.64962768555</ele>
        <time>2014-06-04T13:45:37Z</time>
      </trkpt>
      <trkpt lat="43.42767" lon="6.11856">
        <ele>240.64962768555</ele>
        <time>2014-06-04T13:45:41Z</time>
      </trkpt>
      <trkpt lat="43.42767" lon="6.11857">
        <ele>240.60513305664</ele>
        <time>2014-06-04T13:45:48Z</time>
      </trkpt>
      <trkpt lat="43.42767" lon="6.11857">
        <ele>240.60513305664</ele>
        <time>2014-06-04T13:45:54Z</time>
      </trkpt>
      <trkpt lat="43.42766" lon="6.11857">
        <ele>240.67280578613</ele>
        <time>2014-06-04T13:46:02Z</time>
      </trkpt>
      <trkpt lat="43.42766" lon="6.11857">
        <ele>240.67280578613</ele>
        <time>2014-06-04T13:46:09Z</time>
      </trkpt>
      <trkpt lat="43.42766" lon="6.11858">
        <ele>240.69630432129</ele>
        <time>2014-06-04T13:46:13Z</time>
      </trkpt>
      <trkpt lat="43.42763" lon="6.11858">
        <ele>240.98379516602</ele>
        <time>2014-06-04T13:46:16Z</time>
      </trkpt>
      <trkpt lat="43.42762" lon="6.11859">
        <ele>240.9719543457</ele>
        <time>2014-06-04T13:46:18Z</time>
      </trkpt>
      <trkpt lat="43.42762" lon="6.11859">
        <ele>240.9719543457</ele>
        <time>2014-06-04T13:46:22Z</time>
      </trkpt>
      <trkpt lat="43.42758" lon="6.11861">
        <ele>241.10057067871</ele>
        <time>2014-06-04T13:46:28Z</time>
      </trkpt>
      <trkpt lat="43.42753" lon="6.11861">
        <ele>241.63014221191</ele>
        <time>2014-06-04T13:46:35Z</time>
      </trkpt>
      <trkpt lat="43.4275" lon="6.11863">
        <ele>241.78414916992</ele>
        <time>2014-06-04T13:46:40Z</time>
      </trkpt>
      <trkpt lat="43.42748" lon="6.11865">
        <ele>242.37487792969</ele>
        <time>2014-06-04T13:46:43Z</time>
      </trkpt>
      <trkpt lat="43.42747" lon="6.11866">
        <ele>242.54139709473</ele>
        <time>2014-06-04T13:46:44Z</time>
      </trkpt>
      <trkpt lat="43.42744" lon="6.11871">
        <ele>243.18511962891</ele>
        <time>2014-06-04T13:46:50Z</time>
      </trkpt>
      <trkpt lat="43.42742" lon="6.11872">
        <ele>243.60055541992</ele>
        <time>2014-06-04T13:46:58Z</time>
      </trkpt>
      <trkpt lat="43.42733" lon="6.11873">
        <ele>246.80374145508</ele>
        <time>2014-06-04T13:47:04Z</time>
      </trkpt>
      <trkpt lat="43.4273" lon="6.11874">
        <ele>247.65690612793</ele>
        <time>2014-06-04T13:47:06Z</time>
      </trkpt>
      <trkpt lat="43.42728" lon="6.11875">
        <ele>248.24569702148</ele>
        <time>2014-06-04T13:47:07Z</time>
      </trkpt>
      <trkpt lat="43.42727" lon="6.11877">
        <ele>248.65081787109</ele>
        <time>2014-06-04T13:47:08Z</time>
      </trkpt>
      <trkpt lat="43.42717" lon="6.11883">
        <ele>251.59846496582</ele>
        <time>2014-06-04T13:47:14Z</time>
      </trkpt>
      <trkpt lat="43.42702" lon="6.11893">
        <ele>256.47463989258</ele>
        <time>2014-06-04T13:47:20Z</time>
      </trkpt>
      <trkpt lat="43.42698" lon="6.11907">
        <ele>257.08700561523</ele>
        <time>2014-06-04T13:47:24Z</time>
      </trkpt>
      <trkpt lat="43.42699" lon="6.11911">
        <ele>256.44729614258</ele>
        <time>2014-06-04T13:47:25Z</time>
      </trkpt>
      <trkpt lat="43.42703" lon="6.11928">
        <ele>253.83773803711</ele>
        <time>2014-06-04T13:47:29Z</time>
      </trkpt>
      <trkpt lat="43.42705" lon="6.11932">
        <ele>252.61839294434</ele>
        <time>2014-06-04T13:47:30Z</time>
      </trkpt>
      <trkpt lat="43.42718" lon="6.11945">
        <ele>246.01274108887</ele>
        <time>2014-06-04T13:47:34Z</time>
      </trkpt>
      <trkpt lat="43.42724" lon="6.11952">
        <ele>242.69760131836</ele>
        <time>2014-06-04T13:47:36Z</time>
      </trkpt>
      <trkpt lat="43.42731" lon="6.11957">
        <ele>241.05415344238</ele>
        <time>2014-06-04T13:47:38Z</time>
      </trkpt>
      <trkpt lat="43.42732" lon="6.11961">
        <ele>240.46453857422</ele>
        <time>2014-06-04T13:47:39Z</time>
      </trkpt>
      <trkpt lat="43.42733" lon="6.11966">
        <ele>239.89906311035</ele>
        <time>2014-06-04T13:47:40Z</time>
      </trkpt>
      <trkpt lat="43.42735" lon="6.11976">
        <ele>239.060546875</ele>
        <time>2014-06-04T13:47:42Z</time>
      </trkpt>
      <trkpt lat="43.42734" lon="6.11985">
        <ele>238.97256469727</ele>
        <time>2014-06-04T13:47:44Z</time>
      </trkpt>
      <trkpt lat="43.42735" lon="6.12029">
        <ele>238.66403198242</ele>
        <time>2014-06-04T13:47:53Z</time>
      </trkpt>
      <trkpt lat="43.42734" lon="6.12037">
        <ele>238.99092102051</ele>
        <time>2014-06-04T13:47:55Z</time>
      </trkpt>
      <trkpt lat="43.42735" lon="6.12054">
        <ele>239.19964599609</ele>
        <time>2014-06-04T13:47:59Z</time>
      </trkpt>
      <trkpt lat="43.42735" lon="6.12066">
        <ele>239.49526977539</ele>
        <time>2014-06-04T13:48:02Z</time>
      </trkpt>
      <trkpt lat="43.42736" lon="6.12071">
        <ele>239.55534362793</ele>
        <time>2014-06-04T13:48:03Z</time>
      </trkpt>
      <trkpt lat="43.42737" lon="6.12076">
        <ele>239.64804077148</ele>
        <time>2014-06-04T13:48:04Z</time>
      </trkpt>
      <trkpt lat="43.42739" lon="6.12082">
        <ele>239.56735229492</ele>
        <time>2014-06-04T13:48:05Z</time>
      </trkpt>
      <trkpt lat="43.42741" lon="6.12087">
        <ele>239.34912109375</ele>
        <time>2014-06-04T13:48:06Z</time>
      </trkpt>
      <trkpt lat="43.42746" lon="6.12098">
        <ele>238.580078125</ele>
        <time>2014-06-04T13:48:08Z</time>
      </trkpt>
      <trkpt lat="43.42754" lon="6.12111">
        <ele>237.09252929688</ele>
        <time>2014-06-04T13:48:11Z</time>
      </trkpt>
      <trkpt lat="43.42758" lon="6.12116">
        <ele>236.03509521484</ele>
        <time>2014-06-04T13:48:13Z</time>
      </trkpt>
      <trkpt lat="43.4276" lon="6.12118">
        <ele>235.55444335938</ele>
        <time>2014-06-04T13:48:14Z</time>
      </trkpt>
      <trkpt lat="43.42761" lon="6.12125">
        <ele>235.169921875</ele>
        <time>2014-06-04T13:48:16Z</time>
      </trkpt>
      <trkpt lat="43.42768" lon="6.12142">
        <ele>233.34344482422</ele>
        <time>2014-06-04T13:48:20Z</time>
      </trkpt>
      <trkpt lat="43.42774" lon="6.12151">
        <ele>231.90148925781</ele>
        <time>2014-06-04T13:48:22Z</time>
      </trkpt>
      <trkpt lat="43.42777" lon="6.12158">
        <ele>231.13244628906</ele>
        <time>2014-06-04T13:48:24Z</time>
      </trkpt>
      <trkpt lat="43.42778" lon="6.12158">
        <ele>230.92813110352</ele>
        <time>2014-06-04T13:48:25Z</time>
      </trkpt>
      <trkpt lat="43.42779" lon="6.12161">
        <ele>230.57391357422</ele>
        <time>2014-06-04T13:48:27Z</time>
      </trkpt>
      <trkpt lat="43.42786" lon="6.12169">
        <ele>228.09484863281</ele>
        <time>2014-06-04T13:48:32Z</time>
      </trkpt>
      <trkpt lat="43.42792" lon="6.12171">
        <ele>226.26335144043</ele>
        <time>2014-06-04T13:48:35Z</time>
      </trkpt>
      <trkpt lat="43.42793" lon="6.12171">
        <ele>226.01493835449</ele>
        <time>2014-06-04T13:48:36Z</time>
      </trkpt>
      <trkpt lat="43.42793" lon="6.12171">
        <ele>225.88679504394</ele>
        <time>2014-06-04T13:48:37Z</time>
      </trkpt>
      <trkpt lat="43.42793" lon="6.12171">
        <ele>225.88679504394</ele>
        <time>2014-06-04T13:48:38Z</time>
      </trkpt>
      <trkpt lat="43.42794" lon="6.12171">
        <ele>225.49391174316</ele>
        <time>2014-06-04T13:48:45Z</time>
      </trkpt>
      <trkpt lat="43.42797" lon="6.12172">
        <ele>224.54214477539</ele>
        <time>2014-06-04T13:48:49Z</time>
      </trkpt>
      <trkpt lat="43.42797" lon="6.12172">
        <ele>224.41589355469</ele>
        <time>2014-06-04T13:48:50Z</time>
      </trkpt>
      <trkpt lat="43.428" lon="6.12172">
        <ele>223.54138183594</ele>
        <time>2014-06-04T13:48:53Z</time>
      </trkpt>
      <trkpt lat="43.42802" lon="6.12173">
        <ele>222.73606872559</ele>
        <time>2014-06-04T13:48:57Z</time>
      </trkpt>
      <trkpt lat="43.42811" lon="6.12172">
        <ele>220.52767944336</ele>
        <time>2014-06-04T13:49:03Z</time>
      </trkpt>
      <trkpt lat="43.4282" lon="6.1217">
        <ele>219.06900024414</ele>
        <time>2014-06-04T13:49:07Z</time>
      </trkpt>
      <trkpt lat="43.42825" lon="6.1217">
        <ele>218.19891357422</ele>
        <time>2014-06-04T13:49:09Z</time>
      </trkpt>
      <trkpt lat="43.42834" lon="6.12169">
        <ele>216.64109802246</ele>
        <time>2014-06-04T13:49:12Z</time>
      </trkpt>
      <trkpt lat="43.42837" lon="6.12169">
        <ele>215.90646362305</ele>
        <time>2014-06-04T13:49:13Z</time>
      </trkpt>
      <trkpt lat="43.42839" lon="6.12169">
        <ele>215.1934967041</ele>
        <time>2014-06-04T13:49:14Z</time>
      </trkpt>
      <trkpt lat="43.42845" lon="6.1217">
        <ele>213.81300354004</ele>
        <time>2014-06-04T13:49:15Z</time>
      </trkpt>
      <trkpt lat="43.42849" lon="6.1217">
        <ele>212.84260559082</ele>
        <time>2014-06-04T13:49:16Z</time>
      </trkpt>
      <trkpt lat="43.42857" lon="6.12172">
        <ele>210.51806640625</ele>
        <time>2014-06-04T13:49:19Z</time>
      </trkpt>
      <trkpt lat="43.42866" lon="6.12171">
        <ele>209.23905944824</ele>
        <time>2014-06-04T13:49:22Z</time>
      </trkpt>
      <trkpt lat="43.4287" lon="6.1217">
        <ele>208.86981201172</ele>
        <time>2014-06-04T13:49:23Z</time>
      </trkpt>
      <trkpt lat="43.42874" lon="6.12169">
        <ele>208.44380187988</ele>
        <time>2014-06-04T13:49:24Z</time>
      </trkpt>
      <trkpt lat="43.42878" lon="6.12168">
        <ele>208.07395935059</ele>
        <time>2014-06-04T13:49:25Z</time>
      </trkpt>
      <trkpt lat="43.42883" lon="6.12166">
        <ele>207.67730712891</ele>
        <time>2014-06-04T13:49:26Z</time>
      </trkpt>
      <trkpt lat="43.42896" lon="6.12157">
        <ele>207.69520568848</ele>
        <time>2014-06-04T13:49:29Z</time>
      </trkpt>
      <trkpt lat="43.42907" lon="6.12141">
        <ele>208.87623596191</ele>
        <time>2014-06-04T13:49:33Z</time>
      </trkpt>
      <trkpt lat="43.42908" lon="6.12134">
        <ele>209.126953125</ele>
        <time>2014-06-04T13:49:35Z</time>
      </trkpt>
      <trkpt lat="43.42907" lon="6.12131">
        <ele>209.18859863281</ele>
        <time>2014-06-04T13:49:36Z</time>
      </trkpt>
      <trkpt lat="43.42907" lon="6.12128">
        <ele>209.25563049316</ele>
        <time>2014-06-04T13:49:37Z</time>
      </trkpt>
      <trkpt lat="43.42908" lon="6.12123">
        <ele>209.39085388184</ele>
        <time>2014-06-04T13:49:39Z</time>
      </trkpt>
      <trkpt lat="43.42908" lon="6.1212">
        <ele>209.46842956543</ele>
        <time>2014-06-04T13:49:40Z</time>
      </trkpt>
      <trkpt lat="43.42908" lon="6.12114">
        <ele>209.6209564209</ele>
        <time>2014-06-04T13:49:42Z</time>
      </trkpt>
      <trkpt lat="43.42907" lon="6.12098">
        <ele>210.29301452637</ele>
        <time>2014-06-04T13:49:46Z</time>
      </trkpt>
      <trkpt lat="43.42907" lon="6.12089">
        <ele>210.71760559082</ele>
        <time>2014-06-04T13:49:49Z</time>
      </trkpt>
      <trkpt lat="43.42907" lon="6.12074">
        <ele>211.53948974609</ele>
        <time>2014-06-04T13:49:53Z</time>
      </trkpt>
      <trkpt lat="43.42903" lon="6.12055">
        <ele>212.51693725586</ele>
        <time>2014-06-04T13:49:59Z</time>
      </trkpt>
      <trkpt lat="43.42898" lon="6.12041">
        <ele>212.86540222168</ele>
        <time>2014-06-04T13:50:03Z</time>
      </trkpt>
      <trkpt lat="43.42898" lon="6.12036">
        <ele>213.02676391602</ele>
        <time>2014-06-04T13:50:04Z</time>
      </trkpt>
      <trkpt lat="43.42899" lon="6.12027">
        <ele>213.38381958008</ele>
        <time>2014-06-04T13:50:06Z</time>
      </trkpt>
      <trkpt lat="43.42898" lon="6.12022">
        <ele>213.5348815918</ele>
        <time>2014-06-04T13:50:07Z</time>
      </trkpt>
      <trkpt lat="43.42897" lon="6.12013">
        <ele>213.84043884277</ele>
        <time>2014-06-04T13:50:09Z</time>
      </trkpt>
      <trkpt lat="43.42892" lon="6.11995">
        <ele>214.32109069824</ele>
        <time>2014-06-04T13:50:14Z</time>
      </trkpt>
      <trkpt lat="43.4289" lon="6.11991">
        <ele>214.35885620117</ele>
        <time>2014-06-04T13:50:15Z</time>
      </trkpt>
      <trkpt lat="43.42888" lon="6.11988">
        <ele>214.50984191894</ele>
        <time>2014-06-04T13:50:16Z</time>
      </trkpt>
      <trkpt lat="43.42887" lon="6.11986">
        <ele>214.7604675293</ele>
        <time>2014-06-04T13:50:17Z</time>
      </trkpt>
      <trkpt lat="43.42886" lon="6.11983">
        <ele>215.0368347168</ele>
        <time>2014-06-04T13:50:18Z</time>
      </trkpt>
      <trkpt lat="43.42886" lon="6.11981">
        <ele>215.11236572266</ele>
        <time>2014-06-04T13:50:19Z</time>
      </trkpt>
      <trkpt lat="43.42885" lon="6.1198">
        <ele>215.26342773438</ele>
        <time>2014-06-04T13:50:22Z</time>
      </trkpt>
      <trkpt lat="43.42885" lon="6.1198">
        <ele>215.26342773438</ele>
        <time>2014-06-04T13:50:34Z</time>
      </trkpt>
      <trkpt lat="43.42884" lon="6.11977">
        <ele>215.53466796875</ele>
        <time>2014-06-04T13:50:37Z</time>
      </trkpt>
      <trkpt lat="43.42883" lon="6.11975">
        <ele>215.70803833008</ele>
        <time>2014-06-04T13:50:38Z</time>
      </trkpt>
      <trkpt lat="43.42883" lon="6.1197">
        <ele>215.93806457519</ele>
        <time>2014-06-04T13:50:43Z</time>
      </trkpt>
      <trkpt lat="43.42881" lon="6.11959">
        <ele>216.53887939453</ele>
        <time>2014-06-04T13:50:47Z</time>
      </trkpt>
      <trkpt lat="43.4288" lon="6.11953">
        <ele>216.94229125977</ele>
        <time>2014-06-04T13:50:49Z</time>
      </trkpt>
      <trkpt lat="43.42879" lon="6.11949">
        <ele>217.18603515625</ele>
        <time>2014-06-04T13:50:50Z</time>
      </trkpt>
      <trkpt lat="43.42879" lon="6.11946">
        <ele>217.41607666016</ele>
        <time>2014-06-04T13:50:51Z</time>
      </trkpt>
      <trkpt lat="43.42878" lon="6.11942">
        <ele>217.67610168457</ele>
        <time>2014-06-04T13:50:52Z</time>
      </trkpt>
      <trkpt lat="43.42877" lon="6.11938">
        <ele>217.95230102539</ele>
        <time>2014-06-04T13:50:53Z</time>
      </trkpt>
      <trkpt lat="43.42877" lon="6.11919">
        <ele>218.75155639648</ele>
        <time>2014-06-04T13:50:58Z</time>
      </trkpt>
      <trkpt lat="43.42878" lon="6.11915">
        <ele>218.85572814941</ele>
        <time>2014-06-04T13:51:00Z</time>
      </trkpt>
      <trkpt lat="43.42878" lon="6.11913">
        <ele>218.9326171875</ele>
        <time>2014-06-04T13:51:01Z</time>
      </trkpt>
      <trkpt lat="43.42878" lon="6.11911">
        <ele>218.98573303223</ele>
        <time>2014-06-04T13:51:02Z</time>
      </trkpt>
      <trkpt lat="43.42878" lon="6.11911">
        <ele>218.94978332519</ele>
        <time>2014-06-04T13:51:03Z</time>
      </trkpt>
      <trkpt lat="43.42878" lon="6.1191">
        <ele>218.99830627441</ele>
        <time>2014-06-04T13:51:06Z</time>
      </trkpt>
      <trkpt lat="43.42876" lon="6.11902">
        <ele>219.38102722168</ele>
        <time>2014-06-04T13:51:09Z</time>
      </trkpt>
      <trkpt lat="43.42875" lon="6.11894">
        <ele>219.89073181152</ele>
        <time>2014-06-04T13:51:12Z</time>
      </trkpt>
      <trkpt lat="43.42875" lon="6.11894">
        <ele>219.88896179199</ele>
        <time>2014-06-04T13:51:14Z</time>
      </trkpt>
      <trkpt lat="43.42874" lon="6.1189">
        <ele>220.06851196289</ele>
        <time>2014-06-04T13:51:19Z</time>
      </trkpt>
      <trkpt lat="43.42874" lon="6.1189">
        <ele>220.08673095703</ele>
        <time>2014-06-04T13:51:24Z</time>
      </trkpt>
      <trkpt lat="43.42874" lon="6.1189">
        <ele>220.08673095703</ele>
        <time>2014-06-04T13:51:35Z</time>
      </trkpt>
      <trkpt lat="43.42873" lon="6.11884">
        <ele>220.5867767334</ele>
        <time>2014-06-04T13:51:41Z</time>
      </trkpt>
      <trkpt lat="43.42874" lon="6.11882">
        <ele>220.65200805664</ele>
        <time>2014-06-04T13:51:45Z</time>
      </trkpt>
      <trkpt lat="43.42875" lon="6.11874">
        <ele>221.05712890625</ele>
        <time>2014-06-04T13:51:50Z</time>
      </trkpt>
      <trkpt lat="43.42875" lon="6.11873">
        <ele>221.09489440918</ele>
        <time>2014-06-04T13:51:51Z</time>
      </trkpt>
      <trkpt lat="43.42877" lon="6.1187">
        <ele>221.09832763672</ele>
        <time>2014-06-04T13:51:53Z</time>
      </trkpt>
      <trkpt lat="43.42878" lon="6.11865">
        <ele>221.35581970215</ele>
        <time>2014-06-04T13:51:56Z</time>
      </trkpt>
      <trkpt lat="43.42875" lon="6.11856">
        <ele>222.17242431641</ele>
        <time>2014-06-04T13:52:00Z</time>
      </trkpt>
      <trkpt lat="43.42873" lon="6.11841">
        <ele>222.63301086426</ele>
        <time>2014-06-04T13:52:05Z</time>
      </trkpt>
      <trkpt lat="43.42874" lon="6.11819">
        <ele>225.45147705078</ele>
        <time>2014-06-04T13:52:09Z</time>
      </trkpt>
      <trkpt lat="43.42875" lon="6.11813">
        <ele>226.46992492676</ele>
        <time>2014-06-04T13:52:10Z</time>
      </trkpt>
      <trkpt lat="43.42875" lon="6.11808">
        <ele>227.40435791016</ele>
        <time>2014-06-04T13:52:11Z</time>
      </trkpt>
      <trkpt lat="43.42876" lon="6.11804">
        <ele>228.04588317871</ele>
        <time>2014-06-04T13:52:12Z</time>
      </trkpt>
      <trkpt lat="43.42877" lon="6.11801">
        <ele>228.87446594238</ele>
        <time>2014-06-04T13:52:13Z</time>
      </trkpt>
      <trkpt lat="43.42878" lon="6.11796">
        <ele>229.76756286621</ele>
        <time>2014-06-04T13:52:14Z</time>
      </trkpt>
      <trkpt lat="43.42878" lon="6.11787">
        <ele>231.97872924805</ele>
        <time>2014-06-04T13:52:16Z</time>
      </trkpt>
      <trkpt lat="43.42878" lon="6.11778">
        <ele>234.17512512207</ele>
        <time>2014-06-04T13:52:18Z</time>
      </trkpt>
      <trkpt lat="43.42878" lon="6.11776">
        <ele>234.21768188477</ele>
        <time>2014-06-04T13:52:19Z</time>
      </trkpt>
      <trkpt lat="43.42878" lon="6.11774">
        <ele>234.25308227539</ele>
        <time>2014-06-04T13:52:20Z</time>
      </trkpt>
      <trkpt lat="43.42878" lon="6.11773">
        <ele>234.25611877441</ele>
        <time>2014-06-04T13:52:25Z</time>
      </trkpt>
      <trkpt lat="43.42879" lon="6.11772">
        <ele>234.23710632324</ele>
        <time>2014-06-04T13:52:29Z</time>
      </trkpt>
      <trkpt lat="43.42879" lon="6.11772">
        <ele>234.23710632324</ele>
        <time>2014-06-04T13:52:30Z</time>
      </trkpt>
      <trkpt lat="43.42879" lon="6.11771">
        <ele>234.21893310547</ele>
        <time>2014-06-04T13:52:32Z</time>
      </trkpt>
      <trkpt lat="43.42879" lon="6.11771">
        <ele>234.21893310547</ele>
        <time>2014-06-04T13:52:52Z</time>
      </trkpt>
      <trkpt lat="43.42879" lon="6.11771">
        <ele>234.21893310547</ele>
        <time>2014-06-04T13:53:01Z</time>
      </trkpt>
      <trkpt lat="43.42879" lon="6.11771">
        <ele>234.16983032227</ele>
        <time>2014-06-04T13:53:09Z</time>
      </trkpt>
      <trkpt lat="43.42879" lon="6.11771">
        <ele>234.16983032227</ele>
        <time>2014-06-04T13:53:18Z</time>
      </trkpt>
      <trkpt lat="43.42881" lon="6.11771">
        <ele>234.02767944336</ele>
        <time>2014-06-04T13:53:22Z</time>
      </trkpt>
      <trkpt lat="43.42881" lon="6.11771">
        <ele>234.02767944336</ele>
        <time>2014-06-04T13:53:31Z</time>
      </trkpt>
      <trkpt lat="43.42883" lon="6.11772">
        <ele>233.82113647461</ele>
        <time>2014-06-04T13:53:35Z</time>
      </trkpt>
      <trkpt lat="43.42883" lon="6.11772">
        <ele>233.81709289551</ele>
        <time>2014-06-04T13:53:41Z</time>
      </trkpt>
      <trkpt lat="43.42884" lon="6.11772">
        <ele>233.69970703125</ele>
        <time>2014-06-04T13:53:48Z</time>
      </trkpt>
      <trkpt lat="43.42884" lon="6.11772">
        <ele>233.69970703125</ele>
        <time>2014-06-04T13:53:54Z</time>
      </trkpt>
      <trkpt lat="43.42885" lon="6.11772">
        <ele>233.61444091797</ele>
        <time>2014-06-04T13:54:01Z</time>
      </trkpt>
      <trkpt lat="43.42889" lon="6.11775">
        <ele>233.1184387207</ele>
        <time>2014-06-04T13:54:08Z</time>
      </trkpt>
      <trkpt lat="43.42889" lon="6.11776">
        <ele>233.10482788086</ele>
        <time>2014-06-04T13:54:15Z</time>
      </trkpt>
      <trkpt lat="43.4289" lon="6.11778">
        <ele>232.89802551269</ele>
        <time>2014-06-04T13:54:16Z</time>
      </trkpt>
      <trkpt lat="43.42894" lon="6.11785">
        <ele>230.85037231445</ele>
        <time>2014-06-04T13:54:18Z</time>
      </trkpt>
      <trkpt lat="43.42898" lon="6.11806">
        <ele>224.99264526367</ele>
        <time>2014-06-04T13:54:22Z</time>
      </trkpt>
      <trkpt lat="43.42902" lon="6.1182">
        <ele>222.69276428223</ele>
        <time>2014-06-04T13:54:25Z</time>
      </trkpt>
      <trkpt lat="43.42904" lon="6.11824">
        <ele>222.13975524902</ele>
        <time>2014-06-04T13:54:26Z</time>
      </trkpt>
      <trkpt lat="43.42904" lon="6.11828">
        <ele>221.68472290039</ele>
        <time>2014-06-04T13:54:27Z</time>
      </trkpt>
      <trkpt lat="43.42906" lon="6.11833">
        <ele>221.24850463867</ele>
        <time>2014-06-04T13:54:28Z</time>
      </trkpt>
      <trkpt lat="43.42907" lon="6.11838">
        <ele>221.21742248535</ele>
        <time>2014-06-04T13:54:29Z</time>
      </trkpt>
      <trkpt lat="43.42908" lon="6.11843">
        <ele>221.15858459473</ele>
        <time>2014-06-04T13:54:30Z</time>
      </trkpt>
      <trkpt lat="43.42913" lon="6.11872">
        <ele>220.08560180664</ele>
        <time>2014-06-04T13:54:36Z</time>
      </trkpt>
      <trkpt lat="43.42915" lon="6.1188">
        <ele>219.56031799316</ele>
        <time>2014-06-04T13:54:38Z</time>
      </trkpt>
      <trkpt lat="43.42916" lon="6.11889">
        <ele>218.96612548828</ele>
        <time>2014-06-04T13:54:40Z</time>
      </trkpt>
      <trkpt lat="43.42918" lon="6.11893">
        <ele>219.06385803223</ele>
        <time>2014-06-04T13:54:41Z</time>
      </trkpt>
      <trkpt lat="43.42924" lon="6.11913">
        <ele>219.28450012207</ele>
        <time>2014-06-04T13:54:46Z</time>
      </trkpt>
      <trkpt lat="43.42923" lon="6.11917">
        <ele>219.22229003906</ele>
        <time>2014-06-04T13:54:47Z</time>
      </trkpt>
      <trkpt lat="43.42924" lon="6.11925">
        <ele>218.63864135742</ele>
        <time>2014-06-04T13:54:50Z</time>
      </trkpt>
      <trkpt lat="43.42929" lon="6.11942">
        <ele>217.57777404785</ele>
        <time>2014-06-04T13:54:55Z</time>
      </trkpt>
      <trkpt lat="43.42929" lon="6.11946">
        <ele>217.37493896484</ele>
        <time>2014-06-04T13:54:56Z</time>
      </trkpt>
      <trkpt lat="43.42935" lon="6.11959">
        <ele>217.11917114258</ele>
        <time>2014-06-04T13:55:00Z</time>
      </trkpt>
      <trkpt lat="43.42936" lon="6.11964">
        <ele>216.99900817871</ele>
        <time>2014-06-04T13:55:01Z</time>
      </trkpt>
      <trkpt lat="43.42941" lon="6.11978">
        <ele>216.64881896973</ele>
        <time>2014-06-04T13:55:04Z</time>
      </trkpt>
      <trkpt lat="43.42942" lon="6.11995">
        <ele>216.10636901856</ele>
        <time>2014-06-04T13:55:07Z</time>
      </trkpt>
      <trkpt lat="43.42943" lon="6.12006">
        <ele>215.51876831055</ele>
        <time>2014-06-04T13:55:09Z</time>
      </trkpt>
      <trkpt lat="43.42949" lon="6.12017">
        <ele>214.58680725098</ele>
        <time>2014-06-04T13:55:12Z</time>
      </trkpt>
      <trkpt lat="43.42953" lon="6.12027">
        <ele>213.75596618652</ele>
        <time>2014-06-04T13:55:14Z</time>
      </trkpt>
      <trkpt lat="43.42954" lon="6.12032">
        <ele>213.49713134766</ele>
        <time>2014-06-04T13:55:15Z</time>
      </trkpt>
      <trkpt lat="43.42958" lon="6.12042">
        <ele>213.01818847656</ele>
        <time>2014-06-04T13:55:17Z</time>
      </trkpt>
      <trkpt lat="43.42966" lon="6.12076">
        <ele>210.7287902832</ele>
        <time>2014-06-04T13:55:23Z</time>
      </trkpt>
      <trkpt lat="43.42974" lon="6.12099">
        <ele>208.78901672363</ele>
        <time>2014-06-04T13:55:27Z</time>
      </trkpt>
      <trkpt lat="43.42979" lon="6.12116">
        <ele>207.59182739258</ele>
        <time>2014-06-04T13:55:31Z</time>
      </trkpt>
      <trkpt lat="43.42981" lon="6.12126">
        <ele>207.13349914551</ele>
        <time>2014-06-04T13:55:33Z</time>
      </trkpt>
      <trkpt lat="43.42983" lon="6.12131">
        <ele>206.90176391602</ele>
        <time>2014-06-04T13:55:34Z</time>
      </trkpt>
      <trkpt lat="43.42991" lon="6.12162">
        <ele>204.88262939453</ele>
        <time>2014-06-04T13:55:40Z</time>
      </trkpt>
      <trkpt lat="43.43" lon="6.12194">
        <ele>203.02833557129</ele>
        <time>2014-06-04T13:55:46Z</time>
      </trkpt>
      <trkpt lat="43.43003" lon="6.1221">
        <ele>202.45074462891</ele>
        <time>2014-06-04T13:55:49Z</time>
      </trkpt>
      <trkpt lat="43.43004" lon="6.12216">
        <ele>202.23617553711</ele>
        <time>2014-06-04T13:55:50Z</time>
      </trkpt>
      <trkpt lat="43.43009" lon="6.12239">
        <ele>200.77288818359</ele>
        <time>2014-06-04T13:55:54Z</time>
      </trkpt>
      <trkpt lat="43.43011" lon="6.12245">
        <ele>200.36433410644</ele>
        <time>2014-06-04T13:55:55Z</time>
      </trkpt>
      <trkpt lat="43.43013" lon="6.1225">
        <ele>199.98989868164</ele>
        <time>2014-06-04T13:55:56Z</time>
      </trkpt>
      <trkpt lat="43.43015" lon="6.12256">
        <ele>199.80108642578</ele>
        <time>2014-06-04T13:55:57Z</time>
      </trkpt>
      <trkpt lat="43.43017" lon="6.12261">
        <ele>199.60195922852</ele>
        <time>2014-06-04T13:55:58Z</time>
      </trkpt>
      <trkpt lat="43.43019" lon="6.12277">
        <ele>199.04061889648</ele>
        <time>2014-06-04T13:56:01Z</time>
      </trkpt>
      <trkpt lat="43.43021" lon="6.12282">
        <ele>198.95965576172</ele>
        <time>2014-06-04T13:56:02Z</time>
      </trkpt>
      <trkpt lat="43.43022" lon="6.12287">
        <ele>198.92642211914</ele>
        <time>2014-06-04T13:56:03Z</time>
      </trkpt>
      <trkpt lat="43.43022" lon="6.12289">
        <ele>198.91789245606</ele>
        <time>2014-06-04T13:56:04Z</time>
      </trkpt>
      <trkpt lat="43.43023" lon="6.12291">
        <ele>198.91461181641</ele>
        <time>2014-06-04T13:56:05Z</time>
      </trkpt>
      <trkpt lat="43.43023" lon="6.12293">
        <ele>198.89561462402</ele>
        <time>2014-06-04T13:56:06Z</time>
      </trkpt>
      <trkpt lat="43.43023" lon="6.12293">
        <ele>198.90411376953</ele>
        <time>2014-06-04T13:56:09Z</time>
      </trkpt>
      <trkpt lat="43.43024" lon="6.12295">
        <ele>198.91911315918</ele>
        <time>2014-06-04T13:56:15Z</time>
      </trkpt>
      <trkpt lat="43.43024" lon="6.12295">
        <ele>198.91911315918</ele>
        <time>2014-06-04T13:56:24Z</time>
      </trkpt>
      <trkpt lat="43.43023" lon="6.12297">
        <ele>198.87034606934</ele>
        <time>2014-06-04T13:56:25Z</time>
      </trkpt>
      <trkpt lat="43.43021" lon="6.12302">
        <ele>198.79666137695</ele>
        <time>2014-06-04T13:56:27Z</time>
      </trkpt>
      <trkpt lat="43.43021" lon="6.12305">
        <ele>198.77613830566</ele>
        <time>2014-06-04T13:56:29Z</time>
      </trkpt>
      <trkpt lat="43.43022" lon="6.12307">
        <ele>198.70257568359</ele>
        <time>2014-06-04T13:56:30Z</time>
      </trkpt>
      <trkpt lat="43.43023" lon="6.12309">
        <ele>198.58377075195</ele>
        <time>2014-06-04T13:56:31Z</time>
      </trkpt>
      <trkpt lat="43.43023" lon="6.12325">
        <ele>197.57052612305</ele>
        <time>2014-06-04T13:56:35Z</time>
      </trkpt>
      <trkpt lat="43.43027" lon="6.12353">
        <ele>196.26840209961</ele>
        <time>2014-06-04T13:56:40Z</time>
      </trkpt>
      <trkpt lat="43.43031" lon="6.12369">
        <ele>195.83071899414</ele>
        <time>2014-06-04T13:56:44Z</time>
      </trkpt>
      <trkpt lat="43.43032" lon="6.12373">
        <ele>195.72772216797</ele>
        <time>2014-06-04T13:56:45Z</time>
      </trkpt>
      <trkpt lat="43.43033" lon="6.12376">
        <ele>195.65734863281</ele>
        <time>2014-06-04T13:56:46Z</time>
      </trkpt>
      <trkpt lat="43.43034" lon="6.12383">
        <ele>195.45135498047</ele>
        <time>2014-06-04T13:56:48Z</time>
      </trkpt>
      <trkpt lat="43.43035" lon="6.12385">
        <ele>195.4049987793</ele>
        <time>2014-06-04T13:56:49Z</time>
      </trkpt>
      <trkpt lat="43.43036" lon="6.12386">
        <ele>195.36723327637</ele>
        <time>2014-06-04T13:56:50Z</time>
      </trkpt>
      <trkpt lat="43.43036" lon="6.12387">
        <ele>195.37582397461</ele>
        <time>2014-06-04T13:56:54Z</time>
      </trkpt>
      <trkpt lat="43.43035" lon="6.12387">
        <ele>195.33633422852</ele>
        <time>2014-06-04T13:56:58Z</time>
      </trkpt>
      <trkpt lat="43.43035" lon="6.12387">
        <ele>195.33633422852</ele>
        <time>2014-06-04T13:57:01Z</time>
      </trkpt>
      <trkpt lat="43.43034" lon="6.12386">
        <ele>195.32946777344</ele>
        <time>2014-06-04T13:57:02Z</time>
      </trkpt>
      <trkpt lat="43.43032" lon="6.12384">
        <ele>195.31916809082</ele>
        <time>2014-06-04T13:57:05Z</time>
      </trkpt>
      <trkpt lat="43.43031" lon="6.12384">
        <ele>195.31573486328</ele>
        <time>2014-06-04T13:57:10Z</time>
      </trkpt>
      <trkpt lat="43.4303" lon="6.12382">
        <ele>195.33976745606</ele>
        <time>2014-06-04T13:57:15Z</time>
      </trkpt>
      <trkpt lat="43.43029" lon="6.12381">
        <ele>195.31744384766</ele>
        <time>2014-06-04T13:57:16Z</time>
      </trkpt>
      <trkpt lat="43.43026" lon="6.12382">
        <ele>195.16638183594</ele>
        <time>2014-06-04T13:57:19Z</time>
      </trkpt>
      <trkpt lat="43.43021" lon="6.12383">
        <ele>194.99816894531</ele>
        <time>2014-06-04T13:57:21Z</time>
      </trkpt>
      <trkpt lat="43.43016" lon="6.12383">
        <ele>194.76812744141</ele>
        <time>2014-06-04T13:57:24Z</time>
      </trkpt>
      <trkpt lat="43.43011" lon="6.12381">
        <ele>194.6668548584</ele>
        <time>2014-06-04T13:57:27Z</time>
      </trkpt>
      <trkpt lat="43.43009" lon="6.12378">
        <ele>194.69775390625</ele>
        <time>2014-06-04T13:57:29Z</time>
      </trkpt>
      <trkpt lat="43.43008" lon="6.12377">
        <ele>194.73379516602</ele>
        <time>2014-06-04T13:57:30Z</time>
      </trkpt>
      <trkpt lat="43.43007" lon="6.12372">
        <ele>194.84024047852</ele>
        <time>2014-06-04T13:57:33Z</time>
      </trkpt>
      <trkpt lat="43.43006" lon="6.12371">
        <ele>194.85739135742</ele>
        <time>2014-06-04T13:57:35Z</time>
      </trkpt>
      <trkpt lat="43.43004" lon="6.12369">
        <ele>194.88143920898</ele>
        <time>2014-06-04T13:57:38Z</time>
      </trkpt>
      <trkpt lat="43.43001" lon="6.1236">
        <ele>195.08706665039</ele>
        <time>2014-06-04T13:57:42Z</time>
      </trkpt>
      <trkpt lat="43.42997" lon="6.1235">
        <ele>195.8283996582</ele>
        <time>2014-06-04T13:57:45Z</time>
      </trkpt>
      <trkpt lat="43.42993" lon="6.12341">
        <ele>196.43608093262</ele>
        <time>2014-06-04T13:57:47Z</time>
      </trkpt>
      <trkpt lat="43.42984" lon="6.12319">
        <ele>197.52313232422</ele>
        <time>2014-06-04T13:57:53Z</time>
      </trkpt>
      <trkpt lat="43.42974" lon="6.12299">
        <ele>198.22694396973</ele>
        <time>2014-06-04T13:57:59Z</time>
      </trkpt>
      <trkpt lat="43.42966" lon="6.12296">
        <ele>198.80996704102</ele>
        <time>2014-06-04T13:58:03Z</time>
      </trkpt>
      <trkpt lat="43.42955" lon="6.12302">
        <ele>199.37817382812</ele>
        <time>2014-06-04T13:58:08Z</time>
      </trkpt>
      <trkpt lat="43.42952" lon="6.12303">
        <ele>199.51205444336</ele>
        <time>2014-06-04T13:58:09Z</time>
      </trkpt>
      <trkpt lat="43.42939" lon="6.12305">
        <ele>200.23428344727</ele>
        <time>2014-06-04T13:58:15Z</time>
      </trkpt>
      <trkpt lat="43.42931" lon="6.12302">
        <ele>200.60507202148</ele>
        <time>2014-06-04T13:58:19Z</time>
      </trkpt>
      <trkpt lat="43.4293" lon="6.12301">
        <ele>200.69090270996</ele>
        <time>2014-06-04T13:58:20Z</time>
      </trkpt>
      <trkpt lat="43.42926" lon="6.12298">
        <ele>200.9192199707</ele>
        <time>2014-06-04T13:58:22Z</time>
      </trkpt>
      <trkpt lat="43.42924" lon="6.12297">
        <ele>201.03079223633</ele>
        <time>2014-06-04T13:58:23Z</time>
      </trkpt>
      <trkpt lat="43.42918" lon="6.12292">
        <ele>201.4153137207</ele>
        <time>2014-06-04T13:58:26Z</time>
      </trkpt>
      <trkpt lat="43.42905" lon="6.12292">
        <ele>201.90969848633</ele>
        <time>2014-06-04T13:58:31Z</time>
      </trkpt>
      <trkpt lat="43.42893" lon="6.12301">
        <ele>202.01956176758</ele>
        <time>2014-06-04T13:58:35Z</time>
      </trkpt>
      <trkpt lat="43.42877" lon="6.1232">
        <ele>201.61022949219</ele>
        <time>2014-06-04T13:58:41Z</time>
      </trkpt>
      <trkpt lat="43.42875" lon="6.12322">
        <ele>201.60458374023</ele>
        <time>2014-06-04T13:58:42Z</time>
      </trkpt>
      <trkpt lat="43.42872" lon="6.12324">
        <ele>201.68389892578</ele>
        <time>2014-06-04T13:58:43Z</time>
      </trkpt>
      <trkpt lat="43.4287" lon="6.12327">
        <ele>201.6866607666</ele>
        <time>2014-06-04T13:58:44Z</time>
      </trkpt>
      <trkpt lat="43.42868" lon="6.1233">
        <ele>201.67852783203</ele>
        <time>2014-06-04T13:58:45Z</time>
      </trkpt>
      <trkpt lat="43.42863" lon="6.12337">
        <ele>201.55850219727</ele>
        <time>2014-06-04T13:58:47Z</time>
      </trkpt>
      <trkpt lat="43.42856" lon="6.12347">
        <ele>201.39367675781</ele>
        <time>2014-06-04T13:58:49Z</time>
      </trkpt>
      <trkpt lat="43.42852" lon="6.12351">
        <ele>201.35934448242</ele>
        <time>2014-06-04T13:58:50Z</time>
      </trkpt>
      <trkpt lat="43.4285" lon="6.12355">
        <ele>201.24604797363</ele>
        <time>2014-06-04T13:58:51Z</time>
      </trkpt>
      <trkpt lat="43.42843" lon="6.12365">
        <ele>200.94352722168</ele>
        <time>2014-06-04T13:58:54Z</time>
      </trkpt>
      <trkpt lat="43.42842" lon="6.12369">
        <ele>200.75315856934</ele>
        <time>2014-06-04T13:58:55Z</time>
      </trkpt>
      <trkpt lat="43.4284" lon="6.12372">
        <ele>200.62763977051</ele>
        <time>2014-06-04T13:58:56Z</time>
      </trkpt>
      <trkpt lat="43.42839" lon="6.12375">
        <ele>200.49557495117</ele>
        <time>2014-06-04T13:58:57Z</time>
      </trkpt>
      <trkpt lat="43.42836" lon="6.12386">
        <ele>199.99580383301</ele>
        <time>2014-06-04T13:59:01Z</time>
      </trkpt>
      <trkpt lat="43.42835" lon="6.12389">
        <ele>199.84220886231</ele>
        <time>2014-06-04T13:59:03Z</time>
      </trkpt>
      <trkpt lat="43.42835" lon="6.12389">
        <ele>199.81526184082</ele>
        <time>2014-06-04T13:59:04Z</time>
      </trkpt>
      <trkpt lat="43.42835" lon="6.12389">
        <ele>199.81526184082</ele>
        <time>2014-06-04T13:59:18Z</time>
      </trkpt>
      <trkpt lat="43.42835" lon="6.12391">
        <ele>199.49739074707</ele>
        <time>2014-06-04T13:59:24Z</time>
      </trkpt>
      <trkpt lat="43.42833" lon="6.12399">
        <ele>198.19659423828</ele>
        <time>2014-06-04T13:59:26Z</time>
      </trkpt>
      <trkpt lat="43.42831" lon="6.12406">
        <ele>197.14895629883</ele>
        <time>2014-06-04T13:59:29Z</time>
      </trkpt>
      <trkpt lat="43.4283" lon="6.12408">
        <ele>196.84283447266</ele>
        <time>2014-06-04T13:59:30Z</time>
      </trkpt>
      <trkpt lat="43.42828" lon="6.1241">
        <ele>196.54696655273</ele>
        <time>2014-06-04T13:59:32Z</time>
      </trkpt>
      <trkpt lat="43.42827" lon="6.12411">
        <ele>196.56323242188</ele>
        <time>2014-06-04T13:59:33Z</time>
      </trkpt>
      <trkpt lat="43.42826" lon="6.12413">
        <ele>196.21195983887</ele>
        <time>2014-06-04T13:59:37Z</time>
      </trkpt>
      <trkpt lat="43.42817" lon="6.12425">
        <ele>194.63278198242</ele>
        <time>2014-06-04T13:59:43Z</time>
      </trkpt>
      <trkpt lat="43.42809" lon="6.12436">
        <ele>193.21658325195</ele>
        <time>2014-06-04T13:59:46Z</time>
      </trkpt>
      <trkpt lat="43.42806" lon="6.1244">
        <ele>192.74794006348</ele>
        <time>2014-06-04T13:59:47Z</time>
      </trkpt>
      <trkpt lat="43.42796" lon="6.12452">
        <ele>192.2724609375</ele>
        <time>2014-06-04T13:59:50Z</time>
      </trkpt>
      <trkpt lat="43.42787" lon="6.12458">
        <ele>191.8546295166</ele>
        <time>2014-06-04T13:59:52Z</time>
      </trkpt>
      <trkpt lat="43.42766" lon="6.12472">
        <ele>189.99644470215</ele>
        <time>2014-06-04T13:59:57Z</time>
      </trkpt>
      <trkpt lat="43.42762" lon="6.12473">
        <ele>190.14886474609</ele>
        <time>2014-06-04T13:59:58Z</time>
      </trkpt>
      <trkpt lat="43.42757" lon="6.12474">
        <ele>190.37409973144</ele>
        <time>2014-06-04T13:59:59Z</time>
      </trkpt>
      <trkpt lat="43.42733" lon="6.12478">
        <ele>191.53463745117</ele>
        <time>2014-06-04T14:00:05Z</time>
      </trkpt>
      <trkpt lat="43.42708" lon="6.12478">
        <ele>191.76721191406</ele>
        <time>2014-06-04T14:00:12Z</time>
      </trkpt>
      <trkpt lat="43.42689" lon="6.12477">
        <ele>191.54158020019</ele>
        <time>2014-06-04T14:00:17Z</time>
      </trkpt>
      <trkpt lat="43.42685" lon="6.12476">
        <ele>191.59605407715</ele>
        <time>2014-06-04T14:00:18Z</time>
      </trkpt>
      <trkpt lat="43.4266" lon="6.12471">
        <ele>192.01701354981</ele>
        <time>2014-06-04T14:00:25Z</time>
      </trkpt>
      <trkpt lat="43.42645" lon="6.12462">
        <ele>193.11711120606</ele>
        <time>2014-06-04T14:00:29Z</time>
      </trkpt>
      <trkpt lat="43.42641" lon="6.12458">
        <ele>193.59312438965</ele>
        <time>2014-06-04T14:00:30Z</time>
      </trkpt>
      <trkpt lat="43.42632" lon="6.12448">
        <ele>194.75173950195</ele>
        <time>2014-06-04T14:00:33Z</time>
      </trkpt>
      <trkpt lat="43.42623" lon="6.12434">
        <ele>195.18818664551</ele>
        <time>2014-06-04T14:00:36Z</time>
      </trkpt>
      <trkpt lat="43.42603" lon="6.12405">
        <ele>195.81399536133</ele>
        <time>2014-06-04T14:00:42Z</time>
      </trkpt>
      <trkpt lat="43.42586" lon="6.12379">
        <ele>197.38935852051</ele>
        <time>2014-06-04T14:00:47Z</time>
      </trkpt>
      <trkpt lat="43.42579" lon="6.12368">
        <ele>197.0866394043</ele>
        <time>2014-06-04T14:00:49Z</time>
      </trkpt>
      <trkpt lat="43.42576" lon="6.12361">
        <ele>196.54193115234</ele>
        <time>2014-06-04T14:00:50Z</time>
      </trkpt>
      <trkpt lat="43.42555" lon="6.12316">
        <ele>198.45626831055</ele>
        <time>2014-06-04T14:00:57Z</time>
      </trkpt>
      <trkpt lat="43.42532" lon="6.12262">
        <ele>199.45346069336</ele>
        <time>2014-06-04T14:01:05Z</time>
      </trkpt>
      <trkpt lat="43.42519" lon="6.12232">
        <ele>200.28070068359</ele>
        <time>2014-06-04T14:01:10Z</time>
      </trkpt>
      <trkpt lat="43.42514" lon="6.12221">
        <ele>200.75938415527</ele>
        <time>2014-06-04T14:01:12Z</time>
      </trkpt>
      <trkpt lat="43.42512" lon="6.12216">
        <ele>200.69915771484</ele>
        <time>2014-06-04T14:01:13Z</time>
      </trkpt>
      <trkpt lat="43.42502" lon="6.12193">
        <ele>199.90165710449</ele>
        <time>2014-06-04T14:01:17Z</time>
      </trkpt>
      <trkpt lat="43.425" lon="6.12188">
        <ele>200.24589538574</ele>
        <time>2014-06-04T14:01:18Z</time>
      </trkpt>
      <trkpt lat="43.42486" lon="6.12161">
        <ele>201.86604309082</ele>
        <time>2014-06-04T14:01:23Z</time>
      </trkpt>
      <trkpt lat="43.42479" lon="6.12151">
        <ele>200.77764892578</ele>
        <time>2014-06-04T14:01:25Z</time>
      </trkpt>
      <trkpt lat="43.42464" lon="6.12133">
        <ele>198.16589355469</ele>
        <time>2014-06-04T14:01:29Z</time>
      </trkpt>
      <trkpt lat="43.42446" lon="6.12113">
        <ele>197.02099609375</ele>
        <time>2014-06-04T14:01:34Z</time>
      </trkpt>
      <trkpt lat="43.42428" lon="6.12088">
        <ele>195.93321228027</ele>
        <time>2014-06-04T14:01:40Z</time>
      </trkpt>
      <trkpt lat="43.42426" lon="6.12083">
        <ele>195.96449279785</ele>
        <time>2014-06-04T14:01:41Z</time>
      </trkpt>
      <trkpt lat="43.42415" lon="6.12065">
        <ele>195.5749206543</ele>
        <time>2014-06-04T14:01:45Z</time>
      </trkpt>
      <trkpt lat="43.42398" lon="6.12022">
        <ele>195.82727050781</ele>
        <time>2014-06-04T14:01:53Z</time>
      </trkpt>
      <trkpt lat="43.42387" lon="6.1198">
        <ele>196.65542602539</ele>
        <time>2014-06-04T14:02:01Z</time>
      </trkpt>
      <trkpt lat="43.42365" lon="6.11893">
        <ele>198.97113037109</ele>
        <time>2014-06-04T14:02:16Z</time>
      </trkpt>
      <trkpt lat="43.42359" lon="6.1187">
        <ele>199.58395385742</ele>
        <time>2014-06-04T14:02:20Z</time>
      </trkpt>
      <trkpt lat="43.4235" lon="6.11838">
        <ele>199.92758178711</ele>
        <time>2014-06-04T14:02:26Z</time>
      </trkpt>
      <trkpt lat="43.42346" lon="6.11828">
        <ele>201.15950012207</ele>
        <time>2014-06-04T14:02:28Z</time>
      </trkpt>
      <trkpt lat="43.42344" lon="6.11823">
        <ele>202.22564697266</ele>
        <time>2014-06-04T14:02:29Z</time>
      </trkpt>
      <trkpt lat="43.42341" lon="6.11818">
        <ele>203.17358398438</ele>
        <time>2014-06-04T14:02:30Z</time>
      </trkpt>
      <trkpt lat="43.42339" lon="6.11812">
        <ele>204.0792388916</ele>
        <time>2014-06-04T14:02:31Z</time>
      </trkpt>
      <trkpt lat="43.42333" lon="6.11802">
        <ele>206.41227722168</ele>
        <time>2014-06-04T14:02:33Z</time>
      </trkpt>
      <trkpt lat="43.42317" lon="6.11776">
        <ele>212.51467895508</ele>
        <time>2014-06-04T14:02:38Z</time>
      </trkpt>
      <trkpt lat="43.42313" lon="6.11772">
        <ele>213.46638488769</ele>
        <time>2014-06-04T14:02:39Z</time>
      </trkpt>
      <trkpt lat="43.42288" lon="6.11739">
        <ele>219.75765991211</ele>
        <time>2014-06-04T14:02:45Z</time>
      </trkpt>
      <trkpt lat="43.42265" lon="6.11709">
        <ele>221.16595458984</ele>
        <time>2014-06-04T14:02:51Z</time>
      </trkpt>
      <trkpt lat="43.42261" lon="6.11705">
        <ele>221.47782897949</ele>
        <time>2014-06-04T14:02:52Z</time>
      </trkpt>
      <trkpt lat="43.4224" lon="6.11677">
        <ele>219.85623168945</ele>
        <time>2014-06-04T14:02:58Z</time>
      </trkpt>
      <trkpt lat="43.42218" lon="6.11643">
        <ele>214.29667663574</ele>
        <time>2014-06-04T14:03:05Z</time>
      </trkpt>
      <trkpt lat="43.42206" lon="6.11624">
        <ele>212.4345703125</ele>
        <time>2014-06-04T14:03:09Z</time>
      </trkpt>
      <trkpt lat="43.42196" lon="6.11605">
        <ele>211.06703186035</ele>
        <time>2014-06-04T14:03:13Z</time>
      </trkpt>
      <trkpt lat="43.42147" lon="6.11521">
        <ele>202.93821716309</ele>
        <time>2014-06-04T14:03:30Z</time>
      </trkpt>
      <trkpt lat="43.42131" lon="6.11491">
        <ele>202.08602905273</ele>
        <time>2014-06-04T14:03:36Z</time>
      </trkpt>
      <trkpt lat="43.4211" lon="6.11455">
        <ele>201.72174072266</ele>
        <time>2014-06-04T14:03:43Z</time>
      </trkpt>
      <trkpt lat="43.42097" lon="6.11435">
        <ele>201.37411499023</ele>
        <time>2014-06-04T14:03:47Z</time>
      </trkpt>
      <trkpt lat="43.42092" lon="6.11427">
        <ele>200.5860748291</ele>
        <time>2014-06-04T14:03:49Z</time>
      </trkpt>
      <trkpt lat="43.42082" lon="6.11413">
        <ele>198.97422790527</ele>
        <time>2014-06-04T14:03:54Z</time>
      </trkpt>
      <trkpt lat="43.42079" lon="6.11416">
        <ele>198.35968017578</ele>
        <time>2014-06-04T14:03:55Z</time>
      </trkpt>
      <trkpt lat="43.42075" lon="6.1142">
        <ele>197.72779846191</ele>
        <time>2014-06-04T14:03:56Z</time>
      </trkpt>
      <trkpt lat="43.42068" lon="6.11442">
        <ele>195.80072021484</ele>
        <time>2014-06-04T14:04:00Z</time>
      </trkpt>
      <trkpt lat="43.42065" lon="6.11455">
        <ele>194.84042358398</ele>
        <time>2014-06-04T14:04:02Z</time>
      </trkpt>
      <trkpt lat="43.4206" lon="6.11463">
        <ele>193.87037658691</ele>
        <time>2014-06-04T14:04:04Z</time>
      </trkpt>
      <trkpt lat="43.42046" lon="6.11479">
        <ele>193</ele>
        <time>2014-06-04T14:04:08Z</time>
      </trkpt>
      <trkpt lat="43.42043" lon="6.11483">
        <ele>193</ele>
        <time>2014-06-04T14:04:09Z</time>
      </trkpt>
      <trkpt lat="43.42024" lon="6.11498">
        <ele>193</ele>
        <time>2014-06-04T14:04:14Z</time>
      </trkpt>
      <trkpt lat="43.42002" lon="6.11517">
        <ele>193.57037353516</ele>
        <time>2014-06-04T14:04:20Z</time>
      </trkpt>
      <trkpt lat="43.41996" lon="6.11533">
        <ele>194.92556762695</ele>
        <time>2014-06-04T14:04:24Z</time>
      </trkpt>
      <trkpt lat="43.41997" lon="6.11557">
        <ele>195.64482116699</ele>
        <time>2014-06-04T14:04:28Z</time>
      </trkpt>
      <trkpt lat="43.41997" lon="6.11562">
        <ele>195.82678222656</ele>
        <time>2014-06-04T14:04:29Z</time>
      </trkpt>
      <trkpt lat="43.42001" lon="6.11593">
        <ele>196.28175354004</ele>
        <time>2014-06-04T14:04:34Z</time>
      </trkpt>
      <trkpt lat="43.42006" lon="6.11634">
        <ele>196.95658874512</ele>
        <time>2014-06-04T14:04:41Z</time>
      </trkpt>
      <trkpt lat="43.42011" lon="6.11678">
        <ele>198.19515991211</ele>
        <time>2014-06-04T14:04:49Z</time>
      </trkpt>
      <trkpt lat="43.4201" lon="6.11698">
        <ele>198.83409118652</ele>
        <time>2014-06-04T14:04:53Z</time>
      </trkpt>
      <trkpt lat="43.4201" lon="6.11704">
        <ele>199.24951171875</ele>
        <time>2014-06-04T14:04:54Z</time>
      </trkpt>
      <trkpt lat="43.42011" lon="6.11737">
        <ele>200.68788146973</ele>
        <time>2014-06-04T14:05:00Z</time>
      </trkpt>
      <trkpt lat="43.42013" lon="6.11772">
        <ele>200.69836425781</ele>
        <time>2014-06-04T14:05:06Z</time>
      </trkpt>
      <trkpt lat="43.42013" lon="6.118">
        <ele>202.30545043945</ele>
        <time>2014-06-04T14:05:11Z</time>
      </trkpt>
      <trkpt lat="43.42013" lon="6.11812">
        <ele>202.87446594238</ele>
        <time>2014-06-04T14:05:13Z</time>
      </trkpt>
      <trkpt lat="43.42012" lon="6.1184">
        <ele>203.83853149414</ele>
        <time>2014-06-04T14:05:18Z</time>
      </trkpt>
      <trkpt lat="43.4201" lon="6.11873">
        <ele>203.732421875</ele>
        <time>2014-06-04T14:05:24Z</time>
      </trkpt>
      <trkpt lat="43.42007" lon="6.11909">
        <ele>204.47399902344</ele>
        <time>2014-06-04T14:05:31Z</time>
      </trkpt>
      <trkpt lat="43.42004" lon="6.11941">
        <ele>204.51995849609</ele>
        <time>2014-06-04T14:05:37Z</time>
      </trkpt>
      <trkpt lat="43.41999" lon="6.1196">
        <ele>203.9528503418</ele>
        <time>2014-06-04T14:05:41Z</time>
      </trkpt>
      <trkpt lat="43.41996" lon="6.1196">
        <ele>204.17601013184</ele>
        <time>2014-06-04T14:05:42Z</time>
      </trkpt>
      <trkpt lat="43.41986" lon="6.11956">
        <ele>205.17164611816</ele>
        <time>2014-06-04T14:05:46Z</time>
      </trkpt>
      <trkpt lat="43.41978" lon="6.11953">
        <ele>205.98532104492</ele>
        <time>2014-06-04T14:05:50Z</time>
      </trkpt>
      <trkpt lat="43.41975" lon="6.11952">
        <ele>206.19818115234</ele>
        <time>2014-06-04T14:05:51Z</time>
      </trkpt>
      <trkpt lat="43.41973" lon="6.11953">
        <ele>206.37327575684</ele>
        <time>2014-06-04T14:05:53Z</time>
      </trkpt>
      <trkpt lat="43.41972" lon="6.11952">
        <ele>206.43586730957</ele>
        <time>2014-06-04T14:05:54Z</time>
      </trkpt>
      <trkpt lat="43.4197" lon="6.11952">
        <ele>206.59609985352</ele>
        <time>2014-06-04T14:05:55Z</time>
      </trkpt>
      <trkpt lat="43.41957" lon="6.11943">
        <ele>208.29641723633</ele>
        <time>2014-06-04T14:06:03Z</time>
      </trkpt>
      <trkpt lat="43.41954" lon="6.11942">
        <ele>208.72213745117</ele>
        <time>2014-06-04T14:06:04Z</time>
      </trkpt>
      <trkpt lat="43.41951" lon="6.11941">
        <ele>208.9967956543</ele>
        <time>2014-06-04T14:06:05Z</time>
      </trkpt>
      <trkpt lat="43.41944" lon="6.11944">
        <ele>209.13696289062</ele>
        <time>2014-06-04T14:06:07Z</time>
      </trkpt>
      <trkpt lat="43.41936" lon="6.11939">
        <ele>210.09094238281</ele>
        <time>2014-06-04T14:06:11Z</time>
      </trkpt>
      <trkpt lat="43.41927" lon="6.11935">
        <ele>211.14077758789</ele>
        <time>2014-06-04T14:06:14Z</time>
      </trkpt>
      <trkpt lat="43.41922" lon="6.11933">
        <ele>211.88415527344</ele>
        <time>2014-06-04T14:06:16Z</time>
      </trkpt>
      <trkpt lat="43.4192" lon="6.11931">
        <ele>212.1969909668</ele>
        <time>2014-06-04T14:06:17Z</time>
      </trkpt>
      <trkpt lat="43.41918" lon="6.11929">
        <ele>212.61242675781</ele>
        <time>2014-06-04T14:06:18Z</time>
      </trkpt>
      <trkpt lat="43.41911" lon="6.11926">
        <ele>213.39219665527</ele>
        <time>2014-06-04T14:06:21Z</time>
      </trkpt>
      <trkpt lat="43.41907" lon="6.11923">
        <ele>214.01666259766</ele>
        <time>2014-06-04T14:06:24Z</time>
      </trkpt>
      <trkpt lat="43.41899" lon="6.11914">
        <ele>215.3454284668</ele>
        <time>2014-06-04T14:06:30Z</time>
      </trkpt>
      <trkpt lat="43.41895" lon="6.1191">
        <ele>215.91648864746</ele>
        <time>2014-06-04T14:06:34Z</time>
      </trkpt>
      <trkpt lat="43.41887" lon="6.11902">
        <ele>216.85388183594</ele>
        <time>2014-06-04T14:06:40Z</time>
      </trkpt>
      <trkpt lat="43.41885" lon="6.119">
        <ele>216.93333435059</ele>
        <time>2014-06-04T14:06:43Z</time>
      </trkpt>
      <trkpt lat="43.41882" lon="6.11898">
        <ele>216.81866455078</ele>
        <time>2014-06-04T14:06:46Z</time>
      </trkpt>
      <trkpt lat="43.41878" lon="6.11894">
        <ele>216.84696960449</ele>
        <time>2014-06-04T14:06:50Z</time>
      </trkpt>
      <trkpt lat="43.41874" lon="6.1189">
        <ele>216.6872253418</ele>
        <time>2014-06-04T14:06:54Z</time>
      </trkpt>
      <trkpt lat="43.41869" lon="6.11884">
        <ele>216.58714294434</ele>
        <time>2014-06-04T14:06:59Z</time>
      </trkpt>
      <trkpt lat="43.41864" lon="6.11879">
        <ele>216.7008972168</ele>
        <time>2014-06-04T14:07:04Z</time>
      </trkpt>
      <trkpt lat="43.41862" lon="6.11876">
        <ele>216.88108825684</ele>
        <time>2014-06-04T14:07:06Z</time>
      </trkpt>
      <trkpt lat="43.41854" lon="6.11865">
        <ele>217.48526000977</ele>
        <time>2014-06-04T14:07:14Z</time>
      </trkpt>
      <trkpt lat="43.41838" lon="6.11835">
        <ele>218.24676513672</ele>
        <time>2014-06-04T14:07:31Z</time>
      </trkpt>
      <trkpt lat="43.41829" lon="6.11823">
        <ele>218.25526428223</ele>
        <time>2014-06-04T14:07:39Z</time>
      </trkpt>
      <trkpt lat="43.41817" lon="6.11809">
        <ele>217.56039428711</ele>
        <time>2014-06-04T14:07:48Z</time>
      </trkpt>
      <trkpt lat="43.41812" lon="6.11804">
        <ele>216.99221801758</ele>
        <time>2014-06-04T14:07:52Z</time>
      </trkpt>
      <trkpt lat="43.41811" lon="6.11802">
        <ele>216.93382263184</ele>
        <time>2014-06-04T14:07:53Z</time>
      </trkpt>
      <trkpt lat="43.41806" lon="6.11792">
        <ele>216.99449157715</ele>
        <time>2014-06-04T14:07:58Z</time>
      </trkpt>
      <trkpt lat="43.41804" lon="6.11788">
        <ele>217.23741149902</ele>
        <time>2014-06-04T14:08:01Z</time>
      </trkpt>
      <trkpt lat="43.41802" lon="6.11783">
        <ele>217.48803710938</ele>
        <time>2014-06-04T14:08:05Z</time>
      </trkpt>
      <trkpt lat="43.41802" lon="6.11783">
        <ele>217.47430419922</ele>
        <time>2014-06-04T14:08:08Z</time>
      </trkpt>
      <trkpt lat="43.41802" lon="6.11783">
        <ele>217.47430419922</ele>
        <time>2014-06-04T14:08:13Z</time>
      </trkpt>
      <trkpt lat="43.41802" lon="6.11783">
        <ele>217.47430419922</ele>
        <time>2014-06-04T14:08:19Z</time>
      </trkpt>
      <trkpt lat="43.418" lon="6.11774">
        <ele>218.02841186523</ele>
        <time>2014-06-04T14:08:24Z</time>
      </trkpt>
      <trkpt lat="43.418" lon="6.11771">
        <ele>218.22428894043</ele>
        <time>2014-06-04T14:08:25Z</time>
      </trkpt>
      <trkpt lat="43.41795" lon="6.11755">
        <ele>218.96078491211</ele>
        <time>2014-06-04T14:08:31Z</time>
      </trkpt>
      <trkpt lat="43.41784" lon="6.11736">
        <ele>218.82698059082</ele>
        <time>2014-06-04T14:08:37Z</time>
      </trkpt>
      <trkpt lat="43.41772" lon="6.11721">
        <ele>218.83917236328</ele>
        <time>2014-06-04T14:08:43Z</time>
      </trkpt>
      <trkpt lat="43.41761" lon="6.11705">
        <ele>219.02114868164</ele>
        <time>2014-06-04T14:08:48Z</time>
      </trkpt>
      <trkpt lat="43.41758" lon="6.11686">
        <ele>219.51574707031</ele>
        <time>2014-06-04T14:08:54Z</time>
      </trkpt>
      <trkpt lat="43.41758" lon="6.11678">
        <ele>219.71388244629</ele>
        <time>2014-06-04T14:08:57Z</time>
      </trkpt>
      <trkpt lat="43.4176" lon="6.11674">
        <ele>219.82377624512</ele>
        <time>2014-06-04T14:08:59Z</time>
      </trkpt>
      <trkpt lat="43.41762" lon="6.11669">
        <ele>219.95727539062</ele>
        <time>2014-06-04T14:09:02Z</time>
      </trkpt>
      <trkpt lat="43.41764" lon="6.11664">
        <ele>220.04460144043</ele>
        <time>2014-06-04T14:09:05Z</time>
      </trkpt>
      <trkpt lat="43.41765" lon="6.11663">
        <ele>220.07398986816</ele>
        <time>2014-06-04T14:09:06Z</time>
      </trkpt>
      <trkpt lat="43.41766" lon="6.11662">
        <ele>220.09451293945</ele>
        <time>2014-06-04T14:09:07Z</time>
      </trkpt>
      <trkpt lat="43.41773" lon="6.11661">
        <ele>220.18031311035</ele>
        <time>2014-06-04T14:09:12Z</time>
      </trkpt>
      <trkpt lat="43.41778" lon="6.11663">
        <ele>220.12646484375</ele>
        <time>2014-06-04T14:09:17Z</time>
      </trkpt>
      <trkpt lat="43.4178" lon="6.11663">
        <ele>220.10816955566</ele>
        <time>2014-06-04T14:09:19Z</time>
      </trkpt>
      <trkpt lat="43.41782" lon="6.11663">
        <ele>220.11563110352</ele>
        <time>2014-06-04T14:09:21Z</time>
      </trkpt>
      <trkpt lat="43.41786" lon="6.11661">
        <ele>220.15403747559</ele>
        <time>2014-06-04T14:09:24Z</time>
      </trkpt>
      <trkpt lat="43.41787" lon="6.11658">
        <ele>220.21134948731</ele>
        <time>2014-06-04T14:09:26Z</time>
      </trkpt>
      <trkpt lat="43.41789" lon="6.11655">
        <ele>220.26171875</ele>
        <time>2014-06-04T14:09:28Z</time>
      </trkpt>
      <trkpt lat="43.4179" lon="6.11653">
        <ele>220.29208374023</ele>
        <time>2014-06-04T14:09:29Z</time>
      </trkpt>
      <trkpt lat="43.4179" lon="6.11646">
        <ele>220.42344665527</ele>
        <time>2014-06-04T14:09:31Z</time>
      </trkpt>
      <trkpt lat="43.41792" lon="6.11632">
        <ele>220.50476074219</ele>
        <time>2014-06-04T14:09:36Z</time>
      </trkpt>
      <trkpt lat="43.4179" lon="6.11612">
        <ele>220.54595947266</ele>
        <time>2014-06-04T14:09:42Z</time>
      </trkpt>
      <trkpt lat="43.4179" lon="6.1159">
        <ele>221.00520324707</ele>
        <time>2014-06-04T14:09:50Z</time>
      </trkpt>
      <trkpt lat="43.41788" lon="6.11572">
        <ele>221.38676452637</ele>
        <time>2014-06-04T14:09:57Z</time>
      </trkpt>
      <trkpt lat="43.41787" lon="6.11565">
        <ele>221.54272460938</ele>
        <time>2014-06-04T14:10:00Z</time>
      </trkpt>
      <trkpt lat="43.41787" lon="6.11563">
        <ele>221.59770202637</ele>
        <time>2014-06-04T14:10:01Z</time>
      </trkpt>
      <trkpt lat="43.41785" lon="6.11562">
        <ele>221.69343566894</ele>
        <time>2014-06-04T14:10:02Z</time>
      </trkpt>
      <trkpt lat="43.41782" lon="6.11561">
        <ele>221.8323059082</ele>
        <time>2014-06-04T14:10:03Z</time>
      </trkpt>
      <trkpt lat="43.41778" lon="6.11561">
        <ele>221.98231506348</ele>
        <time>2014-06-04T14:10:04Z</time>
      </trkpt>
      <trkpt lat="43.41767" lon="6.11561">
        <ele>222.39739990234</ele>
        <time>2014-06-04T14:10:07Z</time>
      </trkpt>
      <trkpt lat="43.41754" lon="6.11561">
        <ele>222.8505859375</ele>
        <time>2014-06-04T14:10:10Z</time>
      </trkpt>
      <trkpt lat="43.41747" lon="6.11559">
        <ele>223.65635681152</ele>
        <time>2014-06-04T14:10:12Z</time>
      </trkpt>
      <trkpt lat="43.41739" lon="6.11552">
        <ele>225.54020690918</ele>
        <time>2014-06-04T14:10:15Z</time>
      </trkpt>
      <trkpt lat="43.41735" lon="6.11546">
        <ele>226.63159179688</ele>
        <time>2014-06-04T14:10:17Z</time>
      </trkpt>
      <trkpt lat="43.41727" lon="6.11533">
        <ele>228.82698059082</ele>
        <time>2014-06-04T14:10:23Z</time>
      </trkpt>
      <trkpt lat="43.41719" lon="6.11526">
        <ele>230.94441223144</ele>
        <time>2014-06-04T14:10:29Z</time>
      </trkpt>
      <trkpt lat="43.41715" lon="6.11516">
        <ele>232.62767028809</ele>
        <time>2014-06-04T14:10:34Z</time>
      </trkpt>
      <trkpt lat="43.41712" lon="6.11512">
        <ele>233.60684204102</ele>
        <time>2014-06-04T14:10:38Z</time>
      </trkpt>
      <trkpt lat="43.41712" lon="6.11512">
        <ele>233.70344543457</ele>
        <time>2014-06-04T14:10:41Z</time>
      </trkpt>
      <trkpt lat="43.41711" lon="6.11511">
        <ele>233.8524017334</ele>
        <time>2014-06-04T14:10:47Z</time>
      </trkpt>
      <trkpt lat="43.41711" lon="6.1151">
        <ele>233.88809204102</ele>
        <time>2014-06-04T14:10:49Z</time>
      </trkpt>
      <trkpt lat="43.41709" lon="6.11504">
        <ele>234.77523803711</ele>
        <time>2014-06-04T14:10:54Z</time>
      </trkpt>
      <trkpt lat="43.41708" lon="6.11502">
        <ele>234.93522644043</ele>
        <time>2014-06-04T14:10:56Z</time>
      </trkpt>
      <trkpt lat="43.41708" lon="6.11499">
        <ele>235.04435729981</ele>
        <time>2014-06-04T14:10:58Z</time>
      </trkpt>
      <trkpt lat="43.41708" lon="6.11495">
        <ele>235.40484619141</ele>
        <time>2014-06-04T14:11:02Z</time>
      </trkpt>
      <trkpt lat="43.41708" lon="6.11493">
        <ele>235.54904174805</ele>
        <time>2014-06-04T14:11:05Z</time>
      </trkpt>
      <trkpt lat="43.41711" lon="6.11489">
        <ele>235.25378417969</ele>
        <time>2014-06-04T14:11:11Z</time>
      </trkpt>
      <trkpt lat="43.41712" lon="6.11488">
        <ele>235.14735412598</ele>
        <time>2014-06-04T14:11:17Z</time>
      </trkpt>
      <trkpt lat="43.41712" lon="6.11487">
        <ele>235.15078735352</ele>
        <time>2014-06-04T14:11:25Z</time>
      </trkpt>
      <trkpt lat="43.41716" lon="6.11479">
        <ele>234.92419433594</ele>
        <time>2014-06-04T14:11:30Z</time>
      </trkpt>
      <trkpt lat="43.41718" lon="6.11466">
        <ele>235.20759582519</ele>
        <time>2014-06-04T14:11:36Z</time>
      </trkpt>
      <trkpt lat="43.4172" lon="6.11455">
        <ele>235.09623718262</ele>
        <time>2014-06-04T14:11:42Z</time>
      </trkpt>
      <trkpt lat="43.41718" lon="6.11445">
        <ele>235.83102416992</ele>
        <time>2014-06-04T14:11:46Z</time>
      </trkpt>
      <trkpt lat="43.41717" lon="6.11444">
        <ele>235.94059753418</ele>
        <time>2014-06-04T14:11:47Z</time>
      </trkpt>
      <trkpt lat="43.41717" lon="6.11443">
        <ele>235.94340515137</ele>
        <time>2014-06-04T14:11:50Z</time>
      </trkpt>
      <trkpt lat="43.41717" lon="6.11443">
        <ele>235.94340515137</ele>
        <time>2014-06-04T14:11:51Z</time>
      </trkpt>
      <trkpt lat="43.41717" lon="6.11443">
        <ele>235.96165466309</ele>
        <time>2014-06-04T14:11:52Z</time>
      </trkpt>
      <trkpt lat="43.41718" lon="6.1144">
        <ele>235.97938537598</ele>
        <time>2014-06-04T14:11:55Z</time>
      </trkpt>
      <trkpt lat="43.41718" lon="6.11437">
        <ele>236.07496643066</ele>
        <time>2014-06-04T14:12:00Z</time>
      </trkpt>
      <trkpt lat="43.41718" lon="6.11432">
        <ele>236.20907592773</ele>
        <time>2014-06-04T14:12:06Z</time>
      </trkpt>
      <trkpt lat="43.41718" lon="6.11429">
        <ele>236.25953674316</ele>
        <time>2014-06-04T14:12:11Z</time>
      </trkpt>
      <trkpt lat="43.41719" lon="6.11422">
        <ele>236.33708190918</ele>
        <time>2014-06-04T14:12:14Z</time>
      </trkpt>
      <trkpt lat="43.41719" lon="6.11418">
        <ele>236.47332763672</ele>
        <time>2014-06-04T14:12:16Z</time>
      </trkpt>
      <trkpt lat="43.4172" lon="6.11401">
        <ele>235.30696105957</ele>
        <time>2014-06-04T14:12:22Z</time>
      </trkpt>
      <trkpt lat="43.4172" lon="6.1139">
        <ele>234.55462646484</ele>
        <time>2014-06-04T14:12:26Z</time>
      </trkpt>
      <trkpt lat="43.41721" lon="6.11383">
        <ele>234.09545898438</ele>
        <time>2014-06-04T14:12:28Z</time>
      </trkpt>
      <trkpt lat="43.41723" lon="6.11368">
        <ele>233.13327026367</ele>
        <time>2014-06-04T14:12:32Z</time>
      </trkpt>
      <trkpt lat="43.41725" lon="6.11353">
        <ele>232.02333068848</ele>
        <time>2014-06-04T14:12:35Z</time>
      </trkpt>
      <trkpt lat="43.41725" lon="6.11346">
        <ele>231.58064270019</ele>
        <time>2014-06-04T14:12:38Z</time>
      </trkpt>
      <trkpt lat="43.41723" lon="6.11339">
        <ele>231.26168823242</ele>
        <time>2014-06-04T14:12:42Z</time>
      </trkpt>
      <trkpt lat="43.41723" lon="6.11335">
        <ele>230.99058532715</ele>
        <time>2014-06-04T14:12:44Z</time>
      </trkpt>
      <trkpt lat="43.41723" lon="6.11331">
        <ele>230.79943847656</ele>
        <time>2014-06-04T14:12:48Z</time>
      </trkpt>
      <trkpt lat="43.41723" lon="6.11331">
        <ele>230.79943847656</ele>
        <time>2014-06-04T14:13:05Z</time>
      </trkpt>
      <trkpt lat="43.41723" lon="6.11331">
        <ele>230.80122375488</ele>
        <time>2014-06-04T14:13:29Z</time>
      </trkpt>
      <trkpt lat="43.41723" lon="6.11331">
        <ele>230.80122375488</ele>
        <time>2014-06-04T14:13:35Z</time>
      </trkpt>
      <trkpt lat="43.41723" lon="6.11329">
        <ele>230.71932983398</ele>
        <time>2014-06-04T14:13:44Z</time>
      </trkpt>
      <trkpt lat="43.41724" lon="6.11323">
        <ele>230.37985229492</ele>
        <time>2014-06-04T14:13:47Z</time>
      </trkpt>
      <trkpt lat="43.41725" lon="6.11315">
        <ele>229.95736694336</ele>
        <time>2014-06-04T14:13:50Z</time>
      </trkpt>
      <trkpt lat="43.41728" lon="6.11294">
        <ele>228.41882324219</ele>
        <time>2014-06-04T14:13:57Z</time>
      </trkpt>
      <trkpt lat="43.41729" lon="6.11282">
        <ele>227.56903076172</ele>
        <time>2014-06-04T14:14:01Z</time>
      </trkpt>
      <trkpt lat="43.41729" lon="6.11279">
        <ele>227.31901550293</ele>
        <time>2014-06-04T14:14:02Z</time>
      </trkpt>
      <trkpt lat="43.4173" lon="6.11272">
        <ele>227.13500976562</ele>
        <time>2014-06-04T14:14:04Z</time>
      </trkpt>
      <trkpt lat="43.41731" lon="6.11254">
        <ele>226.80101013184</ele>
        <time>2014-06-04T14:14:09Z</time>
      </trkpt>
      <trkpt lat="43.41731" lon="6.11251">
        <ele>226.70796203613</ele>
        <time>2014-06-04T14:14:10Z</time>
      </trkpt>
      <trkpt lat="43.41731" lon="6.11225">
        <ele>225.26177978516</ele>
        <time>2014-06-04T14:14:17Z</time>
      </trkpt>
      <trkpt lat="43.4173" lon="6.11203">
        <ele>223.95132446289</ele>
        <time>2014-06-04T14:14:24Z</time>
      </trkpt>
      <trkpt lat="43.41732" lon="6.11183">
        <ele>222.86415100098</ele>
        <time>2014-06-04T14:14:31Z</time>
      </trkpt>
      <trkpt lat="43.41731" lon="6.11173">
        <ele>222.57748413086</ele>
        <time>2014-06-04T14:14:35Z</time>
      </trkpt>
      <trkpt lat="43.41732" lon="6.11166">
        <ele>222.29322814941</ele>
        <time>2014-06-04T14:14:39Z</time>
      </trkpt>
      <trkpt lat="43.41732" lon="6.11166">
        <ele>222.29322814941</ele>
        <time>2014-06-04T14:14:40Z</time>
      </trkpt>
      <trkpt lat="43.41731" lon="6.11166">
        <ele>222.3348236084</ele>
        <time>2014-06-04T14:14:44Z</time>
      </trkpt>
      <trkpt lat="43.41731" lon="6.11166">
        <ele>222.3348236084</ele>
        <time>2014-06-04T14:14:53Z</time>
      </trkpt>
      <trkpt lat="43.41731" lon="6.11166">
        <ele>222.3348236084</ele>
        <time>2014-06-04T14:14:59Z</time>
      </trkpt>
      <trkpt lat="43.41732" lon="6.11163">
        <ele>222.13070678711</ele>
        <time>2014-06-04T14:15:05Z</time>
      </trkpt>
      <trkpt lat="43.41732" lon="6.11161">
        <ele>221.96250915527</ele>
        <time>2014-06-04T14:15:06Z</time>
      </trkpt>
      <trkpt lat="43.4173" lon="6.11148">
        <ele>221.30354309082</ele>
        <time>2014-06-04T14:15:09Z</time>
      </trkpt>
      <trkpt lat="43.4173" lon="6.11139">
        <ele>220.73414611816</ele>
        <time>2014-06-04T14:15:11Z</time>
      </trkpt>
      <trkpt lat="43.4173" lon="6.11125">
        <ele>220.07426452637</ele>
        <time>2014-06-04T14:15:14Z</time>
      </trkpt>
      <trkpt lat="43.4173" lon="6.11119">
        <ele>219.77639770508</ele>
        <time>2014-06-04T14:15:15Z</time>
      </trkpt>
      <trkpt lat="43.41731" lon="6.11113">
        <ele>219.45790100098</ele>
        <time>2014-06-04T14:15:16Z</time>
      </trkpt>
      <trkpt lat="43.41731" lon="6.11106">
        <ele>218.92485046387</ele>
        <time>2014-06-04T14:15:17Z</time>
      </trkpt>
      <trkpt lat="43.41731" lon="6.111">
        <ele>218.26956176758</ele>
        <time>2014-06-04T14:15:18Z</time>
      </trkpt>
      <trkpt lat="43.4173" lon="6.11085">
        <ele>216.88595581055</ele>
        <time>2014-06-04T14:15:20Z</time>
      </trkpt>
      <trkpt lat="43.4173" lon="6.11078">
        <ele>216.13375854492</ele>
        <time>2014-06-04T14:15:21Z</time>
      </trkpt>
      <trkpt lat="43.4173" lon="6.11071">
        <ele>215.38702392578</ele>
        <time>2014-06-04T14:15:22Z</time>
      </trkpt>
      <trkpt lat="43.41731" lon="6.11065">
        <ele>214.67807006836</ele>
        <time>2014-06-04T14:15:23Z</time>
      </trkpt>
      <trkpt lat="43.41731" lon="6.11058">
        <ele>213.97253417969</ele>
        <time>2014-06-04T14:15:24Z</time>
      </trkpt>
      <trkpt lat="43.41732" lon="6.11039">
        <ele>212.50106811523</ele>
        <time>2014-06-04T14:15:27Z</time>
      </trkpt>
      <trkpt lat="43.41731" lon="6.11034">
        <ele>212.09938049316</ele>
        <time>2014-06-04T14:15:28Z</time>
      </trkpt>
      <trkpt lat="43.41732" lon="6.11021">
        <ele>210.88185119629</ele>
        <time>2014-06-04T14:15:31Z</time>
      </trkpt>
      <trkpt lat="43.41732" lon="6.11018">
        <ele>210.55740356445</ele>
        <time>2014-06-04T14:15:32Z</time>
      </trkpt>
      <trkpt lat="43.41732" lon="6.11015">
        <ele>210.29476928711</ele>
        <time>2014-06-04T14:15:33Z</time>
      </trkpt>
      <trkpt lat="43.41732" lon="6.11013">
        <ele>210.02526855469</ele>
        <time>2014-06-04T14:15:34Z</time>
      </trkpt>
      <trkpt lat="43.41732" lon="6.11011">
        <ele>209.82441711426</ele>
        <time>2014-06-04T14:15:35Z</time>
      </trkpt>
      <trkpt lat="43.41733" lon="6.11009">
        <ele>209.60125732422</ele>
        <time>2014-06-04T14:15:36Z</time>
      </trkpt>
      <trkpt lat="43.41735" lon="6.11006">
        <ele>209.16696166992</ele>
        <time>2014-06-04T14:15:38Z</time>
      </trkpt>
      <trkpt lat="43.41742" lon="6.11004">
        <ele>208.78930664062</ele>
        <time>2014-06-04T14:15:42Z</time>
      </trkpt>
      <trkpt lat="43.41746" lon="6.11006">
        <ele>208.76698303223</ele>
        <time>2014-06-04T14:15:46Z</time>
      </trkpt>
      <trkpt lat="43.41751" lon="6.11008">
        <ele>208.64079284668</ele>
        <time>2014-06-04T14:15:52Z</time>
      </trkpt>
      <trkpt lat="43.41751" lon="6.11008">
        <ele>208.64079284668</ele>
        <time>2014-06-04T14:16:02Z</time>
      </trkpt>
      <trkpt lat="43.41751" lon="6.11007">
        <ele>208.56997680664</ele>
        <time>2014-06-04T14:16:16Z</time>
      </trkpt>
      <trkpt lat="43.41751" lon="6.11006">
        <ele>208.50927734375</ele>
        <time>2014-06-04T14:16:23Z</time>
      </trkpt>
      <trkpt lat="43.41751" lon="6.11006">
        <ele>208.50927734375</ele>
        <time>2014-06-04T14:16:38Z</time>
      </trkpt>
      <trkpt lat="43.41751" lon="6.11006">
        <ele>208.45869445801</ele>
        <time>2014-06-04T14:16:41Z</time>
      </trkpt>
      <trkpt lat="43.41752" lon="6.11005">
        <ele>208.25025939941</ele>
        <time>2014-06-04T14:16:42Z</time>
      </trkpt>
      <trkpt lat="43.41753" lon="6.11003">
        <ele>208.06210327148</ele>
        <time>2014-06-04T14:16:44Z</time>
      </trkpt>
      <trkpt lat="43.41753" lon="6.11003">
        <ele>208.06210327148</ele>
        <time>2014-06-04T14:16:52Z</time>
      </trkpt>
      <trkpt lat="43.41753" lon="6.11001">
        <ele>207.77603149414</ele>
        <time>2014-06-04T14:16:55Z</time>
      </trkpt>
      <trkpt lat="43.41755" lon="6.10992">
        <ele>206.61448669434</ele>
        <time>2014-06-04T14:16:59Z</time>
      </trkpt>
      <trkpt lat="43.41757" lon="6.10985">
        <ele>205.80836486816</ele>
        <time>2014-06-04T14:17:02Z</time>
      </trkpt>
      <trkpt lat="43.41757" lon="6.10983">
        <ele>205.56721496582</ele>
        <time>2014-06-04T14:17:03Z</time>
      </trkpt>
      <trkpt lat="43.41758" lon="6.10978">
        <ele>204.97276306152</ele>
        <time>2014-06-04T14:17:05Z</time>
      </trkpt>
      <trkpt lat="43.41758" lon="6.10974">
        <ele>204.67315673828</ele>
        <time>2014-06-04T14:17:06Z</time>
      </trkpt>
      <trkpt lat="43.41758" lon="6.10972">
        <ele>204.37226867676</ele>
        <time>2014-06-04T14:17:07Z</time>
      </trkpt>
      <trkpt lat="43.41759" lon="6.10966">
        <ele>203.96882629394</ele>
        <time>2014-06-04T14:17:09Z</time>
      </trkpt>
      <trkpt lat="43.4176" lon="6.10946">
        <ele>202.72706604004</ele>
        <time>2014-06-04T14:17:14Z</time>
      </trkpt>
      <trkpt lat="43.41759" lon="6.10938">
        <ele>202.06219482422</ele>
        <time>2014-06-04T14:17:17Z</time>
      </trkpt>
      <trkpt lat="43.41759" lon="6.10931">
        <ele>201.3985748291</ele>
        <time>2014-06-04T14:17:19Z</time>
      </trkpt>
      <trkpt lat="43.41759" lon="6.10923">
        <ele>200.60963439941</ele>
        <time>2014-06-04T14:17:21Z</time>
      </trkpt>
      <trkpt lat="43.41756" lon="6.10918">
        <ele>200.10885620117</ele>
        <time>2014-06-04T14:17:23Z</time>
      </trkpt>
      <trkpt lat="43.41753" lon="6.10915">
        <ele>199.69879150391</ele>
        <time>2014-06-04T14:17:25Z</time>
      </trkpt>
      <trkpt lat="43.41747" lon="6.10913">
        <ele>199.47892761231</ele>
        <time>2014-06-04T14:17:27Z</time>
      </trkpt>
      <trkpt lat="43.41745" lon="6.10912">
        <ele>199.3014831543</ele>
        <time>2014-06-04T14:17:28Z</time>
      </trkpt>
      <trkpt lat="43.41742" lon="6.1091">
        <ele>198.99969482422</ele>
        <time>2014-06-04T14:17:29Z</time>
      </trkpt>
      <trkpt lat="43.41739" lon="6.10907">
        <ele>198.57308959961</ele>
        <time>2014-06-04T14:17:30Z</time>
      </trkpt>
      <trkpt lat="43.41736" lon="6.10905">
        <ele>198.22142028809</ele>
        <time>2014-06-04T14:17:31Z</time>
      </trkpt>
      <trkpt lat="43.41731" lon="6.10901">
        <ele>197.39671325684</ele>
        <time>2014-06-04T14:17:33Z</time>
      </trkpt>
      <trkpt lat="43.41725" lon="6.10895">
        <ele>196.31283569336</ele>
        <time>2014-06-04T14:17:37Z</time>
      </trkpt>
      <trkpt lat="43.41725" lon="6.10895">
        <ele>196.31991577148</ele>
        <time>2014-06-04T14:17:43Z</time>
      </trkpt>
      <trkpt lat="43.41725" lon="6.10895">
        <ele>196.31991577148</ele>
        <time>2014-06-04T14:18:03Z</time>
      </trkpt>
      <trkpt lat="43.41725" lon="6.10895">
        <ele>196.31991577148</ele>
        <time>2014-06-04T14:18:17Z</time>
      </trkpt>
      <trkpt lat="43.41725" lon="6.10895">
        <ele>196.24908447266</ele>
        <time>2014-06-04T14:18:24Z</time>
      </trkpt>
      <trkpt lat="43.41724" lon="6.10894">
        <ele>196.04142761231</ele>
        <time>2014-06-04T14:18:26Z</time>
      </trkpt>
      <trkpt lat="43.41724" lon="6.10894">
        <ele>196.04142761231</ele>
        <time>2014-06-04T14:18:50Z</time>
      </trkpt>
      <trkpt lat="43.41724" lon="6.10893">
        <ele>195.97027587891</ele>
        <time>2014-06-04T14:19:11Z</time>
      </trkpt>
      <trkpt lat="43.41724" lon="6.10893">
        <ele>195.97027587891</ele>
        <time>2014-06-04T14:19:31Z</time>
      </trkpt>
      <trkpt lat="43.41724" lon="6.10893">
        <ele>195.97027587891</ele>
        <time>2014-06-04T14:19:43Z</time>
      </trkpt>
      <trkpt lat="43.41723" lon="6.10892">
        <ele>195.75355529785</ele>
        <time>2014-06-04T14:19:44Z</time>
      </trkpt>
      <trkpt lat="43.41718" lon="6.10888">
        <ele>195.1689453125</ele>
        <time>2014-06-04T14:19:48Z</time>
      </trkpt>
      <trkpt lat="43.41715" lon="6.10887">
        <ele>195.25134277344</ele>
        <time>2014-06-04T14:19:49Z</time>
      </trkpt>
      <trkpt lat="43.41708" lon="6.10884">
        <ele>195.51226806641</ele>
        <time>2014-06-04T14:19:52Z</time>
      </trkpt>
      <trkpt lat="43.41704" lon="6.10883">
        <ele>195.66333007812</ele>
        <time>2014-06-04T14:19:54Z</time>
      </trkpt>
      <trkpt lat="43.41691" lon="6.10872">
        <ele>196.11651611328</ele>
        <time>2014-06-04T14:19:59Z</time>
      </trkpt>
      <trkpt lat="43.41676" lon="6.10863">
        <ele>196.67956542969</ele>
        <time>2014-06-04T14:20:04Z</time>
      </trkpt>
      <trkpt lat="43.41663" lon="6.10857">
        <ele>197.11901855469</ele>
        <time>2014-06-04T14:20:08Z</time>
      </trkpt>
      <trkpt lat="43.41652" lon="6.10854">
        <ele>197.51727294922</ele>
        <time>2014-06-04T14:20:12Z</time>
      </trkpt>
      <trkpt lat="43.41646" lon="6.10855">
        <ele>197.75073242188</ele>
        <time>2014-06-04T14:20:14Z</time>
      </trkpt>
      <trkpt lat="43.41628" lon="6.10856">
        <ele>198.59819030762</ele>
        <time>2014-06-04T14:20:19Z</time>
      </trkpt>
      <trkpt lat="43.41618" lon="6.10867">
        <ele>198.76696777344</ele>
        <time>2014-06-04T14:20:23Z</time>
      </trkpt>
      <trkpt lat="43.41615" lon="6.10882">
        <ele>198.86309814453</ele>
        <time>2014-06-04T14:20:27Z</time>
      </trkpt>
      <trkpt lat="43.41615" lon="6.10898">
        <ele>199.24401855469</ele>
        <time>2014-06-04T14:20:31Z</time>
      </trkpt>
      <trkpt lat="43.41615" lon="6.10902">
        <ele>199.38896179199</ele>
        <time>2014-06-04T14:20:32Z</time>
      </trkpt>
      <trkpt lat="43.41616" lon="6.10919">
        <ele>200</ele>
        <time>2014-06-04T14:20:37Z</time>
      </trkpt>
      <trkpt lat="43.41617" lon="6.10934">
        <ele>200</ele>
        <time>2014-06-04T14:20:41Z</time>
      </trkpt>
      <trkpt lat="43.41618" lon="6.10941">
        <ele>200</ele>
        <time>2014-06-04T14:20:43Z</time>
      </trkpt>
      <trkpt lat="43.41614" lon="6.10956">
        <ele>200</ele>
        <time>2014-06-04T14:20:47Z</time>
      </trkpt>
      <trkpt lat="43.4161" lon="6.10969">
        <ele>200</ele>
        <time>2014-06-04T14:20:51Z</time>
      </trkpt>
      <trkpt lat="43.41607" lon="6.10984">
        <ele>200.69305419922</ele>
        <time>2014-06-04T14:20:55Z</time>
      </trkpt>
      <trkpt lat="43.41605" lon="6.10989">
        <ele>200.93675231934</ele>
        <time>2014-06-04T14:20:56Z</time>
      </trkpt>
      <trkpt lat="43.41604" lon="6.10997">
        <ele>201.31317138672</ele>
        <time>2014-06-04T14:20:58Z</time>
      </trkpt>
      <trkpt lat="43.41602" lon="6.11014">
        <ele>203.36564636231</ele>
        <time>2014-06-04T14:21:02Z</time>
      </trkpt>
      <trkpt lat="43.416" lon="6.11033">
        <ele>205.54940795898</ele>
        <time>2014-06-04T14:21:07Z</time>
      </trkpt>
      <trkpt lat="43.41598" lon="6.11046">
        <ele>206.60684204102</ele>
        <time>2014-06-04T14:21:11Z</time>
      </trkpt>
      <trkpt lat="43.41594" lon="6.11068">
        <ele>208.62991333008</ele>
        <time>2014-06-04T14:21:17Z</time>
      </trkpt>
      <trkpt lat="43.41586" lon="6.11085">
        <ele>209.05221557617</ele>
        <time>2014-06-04T14:21:22Z</time>
      </trkpt>
      <trkpt lat="43.41579" lon="6.11102">
        <ele>210.31262207031</ele>
        <time>2014-06-04T14:21:27Z</time>
      </trkpt>
      <trkpt lat="43.41566" lon="6.11121">
        <ele>211.50700378418</ele>
        <time>2014-06-04T14:21:33Z</time>
      </trkpt>
      <trkpt lat="43.41552" lon="6.11134">
        <ele>211.80654907227</ele>
        <time>2014-06-04T14:21:38Z</time>
      </trkpt>
      <trkpt lat="43.41534" lon="6.11144">
        <ele>213.17422485352</ele>
        <time>2014-06-04T14:21:43Z</time>
      </trkpt>
      <trkpt lat="43.41509" lon="6.11157">
        <ele>215.00115966797</ele>
        <time>2014-06-04T14:21:49Z</time>
      </trkpt>
      <trkpt lat="43.41504" lon="6.11159">
        <ele>215.27238464356</ele>
        <time>2014-06-04T14:21:50Z</time>
      </trkpt>
      <trkpt lat="43.415" lon="6.1116">
        <ele>215.50241088867</ele>
        <time>2014-06-04T14:21:51Z</time>
      </trkpt>
      <trkpt lat="43.41483" lon="6.11164">
        <ele>215.81126403809</ele>
        <time>2014-06-04T14:21:55Z</time>
      </trkpt>
      <trkpt lat="43.41479" lon="6.11165">
        <ele>215.85589599609</ele>
        <time>2014-06-04T14:21:56Z</time>
      </trkpt>
      <trkpt lat="43.41465" lon="6.11167">
        <ele>216.00004577637</ele>
        <time>2014-06-04T14:22:00Z</time>
      </trkpt>
      <trkpt lat="43.41463" lon="6.11163">
        <ele>215.76663208008</ele>
        <time>2014-06-04T14:22:03Z</time>
      </trkpt>
      <trkpt lat="43.41463" lon="6.11162">
        <ele>215.67393493652</ele>
        <time>2014-06-04T14:22:07Z</time>
      </trkpt>
      <trkpt lat="43.41464" lon="6.1116">
        <ele>215.48854064941</ele>
        <time>2014-06-04T14:22:09Z</time>
      </trkpt>
      <trkpt lat="43.41465" lon="6.11151">
        <ele>214.86712646484</ele>
        <time>2014-06-04T14:22:11Z</time>
      </trkpt>
      <trkpt lat="43.41464" lon="6.11146">
        <ele>214.53410339356</ele>
        <time>2014-06-04T14:22:12Z</time>
      </trkpt>
      <trkpt lat="43.41467" lon="6.11133">
        <ele>213.79669189453</ele>
        <time>2014-06-04T14:22:16Z</time>
      </trkpt>
      <trkpt lat="43.41468" lon="6.11127">
        <ele>213.57525634766</ele>
        <time>2014-06-04T14:22:20Z</time>
      </trkpt>
      <trkpt lat="43.41468" lon="6.11127">
        <ele>213.55465698242</ele>
        <time>2014-06-04T14:22:23Z</time>
      </trkpt>
      <trkpt lat="43.41468" lon="6.11127">
        <ele>213.55465698242</ele>
        <time>2014-06-04T14:22:32Z</time>
      </trkpt>
      <trkpt lat="43.41468" lon="6.11126">
        <ele>213.54435729981</ele>
        <time>2014-06-04T14:22:43Z</time>
      </trkpt>
      <trkpt lat="43.41468" lon="6.11124">
        <ele>213.48083496094</ele>
        <time>2014-06-04T14:22:45Z</time>
      </trkpt>
      <trkpt lat="43.4147" lon="6.11117">
        <ele>213.20617675781</ele>
        <time>2014-06-04T14:22:48Z</time>
      </trkpt>
      <trkpt lat="43.41471" lon="6.11109">
        <ele>212.92123413086</ele>
        <time>2014-06-04T14:22:51Z</time>
      </trkpt>
      <trkpt lat="43.41473" lon="6.11106">
        <ele>212.80621337891</ele>
        <time>2014-06-04T14:22:53Z</time>
      </trkpt>
      <trkpt lat="43.41478" lon="6.111">
        <ele>212.60708618164</ele>
        <time>2014-06-04T14:22:57Z</time>
      </trkpt>
      <trkpt lat="43.41483" lon="6.11097">
        <ele>212.50238037109</ele>
        <time>2014-06-04T14:23:01Z</time>
      </trkpt>
      <trkpt lat="43.41485" lon="6.11097">
        <ele>212.48864746094</ele>
        <time>2014-06-04T14:23:02Z</time>
      </trkpt>
      <trkpt lat="43.41488" lon="6.11095">
        <ele>212.41825866699</ele>
        <time>2014-06-04T14:23:05Z</time>
      </trkpt>
      <trkpt lat="43.41489" lon="6.11094">
        <ele>212.38906860352</ele>
        <time>2014-06-04T14:23:07Z</time>
      </trkpt>
      <trkpt lat="43.41491" lon="6.11092">
        <ele>212.32556152344</ele>
        <time>2014-06-04T14:23:13Z</time>
      </trkpt>
      <trkpt lat="43.41492" lon="6.11089">
        <ele>212.19166564941</ele>
        <time>2014-06-04T14:23:20Z</time>
      </trkpt>
      <trkpt lat="43.41492" lon="6.11087">
        <ele>212.1247253418</ele>
        <time>2014-06-04T14:23:26Z</time>
      </trkpt>
      <trkpt lat="43.41492" lon="6.11087">
        <ele>212.1247253418</ele>
        <time>2014-06-04T14:23:35Z</time>
      </trkpt>
      <trkpt lat="43.41491" lon="6.11085">
        <ele>212.07321166992</ele>
        <time>2014-06-04T14:23:41Z</time>
      </trkpt>
      <trkpt lat="43.41491" lon="6.11085">
        <ele>212.07321166992</ele>
        <time>2014-06-04T14:23:50Z</time>
      </trkpt>
      <trkpt lat="43.41491" lon="6.11077">
        <ele>211.5456237793</ele>
        <time>2014-06-04T14:23:57Z</time>
      </trkpt>
      <trkpt lat="43.41492" lon="6.11075">
        <ele>211.41172790527</ele>
        <time>2014-06-04T14:24:02Z</time>
      </trkpt>
      <trkpt lat="43.41495" lon="6.11073">
        <ele>211.2469329834</ele>
        <time>2014-06-04T14:24:04Z</time>
      </trkpt>
      <trkpt lat="43.41499" lon="6.11067">
        <ele>210.79718017578</ele>
        <time>2014-06-04T14:24:07Z</time>
      </trkpt>
      <trkpt lat="43.415" lon="6.11063">
        <ele>210.56056213379</ele>
        <time>2014-06-04T14:24:09Z</time>
      </trkpt>
      <trkpt lat="43.415" lon="6.11059">
        <ele>210.20693969727</ele>
        <time>2014-06-04T14:24:11Z</time>
      </trkpt>
      <trkpt lat="43.41506" lon="6.11043">
        <ele>209.85369873047</ele>
        <time>2014-06-04T14:24:16Z</time>
      </trkpt>
      <trkpt lat="43.41507" lon="6.11039">
        <ele>209.7995300293</ele>
        <time>2014-06-04T14:24:17Z</time>
      </trkpt>
      <trkpt lat="43.41508" lon="6.11035">
        <ele>209.73045349121</ele>
        <time>2014-06-04T14:24:18Z</time>
      </trkpt>
      <trkpt lat="43.4151" lon="6.1103">
        <ele>209.59155273438</ele>
        <time>2014-06-04T14:24:19Z</time>
      </trkpt>
      <trkpt lat="43.41518" lon="6.11007">
        <ele>207.85557556152</ele>
        <time>2014-06-04T14:24:25Z</time>
      </trkpt>
      <trkpt lat="43.4153" lon="6.10961">
        <ele>210.54663085938</ele>
        <time>2014-06-04T14:24:35Z</time>
      </trkpt>
      <trkpt lat="43.41535" lon="6.10938">
        <ele>212.00401306152</ele>
        <time>2014-06-04T14:24:40Z</time>
      </trkpt>
      <trkpt lat="43.41543" lon="6.10917">
        <ele>212.82281494141</ele>
        <time>2014-06-04T14:24:45Z</time>
      </trkpt>
      <trkpt lat="43.41547" lon="6.10903">
        <ele>214.55018615723</ele>
        <time>2014-06-04T14:24:48Z</time>
      </trkpt>
      <trkpt lat="43.4155" lon="6.10891">
        <ele>216.58039855957</ele>
        <time>2014-06-04T14:24:50Z</time>
      </trkpt>
      <trkpt lat="43.41551" lon="6.10884">
        <ele>217.68986511231</ele>
        <time>2014-06-04T14:24:51Z</time>
      </trkpt>
      <trkpt lat="43.41554" lon="6.10871">
        <ele>218.77456665039</ele>
        <time>2014-06-04T14:24:54Z</time>
      </trkpt>
      <trkpt lat="43.41558" lon="6.10861">
        <ele>219.12297058106</ele>
        <time>2014-06-04T14:24:56Z</time>
      </trkpt>
      <trkpt lat="43.41577" lon="6.10838">
        <ele>217.45021057129</ele>
        <time>2014-06-04T14:25:01Z</time>
      </trkpt>
      <trkpt lat="43.41588" lon="6.10825">
        <ele>215.68612670898</ele>
        <time>2014-06-04T14:25:05Z</time>
      </trkpt>
      <trkpt lat="43.41594" lon="6.10818">
        <ele>214.23216247559</ele>
        <time>2014-06-04T14:25:07Z</time>
      </trkpt>
      <trkpt lat="43.41599" lon="6.10811">
        <ele>213.66738891602</ele>
        <time>2014-06-04T14:25:09Z</time>
      </trkpt>
      <trkpt lat="43.41601" lon="6.1081">
        <ele>212.89834594727</ele>
        <time>2014-06-04T14:25:10Z</time>
      </trkpt>
      <trkpt lat="43.41614" lon="6.1078">
        <ele>212.10279846191</ele>
        <time>2014-06-04T14:25:17Z</time>
      </trkpt>
      <trkpt lat="43.41619" lon="6.10768">
        <ele>211.66961669922</ele>
        <time>2014-06-04T14:25:20Z</time>
      </trkpt>
      <trkpt lat="43.41626" lon="6.10759">
        <ele>209.85368347168</ele>
        <time>2014-06-04T14:25:23Z</time>
      </trkpt>
      <trkpt lat="43.41627" lon="6.10752">
        <ele>210.40254211426</ele>
        <time>2014-06-04T14:25:27Z</time>
      </trkpt>
      <trkpt lat="43.41627" lon="6.10752">
        <ele>210.40254211426</ele>
        <time>2014-06-04T14:25:36Z</time>
      </trkpt>
      <trkpt lat="43.41628" lon="6.10751">
        <ele>210.09075927734</ele>
        <time>2014-06-04T14:25:47Z</time>
      </trkpt>
      <trkpt lat="43.41629" lon="6.10749">
        <ele>209.59614562988</ele>
        <time>2014-06-04T14:25:48Z</time>
      </trkpt>
      <trkpt lat="43.41632" lon="6.10741">
        <ele>208.8291015625</ele>
        <time>2014-06-04T14:25:51Z</time>
      </trkpt>
      <trkpt lat="43.41631" lon="6.10733">
        <ele>210.44075012207</ele>
        <time>2014-06-04T14:25:53Z</time>
      </trkpt>
      <trkpt lat="43.41629" lon="6.10726">
        <ele>211.76408386231</ele>
        <time>2014-06-04T14:25:55Z</time>
      </trkpt>
      <trkpt lat="43.4163" lon="6.10721">
        <ele>211.96238708496</ele>
        <time>2014-06-04T14:25:57Z</time>
      </trkpt>
      <trkpt lat="43.4163" lon="6.10721">
        <ele>211.96238708496</ele>
        <time>2014-06-04T14:26:01Z</time>
      </trkpt>
      <trkpt lat="43.4163" lon="6.10721">
        <ele>211.79441833496</ele>
        <time>2014-06-04T14:26:05Z</time>
      </trkpt>
      <trkpt lat="43.4163" lon="6.10721">
        <ele>211.79441833496</ele>
        <time>2014-06-04T14:26:09Z</time>
      </trkpt>
      <trkpt lat="43.4163" lon="6.10721">
        <ele>211.79441833496</ele>
        <time>2014-06-04T14:26:16Z</time>
      </trkpt>
      <trkpt lat="43.41631" lon="6.10719">
        <ele>211.70587158203</ele>
        <time>2014-06-04T14:26:22Z</time>
      </trkpt>
      <trkpt lat="43.41631" lon="6.10719">
        <ele>211.70587158203</ele>
        <time>2014-06-04T14:26:29Z</time>
      </trkpt>
      <trkpt lat="43.41631" lon="6.10715">
        <ele>211.91305541992</ele>
        <time>2014-06-04T14:26:33Z</time>
      </trkpt>
      <trkpt lat="43.41631" lon="6.10713">
        <ele>212.06188964844</ele>
        <time>2014-06-04T14:26:34Z</time>
      </trkpt>
      <trkpt lat="43.41631" lon="6.10703">
        <ele>212.46936035156</ele>
        <time>2014-06-04T14:26:38Z</time>
      </trkpt>
      <trkpt lat="43.41631" lon="6.10699">
        <ele>212.93733215332</ele>
        <time>2014-06-04T14:26:40Z</time>
      </trkpt>
      <trkpt lat="43.41631" lon="6.10697">
        <ele>213.04823303223</ele>
        <time>2014-06-04T14:26:41Z</time>
      </trkpt>
      <trkpt lat="43.41631" lon="6.10697">
        <ele>212.87239074707</ele>
        <time>2014-06-04T14:26:42Z</time>
      </trkpt>
      <trkpt lat="43.41631" lon="6.10697">
        <ele>212.87239074707</ele>
        <time>2014-06-04T14:26:44Z</time>
      </trkpt>
      <trkpt lat="43.41631" lon="6.10697">
        <ele>213.0715637207</ele>
        <time>2014-06-04T14:26:45Z</time>
      </trkpt>
      <trkpt lat="43.41631" lon="6.10696">
        <ele>212.94004821777</ele>
        <time>2014-06-04T14:26:46Z</time>
      </trkpt>
      <trkpt lat="43.41632" lon="6.10691">
        <ele>212.96624755859</ele>
        <time>2014-06-04T14:26:50Z</time>
      </trkpt>
      <trkpt lat="43.41631" lon="6.10688">
        <ele>213.64547729492</ele>
        <time>2014-06-04T14:26:54Z</time>
      </trkpt>
      <trkpt lat="43.41631" lon="6.10687">
        <ele>213.73864746094</ele>
        <time>2014-06-04T14:26:56Z</time>
      </trkpt>
      <trkpt lat="43.41631" lon="6.10686">
        <ele>213.87373352051</ele>
        <time>2014-06-04T14:26:57Z</time>
      </trkpt>
      <trkpt lat="43.41631" lon="6.10685">
        <ele>213.7841796875</ele>
        <time>2014-06-04T14:27:03Z</time>
      </trkpt>
      <trkpt lat="43.41631" lon="6.10681">
        <ele>214.16809082031</ele>
        <time>2014-06-04T14:27:10Z</time>
      </trkpt>
      <trkpt lat="43.41632" lon="6.1068">
        <ele>213.84921264648</ele>
        <time>2014-06-04T14:27:12Z</time>
      </trkpt>
      <trkpt lat="43.41632" lon="6.1068">
        <ele>213.84921264648</ele>
        <time>2014-06-04T14:27:15Z</time>
      </trkpt>
      <trkpt lat="43.41632" lon="6.1068">
        <ele>214.04852294922</ele>
        <time>2014-06-04T14:27:16Z</time>
      </trkpt>
      <trkpt lat="43.41632" lon="6.10679">
        <ele>214.10028076172</ele>
        <time>2014-06-04T14:27:18Z</time>
      </trkpt>
      <trkpt lat="43.41631" lon="6.10674">
        <ele>215.00105285644</ele>
        <time>2014-06-04T14:27:23Z</time>
      </trkpt>
      <trkpt lat="43.4163" lon="6.10669">
        <ele>215.88186645508</ele>
        <time>2014-06-04T14:27:29Z</time>
      </trkpt>
      <trkpt lat="43.4163" lon="6.10665">
        <ele>216.34477233887</ele>
        <time>2014-06-04T14:27:32Z</time>
      </trkpt>
      <trkpt lat="43.4163" lon="6.10665">
        <ele>216.3424987793</ele>
        <time>2014-06-04T14:27:33Z</time>
      </trkpt>
      <trkpt lat="43.41629" lon="6.10661">
        <ele>216.69688415527</ele>
        <time>2014-06-04T14:27:36Z</time>
      </trkpt>
      <trkpt lat="43.4163" lon="6.10658">
        <ele>216.65013122559</ele>
        <time>2014-06-04T14:27:43Z</time>
      </trkpt>
      <trkpt lat="43.41631" lon="6.10655">
        <ele>216.45680236816</ele>
        <time>2014-06-04T14:27:50Z</time>
      </trkpt>
      <trkpt lat="43.41632" lon="6.1065">
        <ele>215.93078613281</ele>
        <time>2014-06-04T14:27:57Z</time>
      </trkpt>
      <trkpt lat="43.41633" lon="6.10647">
        <ele>215.48217773438</ele>
        <time>2014-06-04T14:27:59Z</time>
      </trkpt>
      <trkpt lat="43.41633" lon="6.10642">
        <ele>215.7405090332</ele>
        <time>2014-06-04T14:28:02Z</time>
      </trkpt>
      <trkpt lat="43.41634" lon="6.10636">
        <ele>215.70744323731</ele>
        <time>2014-06-04T14:28:05Z</time>
      </trkpt>
      <trkpt lat="43.41634" lon="6.10635">
        <ele>215.32928466797</ele>
        <time>2014-06-04T14:28:06Z</time>
      </trkpt>
      <trkpt lat="43.41634" lon="6.10632">
        <ele>215.35386657715</ele>
        <time>2014-06-04T14:28:07Z</time>
      </trkpt>
      <trkpt lat="43.41635" lon="6.1063">
        <ele>214.98023986816</ele>
        <time>2014-06-04T14:28:08Z</time>
      </trkpt>
      <trkpt lat="43.41634" lon="6.10607">
        <ele>216.04296875</ele>
        <time>2014-06-04T14:28:19Z</time>
      </trkpt>
      <trkpt lat="43.41632" lon="6.10597">
        <ele>217.1416015625</ele>
        <time>2014-06-04T14:28:24Z</time>
      </trkpt>
      <trkpt lat="43.41631" lon="6.10591">
        <ele>217.361328125</ele>
        <time>2014-06-04T14:28:26Z</time>
      </trkpt>
      <trkpt lat="43.4163" lon="6.10587">
        <ele>218.240234375</ele>
        <time>2014-06-04T14:28:28Z</time>
      </trkpt>
      <trkpt lat="43.41628" lon="6.10583">
        <ele>219.119140625</ele>
        <time>2014-06-04T14:28:30Z</time>
      </trkpt>
      <trkpt lat="43.41624" lon="6.10566">
        <ele>221.755859375</ele>
        <time>2014-06-04T14:28:37Z</time>
      </trkpt>
      <trkpt lat="43.41622" lon="6.10565">
        <ele>222.8544921875</ele>
        <time>2014-06-04T14:28:39Z</time>
      </trkpt>
      <trkpt lat="43.41621" lon="6.10562">
        <ele>223.07421875</ele>
        <time>2014-06-04T14:28:40Z</time>
      </trkpt>
      <trkpt lat="43.4162" lon="6.10552">
        <ele>223.75325012207</ele>
        <time>2014-06-04T14:28:45Z</time>
      </trkpt>
      <trkpt lat="43.41618" lon="6.10543">
        <ele>224.5604095459</ele>
        <time>2014-06-04T14:28:49Z</time>
      </trkpt>
      <trkpt lat="43.41618" lon="6.10543">
        <ele>224.35858154297</ele>
        <time>2014-06-04T14:28:50Z</time>
      </trkpt>
      <trkpt lat="43.41617" lon="6.10542">
        <ele>224.73524475098</ele>
        <time>2014-06-04T14:28:57Z</time>
      </trkpt>
      <trkpt lat="43.41616" lon="6.10536">
        <ele>224.79571533203</ele>
        <time>2014-06-04T14:29:00Z</time>
      </trkpt>
      <trkpt lat="43.41616" lon="6.10534">
        <ele>224.85789489746</ele>
        <time>2014-06-04T14:29:02Z</time>
      </trkpt>
      <trkpt lat="43.41616" lon="6.10534">
        <ele>224.84942626953</ele>
        <time>2014-06-04T14:29:03Z</time>
      </trkpt>
      <trkpt lat="43.41616" lon="6.10531">
        <ele>224.90397644043</ele>
        <time>2014-06-04T14:29:05Z</time>
      </trkpt>
      <trkpt lat="43.41614" lon="6.10526">
        <ele>225.33717346191</ele>
        <time>2014-06-04T14:29:13Z</time>
      </trkpt>
      <trkpt lat="43.41613" lon="6.10522">
        <ele>225.43766784668</ele>
        <time>2014-06-04T14:29:19Z</time>
      </trkpt>
      <trkpt lat="43.41613" lon="6.1052">
        <ele>225.43107604981</ele>
        <time>2014-06-04T14:29:21Z</time>
      </trkpt>
      <trkpt lat="43.41611" lon="6.10515">
        <ele>225.80924987793</ele>
        <time>2014-06-04T14:29:27Z</time>
      </trkpt>
      <trkpt lat="43.4161" lon="6.10515">
        <ele>225.85214233398</ele>
        <time>2014-06-04T14:29:31Z</time>
      </trkpt>
      <trkpt lat="43.4161" lon="6.10515">
        <ele>225.85214233398</ele>
        <time>2014-06-04T14:29:47Z</time>
      </trkpt>
      <trkpt lat="43.4161" lon="6.10515">
        <ele>225.85214233398</ele>
        <time>2014-06-04T14:29:58Z</time>
      </trkpt>
      <trkpt lat="43.4161" lon="6.10514">
        <ele>225.80535888672</ele>
        <time>2014-06-04T14:30:05Z</time>
      </trkpt>
      <trkpt lat="43.4161" lon="6.10514">
        <ele>225.80535888672</ele>
        <time>2014-06-04T14:30:17Z</time>
      </trkpt>
      <trkpt lat="43.4161" lon="6.10514">
        <ele>225.80535888672</ele>
        <time>2014-06-04T14:30:27Z</time>
      </trkpt>
      <trkpt lat="43.4161" lon="6.10514">
        <ele>225.7274017334</ele>
        <time>2014-06-04T14:30:34Z</time>
      </trkpt>
      <trkpt lat="43.4161" lon="6.10514">
        <ele>225.7274017334</ele>
        <time>2014-06-04T14:30:51Z</time>
      </trkpt>
      <trkpt lat="43.4161" lon="6.10514">
        <ele>225.78457641602</ele>
        <time>2014-06-04T14:31:57Z</time>
      </trkpt>
      <trkpt lat="43.4161" lon="6.10514">
        <ele>225.78457641602</ele>
        <time>2014-06-04T14:32:21Z</time>
      </trkpt>
      <trkpt lat="43.4161" lon="6.10514">
        <ele>225.77418518066</ele>
        <time>2014-06-04T14:32:48Z</time>
      </trkpt>
      <trkpt lat="43.4161" lon="6.10514">
        <ele>225.7897644043</ele>
        <time>2014-06-04T14:33:30Z</time>
      </trkpt>
      <trkpt lat="43.4161" lon="6.10514">
        <ele>225.7897644043</ele>
        <time>2014-06-04T14:33:43Z</time>
      </trkpt>
      <trkpt lat="43.41611" lon="6.10514">
        <ele>225.52346801758</ele>
        <time>2014-06-04T14:33:54Z</time>
      </trkpt>
      <trkpt lat="43.41611" lon="6.10514">
        <ele>225.52346801758</ele>
        <time>2014-06-04T14:34:07Z</time>
      </trkpt>
      <trkpt lat="43.4161" lon="6.10513">
        <ele>225.83680725098</ele>
        <time>2014-06-04T14:34:15Z</time>
      </trkpt>
      <trkpt lat="43.41609" lon="6.10511">
        <ele>225.98396301269</ele>
        <time>2014-06-04T14:34:19Z</time>
      </trkpt>
      <trkpt lat="43.41608" lon="6.10509">
        <ele>225.99659729004</ele>
        <time>2014-06-04T14:34:20Z</time>
      </trkpt>
      <trkpt lat="43.41603" lon="6.10498">
        <ele>226.5754699707</ele>
        <time>2014-06-04T14:34:24Z</time>
      </trkpt>
      <trkpt lat="43.41598" lon="6.10485">
        <ele>227.11791992188</ele>
        <time>2014-06-04T14:34:28Z</time>
      </trkpt>
      <trkpt lat="43.41597" lon="6.10481">
        <ele>227.05612182617</ele>
        <time>2014-06-04T14:34:29Z</time>
      </trkpt>
      <trkpt lat="43.41591" lon="6.10455">
        <ele>226.79330444336</ele>
        <time>2014-06-04T14:34:35Z</time>
      </trkpt>
      <trkpt lat="43.41593" lon="6.10429">
        <ele>223.55393981934</ele>
        <time>2014-06-04T14:34:42Z</time>
      </trkpt>
      <trkpt lat="43.41589" lon="6.10411">
        <ele>222.44442749023</ele>
        <time>2014-06-04T14:34:46Z</time>
      </trkpt>
      <trkpt lat="43.41589" lon="6.1039">
        <ele>220.49594116211</ele>
        <time>2014-06-04T14:34:50Z</time>
      </trkpt>
      <trkpt lat="43.41588" lon="6.10383">
        <ele>220.07612609863</ele>
        <time>2014-06-04T14:34:51Z</time>
      </trkpt>
      <trkpt lat="43.41587" lon="6.10376">
        <ele>219.76440429688</ele>
        <time>2014-06-04T14:34:52Z</time>
      </trkpt>
      <trkpt lat="43.41585" lon="6.10369">
        <ele>219.47702026367</ele>
        <time>2014-06-04T14:34:53Z</time>
      </trkpt>
      <trkpt lat="43.41579" lon="6.10357">
        <ele>219.44476318359</ele>
        <time>2014-06-04T14:34:55Z</time>
      </trkpt>
      <trkpt lat="43.41573" lon="6.10347">
        <ele>219.64413452148</ele>
        <time>2014-06-04T14:34:57Z</time>
      </trkpt>
      <trkpt lat="43.41565" lon="6.10337">
        <ele>219.62461853027</ele>
        <time>2014-06-04T14:34:59Z</time>
      </trkpt>
      <trkpt lat="43.41558" lon="6.10328">
        <ele>219.65797424316</ele>
        <time>2014-06-04T14:35:01Z</time>
      </trkpt>
      <trkpt lat="43.41551" lon="6.10319">
        <ele>220.71266174316</ele>
        <time>2014-06-04T14:35:03Z</time>
      </trkpt>
      <trkpt lat="43.41543" lon="6.10307">
        <ele>222.28219604492</ele>
        <time>2014-06-04T14:35:05Z</time>
      </trkpt>
      <trkpt lat="43.41537" lon="6.10301">
        <ele>223.30062866211</ele>
        <time>2014-06-04T14:35:06Z</time>
      </trkpt>
      <trkpt lat="43.41532" lon="6.10296">
        <ele>224.28448486328</ele>
        <time>2014-06-04T14:35:07Z</time>
      </trkpt>
      <trkpt lat="43.41527" lon="6.10291">
        <ele>225.30569458008</ele>
        <time>2014-06-04T14:35:08Z</time>
      </trkpt>
      <trkpt lat="43.4152" lon="6.10278">
        <ele>226.72122192383</ele>
        <time>2014-06-04T14:35:10Z</time>
      </trkpt>
      <trkpt lat="43.41519" lon="6.10271">
        <ele>226.91381835938</ele>
        <time>2014-06-04T14:35:11Z</time>
      </trkpt>
      <trkpt lat="43.41518" lon="6.10262">
        <ele>226.8916015625</ele>
        <time>2014-06-04T14:35:12Z</time>
      </trkpt>
      <trkpt lat="43.41516" lon="6.10253">
        <ele>226.83172607422</ele>
        <time>2014-06-04T14:35:13Z</time>
      </trkpt>
      <trkpt lat="43.41516" lon="6.10244">
        <ele>226.40542602539</ele>
        <time>2014-06-04T14:35:14Z</time>
      </trkpt>
      <trkpt lat="43.41515" lon="6.10235">
        <ele>225.84428405762</ele>
        <time>2014-06-04T14:35:15Z</time>
      </trkpt>
      <trkpt lat="43.41515" lon="6.10227">
        <ele>225.18739318848</ele>
        <time>2014-06-04T14:35:16Z</time>
      </trkpt>
      <trkpt lat="43.41515" lon="6.10217">
        <ele>224.36373901367</ele>
        <time>2014-06-04T14:35:17Z</time>
      </trkpt>
      <trkpt lat="43.41515" lon="6.10208">
        <ele>223.55213928223</ele>
        <time>2014-06-04T14:35:18Z</time>
      </trkpt>
      <trkpt lat="43.41515" lon="6.10189">
        <ele>221.8455657959</ele>
        <time>2014-06-04T14:35:20Z</time>
      </trkpt>
      <trkpt lat="43.41515" lon="6.10182">
        <ele>221.32371520996</ele>
        <time>2014-06-04T14:35:21Z</time>
      </trkpt>
      <trkpt lat="43.41514" lon="6.10177">
        <ele>221.1863861084</ele>
        <time>2014-06-04T14:35:22Z</time>
      </trkpt>
      <trkpt lat="43.41513" lon="6.10174">
        <ele>221.24475097656</ele>
        <time>2014-06-04T14:35:23Z</time>
      </trkpt>
      <trkpt lat="43.4151" lon="6.10167">
        <ele>221.15205383301</ele>
        <time>2014-06-04T14:35:26Z</time>
      </trkpt>
      <trkpt lat="43.41508" lon="6.10162">
        <ele>221.21067810059</ele>
        <time>2014-06-04T14:35:29Z</time>
      </trkpt>
      <trkpt lat="43.41507" lon="6.10158">
        <ele>221.00857543945</ele>
        <time>2014-06-04T14:35:31Z</time>
      </trkpt>
      <trkpt lat="43.41506" lon="6.10149">
        <ele>220.45727539062</ele>
        <time>2014-06-04T14:35:37Z</time>
      </trkpt>
      <trkpt lat="43.41506" lon="6.10149">
        <ele>220.45727539062</ele>
        <time>2014-06-04T14:36:08Z</time>
      </trkpt>
      <trkpt lat="43.41506" lon="6.10149">
        <ele>220.45727539062</ele>
        <time>2014-06-04T14:36:14Z</time>
      </trkpt>
      <trkpt lat="43.41506" lon="6.10149">
        <ele>220.41859436035</ele>
        <time>2014-06-04T14:36:17Z</time>
      </trkpt>
      <trkpt lat="43.41506" lon="6.10149">
        <ele>220.41859436035</ele>
        <time>2014-06-04T14:36:37Z</time>
      </trkpt>
      <trkpt lat="43.41506" lon="6.10149">
        <ele>220.41859436035</ele>
        <time>2014-06-04T14:36:51Z</time>
      </trkpt>
      <trkpt lat="43.41506" lon="6.10147">
        <ele>220.26254272461</ele>
        <time>2014-06-04T14:37:03Z</time>
      </trkpt>
      <trkpt lat="43.41506" lon="6.10146">
        <ele>220.17851257324</ele>
        <time>2014-06-04T14:37:08Z</time>
      </trkpt>
      <trkpt lat="43.41506" lon="6.10146">
        <ele>220.18444824219</ele>
        <time>2014-06-04T14:37:15Z</time>
      </trkpt>
      <trkpt lat="43.41503" lon="6.10138">
        <ele>219.75901794434</ele>
        <time>2014-06-04T14:37:19Z</time>
      </trkpt>
      <trkpt lat="43.41501" lon="6.10134">
        <ele>219.57707214356</ele>
        <time>2014-06-04T14:37:21Z</time>
      </trkpt>
      <trkpt lat="43.415" lon="6.10132">
        <ele>219.47615051269</ele>
        <time>2014-06-04T14:37:22Z</time>
      </trkpt>
      <trkpt lat="43.415" lon="6.10129">
        <ele>219.35174560547</ele>
        <time>2014-06-04T14:37:23Z</time>
      </trkpt>
      <trkpt lat="43.41499" lon="6.10122">
        <ele>218.90495300293</ele>
        <time>2014-06-04T14:37:27Z</time>
      </trkpt>
      <trkpt lat="43.41498" lon="6.1012">
        <ele>218.8028717041</ele>
        <time>2014-06-04T14:37:33Z</time>
      </trkpt>
      <trkpt lat="43.41497" lon="6.10116">
        <ele>218.57234191894</ele>
        <time>2014-06-04T14:37:40Z</time>
      </trkpt>
      <trkpt lat="43.41494" lon="6.10109">
        <ele>218.39239501953</ele>
        <time>2014-06-04T14:37:43Z</time>
      </trkpt>
      <trkpt lat="43.41491" lon="6.10105">
        <ele>218.55786132812</ele>
        <time>2014-06-04T14:37:45Z</time>
      </trkpt>
      <trkpt lat="43.4148" lon="6.10088">
        <ele>218.83670043945</ele>
        <time>2014-06-04T14:37:51Z</time>
      </trkpt>
      <trkpt lat="43.41474" lon="6.10075">
        <ele>218.94427490234</ele>
        <time>2014-06-04T14:37:54Z</time>
      </trkpt>
      <trkpt lat="43.41472" lon="6.10069">
        <ele>218.99920654297</ele>
        <time>2014-06-04T14:37:55Z</time>
      </trkpt>
      <trkpt lat="43.4147" lon="6.10058">
        <ele>219.69422912598</ele>
        <time>2014-06-04T14:37:58Z</time>
      </trkpt>
      <trkpt lat="43.41468" lon="6.10051">
        <ele>219.90440368652</ele>
        <time>2014-06-04T14:38:01Z</time>
      </trkpt>
      <trkpt lat="43.41467" lon="6.10046">
        <ele>219.87200927734</ele>
        <time>2014-06-04T14:38:03Z</time>
      </trkpt>
      <trkpt lat="43.41466" lon="6.10044">
        <ele>220.05044555664</ele>
        <time>2014-06-04T14:38:04Z</time>
      </trkpt>
      <trkpt lat="43.41465" lon="6.10041">
        <ele>220.07849121094</ele>
        <time>2014-06-04T14:38:05Z</time>
      </trkpt>
      <trkpt lat="43.41463" lon="6.10039">
        <ele>220.15838623047</ele>
        <time>2014-06-04T14:38:06Z</time>
      </trkpt>
      <trkpt lat="43.41458" lon="6.10028">
        <ele>219.54524230957</ele>
        <time>2014-06-04T14:38:10Z</time>
      </trkpt>
      <trkpt lat="43.41457" lon="6.10022">
        <ele>219.4677734375</ele>
        <time>2014-06-04T14:38:12Z</time>
      </trkpt>
      <trkpt lat="43.41453" lon="6.10009">
        <ele>219.47514343262</ele>
        <time>2014-06-04T14:38:16Z</time>
      </trkpt>
      <trkpt lat="43.41447" lon="6.09992">
        <ele>219.83862304688</ele>
        <time>2014-06-04T14:38:22Z</time>
      </trkpt>
      <trkpt lat="43.41443" lon="6.09978">
        <ele>220.69081115723</ele>
        <time>2014-06-04T14:38:26Z</time>
      </trkpt>
      <trkpt lat="43.41441" lon="6.09971">
        <ele>221.33299255371</ele>
        <time>2014-06-04T14:38:28Z</time>
      </trkpt>
      <trkpt lat="43.41439" lon="6.09959">
        <ele>222.07972717285</ele>
        <time>2014-06-04T14:38:31Z</time>
      </trkpt>
      <trkpt lat="43.41439" lon="6.09948">
        <ele>222.30821228027</ele>
        <time>2014-06-04T14:38:35Z</time>
      </trkpt>
      <trkpt lat="43.41439" lon="6.09944">
        <ele>222.28361511231</ele>
        <time>2014-06-04T14:38:36Z</time>
      </trkpt>
      <trkpt lat="43.41439" lon="6.09931">
        <ele>222.03973388672</ele>
        <time>2014-06-04T14:38:40Z</time>
      </trkpt>
      <trkpt lat="43.41439" lon="6.09927">
        <ele>222.01342773438</ele>
        <time>2014-06-04T14:38:41Z</time>
      </trkpt>
      <trkpt lat="43.41439" lon="6.0992">
        <ele>221.82662963867</ele>
        <time>2014-06-04T14:38:43Z</time>
      </trkpt>
      <trkpt lat="43.4144" lon="6.09902">
        <ele>221.44548034668</ele>
        <time>2014-06-04T14:38:50Z</time>
      </trkpt>
      <trkpt lat="43.41442" lon="6.09895">
        <ele>220.90272521973</ele>
        <time>2014-06-04T14:38:52Z</time>
      </trkpt>
      <trkpt lat="43.41446" lon="6.09886">
        <ele>219.92102050781</ele>
        <time>2014-06-04T14:38:55Z</time>
      </trkpt>
      <trkpt lat="43.41447" lon="6.0988">
        <ele>219.78369140625</ele>
        <time>2014-06-04T14:38:57Z</time>
      </trkpt>
      <trkpt lat="43.41447" lon="6.09877">
        <ele>219.81115722656</ele>
        <time>2014-06-04T14:38:58Z</time>
      </trkpt>
      <trkpt lat="43.41446" lon="6.09874">
        <ele>219.86608886719</ele>
        <time>2014-06-04T14:38:59Z</time>
      </trkpt>
      <trkpt lat="43.41446" lon="6.09871">
        <ele>219.86608886719</ele>
        <time>2014-06-04T14:39:00Z</time>
      </trkpt>
      <trkpt lat="43.41447" lon="6.09867">
        <ele>219.81115722656</ele>
        <time>2014-06-04T14:39:01Z</time>
      </trkpt>
      <trkpt lat="43.41447" lon="6.09864">
        <ele>219.81115722656</ele>
        <time>2014-06-04T14:39:02Z</time>
      </trkpt>
      <trkpt lat="43.41447" lon="6.09856">
        <ele>219.78369140625</ele>
        <time>2014-06-04T14:39:05Z</time>
      </trkpt>
      <trkpt lat="43.41446" lon="6.09845">
        <ele>219.86608886719</ele>
        <time>2014-06-04T14:39:11Z</time>
      </trkpt>
      <trkpt lat="43.41446" lon="6.09842">
        <ele>219.92102050781</ele>
        <time>2014-06-04T14:39:13Z</time>
      </trkpt>
      <trkpt lat="43.41445" lon="6.09837">
        <ele>219.97595214844</ele>
        <time>2014-06-04T14:39:15Z</time>
      </trkpt>
      <trkpt lat="43.41444" lon="6.09832">
        <ele>220.07022094727</ele>
        <time>2014-06-04T14:39:17Z</time>
      </trkpt>
      <trkpt lat="43.41445" lon="6.09828">
        <ele>220.18185424805</ele>
        <time>2014-06-04T14:39:19Z</time>
      </trkpt>
      <trkpt lat="43.41443" lon="6.09814">
        <ele>221.13624572754</ele>
        <time>2014-06-04T14:39:25Z</time>
      </trkpt>
      <trkpt lat="43.41442" lon="6.09797">
        <ele>221.90180969238</ele>
        <time>2014-06-04T14:39:30Z</time>
      </trkpt>
      <trkpt lat="43.41444" lon="6.09789">
        <ele>221.59901428223</ele>
        <time>2014-06-04T14:39:32Z</time>
      </trkpt>
      <trkpt lat="43.41448" lon="6.09782">
        <ele>221.45346069336</ele>
        <time>2014-06-04T14:39:34Z</time>
      </trkpt>
      <trkpt lat="43.41452" lon="6.09775">
        <ele>221.50140380859</ele>
        <time>2014-06-04T14:39:36Z</time>
      </trkpt>
      <trkpt lat="43.41457" lon="6.0976">
        <ele>222.13014221191</ele>
        <time>2014-06-04T14:39:40Z</time>
      </trkpt>
      <trkpt lat="43.41459" lon="6.09748">
        <ele>222.57695007324</ele>
        <time>2014-06-04T14:39:45Z</time>
      </trkpt>
      <trkpt lat="43.41461" lon="6.09741">
        <ele>222.8327331543</ele>
        <time>2014-06-04T14:39:47Z</time>
      </trkpt>
      <trkpt lat="43.41461" lon="6.09737">
        <ele>223.28591918945</ele>
        <time>2014-06-04T14:39:48Z</time>
      </trkpt>
      <trkpt lat="43.41463" lon="6.09725">
        <ele>224.13906860352</ele>
        <time>2014-06-04T14:39:51Z</time>
      </trkpt>
      <trkpt lat="43.41464" lon="6.09717">
        <ele>224.3557434082</ele>
        <time>2014-06-04T14:39:53Z</time>
      </trkpt>
      <trkpt lat="43.41466" lon="6.09704">
        <ele>224.8123626709</ele>
        <time>2014-06-04T14:39:56Z</time>
      </trkpt>
      <trkpt lat="43.41467" lon="6.097">
        <ele>224.83982849121</ele>
        <time>2014-06-04T14:39:57Z</time>
      </trkpt>
      <trkpt lat="43.41468" lon="6.09696">
        <ele>224.82609558106</ele>
        <time>2014-06-04T14:39:58Z</time>
      </trkpt>
      <trkpt lat="43.4147" lon="6.09693">
        <ele>224.81791687012</ele>
        <time>2014-06-04T14:39:59Z</time>
      </trkpt>
      <trkpt lat="43.41475" lon="6.09684">
        <ele>224.48449707031</ele>
        <time>2014-06-04T14:40:03Z</time>
      </trkpt>
      <trkpt lat="43.41476" lon="6.09683">
        <ele>224.44538879394</ele>
        <time>2014-06-04T14:40:06Z</time>
      </trkpt>
      <trkpt lat="43.41476" lon="6.09683">
        <ele>224.44538879394</ele>
        <time>2014-06-04T14:40:28Z</time>
      </trkpt>
      <trkpt lat="43.41476" lon="6.09682">
        <ele>224.61734008789</ele>
        <time>2014-06-04T14:40:39Z</time>
      </trkpt>
      <trkpt lat="43.41476" lon="6.09681">
        <ele>224.58151245117</ele>
        <time>2014-06-04T14:40:45Z</time>
      </trkpt>
      <trkpt lat="43.41476" lon="6.09681">
        <ele>224.58151245117</ele>
        <time>2014-06-04T14:41:05Z</time>
      </trkpt>
      <trkpt lat="43.41476" lon="6.09681">
        <ele>224.58151245117</ele>
        <time>2014-06-04T14:41:17Z</time>
      </trkpt>
      <trkpt lat="43.41477" lon="6.0968">
        <ele>224.56198120117</ele>
        <time>2014-06-04T14:41:23Z</time>
      </trkpt>
      <trkpt lat="43.41477" lon="6.0968">
        <ele>224.56198120117</ele>
        <time>2014-06-04T14:41:24Z</time>
      </trkpt>
      <trkpt lat="43.41478" lon="6.09678">
        <ele>224.65498352051</ele>
        <time>2014-06-04T14:41:29Z</time>
      </trkpt>
      <trkpt lat="43.41479" lon="6.09674">
        <ele>224.75135803223</ele>
        <time>2014-06-04T14:41:31Z</time>
      </trkpt>
      <trkpt lat="43.41479" lon="6.09668">
        <ele>225.24961853027</ele>
        <time>2014-06-04T14:41:34Z</time>
      </trkpt>
      <trkpt lat="43.4148" lon="6.09668">
        <ele>225.23361206055</ele>
        <time>2014-06-04T14:41:36Z</time>
      </trkpt>
      <trkpt lat="43.41478" lon="6.0966">
        <ele>226.55078125</ele>
        <time>2014-06-04T14:41:45Z</time>
      </trkpt>
      <trkpt lat="43.41478" lon="6.09656">
        <ele>226.98851013184</ele>
        <time>2014-06-04T14:41:49Z</time>
      </trkpt>
      <trkpt lat="43.41477" lon="6.09655">
        <ele>227.16876220703</ele>
        <time>2014-06-04T14:41:50Z</time>
      </trkpt>
      <trkpt lat="43.41476" lon="6.09653">
        <ele>227.77128601074</ele>
        <time>2014-06-04T14:41:53Z</time>
      </trkpt>
      <trkpt lat="43.41476" lon="6.09651">
        <ele>227.96182250977</ele>
        <time>2014-06-04T14:41:58Z</time>
      </trkpt>
      <trkpt lat="43.41475" lon="6.09648">
        <ele>228.43560791016</ele>
        <time>2014-06-04T14:42:03Z</time>
      </trkpt>
      <trkpt lat="43.41476" lon="6.09646">
        <ele>228.47680664062</ele>
        <time>2014-06-04T14:42:05Z</time>
      </trkpt>
      <trkpt lat="43.41476" lon="6.09645">
        <ele>228.46136474609</ele>
        <time>2014-06-04T14:42:06Z</time>
      </trkpt>
      <trkpt lat="43.41476" lon="6.09645">
        <ele>228.46136474609</ele>
        <time>2014-06-04T14:42:08Z</time>
      </trkpt>
      <trkpt lat="43.41477" lon="6.09643">
        <ele>228.5231628418</ele>
        <time>2014-06-04T14:42:10Z</time>
      </trkpt>
      <trkpt lat="43.41478" lon="6.09639">
        <ele>228.69825744629</ele>
        <time>2014-06-04T14:42:15Z</time>
      </trkpt>
      <trkpt lat="43.41478" lon="6.09639">
        <ele>228.66220092773</ele>
        <time>2014-06-04T14:42:21Z</time>
      </trkpt>
      <trkpt lat="43.41478" lon="6.09639">
        <ele>228.66220092773</ele>
        <time>2014-06-04T14:42:23Z</time>
      </trkpt>
      <trkpt lat="43.41478" lon="6.09638">
        <ele>228.85249328613</ele>
        <time>2014-06-04T14:42:33Z</time>
      </trkpt>
      <trkpt lat="43.41478" lon="6.09635">
        <ele>229.13745117188</ele>
        <time>2014-06-04T14:42:39Z</time>
      </trkpt>
      <trkpt lat="43.41477" lon="6.09631">
        <ele>229.54257202148</ele>
        <time>2014-06-04T14:42:41Z</time>
      </trkpt>
      <trkpt lat="43.41476" lon="6.09626">
        <ele>230.12965393066</ele>
        <time>2014-06-04T14:42:44Z</time>
      </trkpt>
      <trkpt lat="43.41475" lon="6.09621">
        <ele>230.64120483398</ele>
        <time>2014-06-04T14:42:47Z</time>
      </trkpt>
      <trkpt lat="43.41475" lon="6.09615">
        <ele>231.04289245606</ele>
        <time>2014-06-04T14:42:50Z</time>
      </trkpt>
      <trkpt lat="43.41475" lon="6.0961">
        <ele>231.42674255371</ele>
        <time>2014-06-04T14:42:53Z</time>
      </trkpt>
      <trkpt lat="43.41479" lon="6.09602">
        <ele>231.42674255371</ele>
        <time>2014-06-04T14:42:57Z</time>
      </trkpt>
      <trkpt lat="43.41482" lon="6.09595">
        <ele>231.69453430176</ele>
        <time>2014-06-04T14:43:01Z</time>
      </trkpt>
      <trkpt lat="43.41488" lon="6.09582">
        <ele>231.70999145508</ele>
        <time>2014-06-04T14:43:08Z</time>
      </trkpt>
      <trkpt lat="43.41492" lon="6.09576">
        <ele>231.62243652344</ele>
        <time>2014-06-04T14:43:12Z</time>
      </trkpt>
      <trkpt lat="43.41492" lon="6.09574">
        <ele>231.75119018555</ele>
        <time>2014-06-04T14:43:16Z</time>
      </trkpt>
      <trkpt lat="43.41492" lon="6.09574">
        <ele>231.75119018555</ele>
        <time>2014-06-04T14:43:17Z</time>
      </trkpt>
      <trkpt lat="43.41492" lon="6.09574">
        <ele>231.75119018555</ele>
        <time>2014-06-04T14:43:22Z</time>
      </trkpt>
      <trkpt lat="43.41493" lon="6.09569">
        <ele>232.07562255859</ele>
        <time>2014-06-04T14:43:26Z</time>
      </trkpt>
      <trkpt lat="43.41494" lon="6.09568">
        <ele>232.04472351074</ele>
        <time>2014-06-04T14:43:27Z</time>
      </trkpt>
      <trkpt lat="43.41497" lon="6.09562">
        <ele>231.81813049316</ele>
        <time>2014-06-04T14:43:30Z</time>
      </trkpt>
      <trkpt lat="43.415" lon="6.09558">
        <ele>231.82843017578</ele>
        <time>2014-06-04T14:43:32Z</time>
      </trkpt>
      <trkpt lat="43.415" lon="6.09557">
        <ele>231.74736022949</ele>
        <time>2014-06-04T14:43:33Z</time>
      </trkpt>
      <trkpt lat="43.41502" lon="6.09556">
        <ele>231.49493408203</ele>
        <time>2014-06-04T14:43:34Z</time>
      </trkpt>
      <trkpt lat="43.41504" lon="6.09555">
        <ele>231.02197265625</ele>
        <time>2014-06-04T14:43:35Z</time>
      </trkpt>
      <trkpt lat="43.41507" lon="6.09552">
        <ele>230.46894836426</ele>
        <time>2014-06-04T14:43:37Z</time>
      </trkpt>
      <trkpt lat="43.41508" lon="6.09541">
        <ele>231.16661071777</ele>
        <time>2014-06-04T14:43:42Z</time>
      </trkpt>
      <trkpt lat="43.41509" lon="6.09533">
        <ele>231.47285461426</ele>
        <time>2014-06-04T14:43:46Z</time>
      </trkpt>
      <trkpt lat="43.4151" lon="6.09528">
        <ele>231.7721862793</ele>
        <time>2014-06-04T14:43:49Z</time>
      </trkpt>
      <trkpt lat="43.41513" lon="6.0952">
        <ele>231.64859008789</ele>
        <time>2014-06-04T14:43:53Z</time>
      </trkpt>
      <trkpt lat="43.41513" lon="6.09517">
        <ele>231.76704406738</ele>
        <time>2014-06-04T14:43:54Z</time>
      </trkpt>
      <trkpt lat="43.41516" lon="6.09507">
        <ele>232.16357421875</ele>
        <time>2014-06-04T14:43:58Z</time>
      </trkpt>
      <trkpt lat="43.41518" lon="6.09502">
        <ele>231.92669677734</ele>
        <time>2014-06-04T14:44:00Z</time>
      </trkpt>
      <trkpt lat="43.4152" lon="6.09498">
        <ele>231.86854553223</ele>
        <time>2014-06-04T14:44:06Z</time>
      </trkpt>
      <trkpt lat="43.4152" lon="6.09498">
        <ele>231.86854553223</ele>
        <time>2014-06-04T14:44:15Z</time>
      </trkpt>
      <trkpt lat="43.4152" lon="6.09493">
        <ele>232.08753967285</ele>
        <time>2014-06-04T14:44:17Z</time>
      </trkpt>
      <trkpt lat="43.41521" lon="6.09491">
        <ele>231.92195129394</ele>
        <time>2014-06-04T14:44:18Z</time>
      </trkpt>
      <trkpt lat="43.41523" lon="6.0949">
        <ele>231.48652648926</ele>
        <time>2014-06-04T14:44:19Z</time>
      </trkpt>
      <trkpt lat="43.41528" lon="6.09486">
        <ele>230.57858276367</ele>
        <time>2014-06-04T14:44:21Z</time>
      </trkpt>
      <trkpt lat="43.41529" lon="6.09484">
        <ele>230.36657714844</ele>
        <time>2014-06-04T14:44:22Z</time>
      </trkpt>
      <trkpt lat="43.41529" lon="6.09482">
        <ele>230.21328735352</ele>
        <time>2014-06-04T14:44:23Z</time>
      </trkpt>
      <trkpt lat="43.4153" lon="6.09481">
        <ele>230.03961181641</ele>
        <time>2014-06-04T14:44:24Z</time>
      </trkpt>
      <trkpt lat="43.41532" lon="6.09478">
        <ele>229.55001831055</ele>
        <time>2014-06-04T14:44:26Z</time>
      </trkpt>
      <trkpt lat="43.41533" lon="6.09476">
        <ele>229.3856048584</ele>
        <time>2014-06-04T14:44:28Z</time>
      </trkpt>
      <trkpt lat="43.41533" lon="6.09476">
        <ele>229.43981933594</ele>
        <time>2014-06-04T14:44:31Z</time>
      </trkpt>
      <trkpt lat="43.41533" lon="6.09476">
        <ele>229.43981933594</ele>
        <time>2014-06-04T14:44:53Z</time>
      </trkpt>
      <trkpt lat="43.41533" lon="6.09476">
        <ele>229.43981933594</ele>
        <time>2014-06-04T14:45:03Z</time>
      </trkpt>
      <trkpt lat="43.41533" lon="6.09475">
        <ele>229.39486694336</ele>
        <time>2014-06-04T14:45:05Z</time>
      </trkpt>
      <trkpt lat="43.41534" lon="6.0947">
        <ele>229.30364990234</ele>
        <time>2014-06-04T14:45:11Z</time>
      </trkpt>
      <trkpt lat="43.41533" lon="6.09468">
        <ele>229.93879699707</ele>
        <time>2014-06-04T14:45:14Z</time>
      </trkpt>
      <trkpt lat="43.41533" lon="6.09468">
        <ele>229.93879699707</ele>
        <time>2014-06-04T14:45:17Z</time>
      </trkpt>
      <trkpt lat="43.41533" lon="6.09464">
        <ele>230.53961181641</ele>
        <time>2014-06-04T14:45:23Z</time>
      </trkpt>
      <trkpt lat="43.41533" lon="6.09461">
        <ele>230.73873901367</ele>
        <time>2014-06-04T14:45:30Z</time>
      </trkpt>
      <trkpt lat="43.41534" lon="6.09455">
        <ele>230.68724060059</ele>
        <time>2014-06-04T14:45:35Z</time>
      </trkpt>
      <trkpt lat="43.41534" lon="6.09452">
        <ele>230.59454345703</ele>
        <time>2014-06-04T14:45:37Z</time>
      </trkpt>
      <trkpt lat="43.41534" lon="6.0945">
        <ele>230.73187255859</ele>
        <time>2014-06-04T14:45:38Z</time>
      </trkpt>
      <trkpt lat="43.41535" lon="6.09449">
        <ele>230.65634155273</ele>
        <time>2014-06-04T14:45:39Z</time>
      </trkpt>
      <trkpt lat="43.41535" lon="6.09449">
        <ele>230.67007446289</ele>
        <time>2014-06-04T14:45:40Z</time>
      </trkpt>
      <trkpt lat="43.41535" lon="6.09449">
        <ele>230.67007446289</ele>
        <time>2014-06-04T14:46:08Z</time>
      </trkpt>
      <trkpt lat="43.41535" lon="6.09448">
        <ele>230.69067382812</ele>
        <time>2014-06-04T14:46:26Z</time>
      </trkpt>
      <trkpt lat="43.41535" lon="6.09448">
        <ele>230.69067382812</ele>
        <time>2014-06-04T14:46:36Z</time>
      </trkpt>
      <trkpt lat="43.41535" lon="6.09447">
        <ele>230.63230895996</ele>
        <time>2014-06-04T14:46:43Z</time>
      </trkpt>
      <trkpt lat="43.41536" lon="6.09446">
        <ele>230.19285583496</ele>
        <time>2014-06-04T14:46:51Z</time>
      </trkpt>
      <trkpt lat="43.41537" lon="6.09446">
        <ele>229.88386535644</ele>
        <time>2014-06-04T14:46:53Z</time>
      </trkpt>
      <trkpt lat="43.4154" lon="6.09442">
        <ele>228.97296142578</ele>
        <time>2014-06-04T14:46:56Z</time>
      </trkpt>
      <trkpt lat="43.41541" lon="6.09435">
        <ele>229.3385925293</ele>
        <time>2014-06-04T14:47:00Z</time>
      </trkpt>
      <trkpt lat="43.41542" lon="6.09433">
        <ele>229.27163696289</ele>
        <time>2014-06-04T14:47:01Z</time>
      </trkpt>
      <trkpt lat="43.41542" lon="6.09425">
        <ele>229.88961791992</ele>
        <time>2014-06-04T14:47:06Z</time>
      </trkpt>
      <trkpt lat="43.41542" lon="6.09425">
        <ele>229.97717285156</ele>
        <time>2014-06-04T14:47:11Z</time>
      </trkpt>
      <trkpt lat="43.41542" lon="6.09425">
        <ele>229.97717285156</ele>
        <time>2014-06-04T14:47:12Z</time>
      </trkpt>
      <trkpt lat="43.41542" lon="6.09424">
        <ele>230.23466491699</ele>
        <time>2014-06-04T14:47:15Z</time>
      </trkpt>
      <trkpt lat="43.41542" lon="6.09423">
        <ele>230.27586364746</ele>
        <time>2014-06-04T14:47:16Z</time>
      </trkpt>
      <trkpt lat="43.41542" lon="6.09422">
        <ele>230.4200592041</ele>
        <time>2014-06-04T14:47:17Z</time>
      </trkpt>
      <trkpt lat="43.41542" lon="6.09422">
        <ele>230.4200592041</ele>
        <time>2014-06-04T14:47:18Z</time>
      </trkpt>
      <trkpt lat="43.41542" lon="6.09422">
        <ele>230.4200592041</ele>
        <time>2014-06-04T14:47:20Z</time>
      </trkpt>
      <trkpt lat="43.41541" lon="6.09419">
        <ele>231.27493286133</ele>
        <time>2014-06-04T14:47:29Z</time>
      </trkpt>
      <trkpt lat="43.4154" lon="6.09415">
        <ele>231.81404113769</ele>
        <time>2014-06-04T14:47:31Z</time>
      </trkpt>
      <trkpt lat="43.41539" lon="6.09408">
        <ele>232.97940063477</ele>
        <time>2014-06-04T14:47:34Z</time>
      </trkpt>
      <trkpt lat="43.41539" lon="6.09408">
        <ele>232.97940063477</ele>
        <time>2014-06-04T14:47:42Z</time>
      </trkpt>
      <trkpt lat="43.41541" lon="6.09404">
        <ele>232.60803222656</ele>
        <time>2014-06-04T14:47:52Z</time>
      </trkpt>
      <trkpt lat="43.41542" lon="6.09394">
        <ele>232.69184875488</ele>
        <time>2014-06-04T14:47:56Z</time>
      </trkpt>
      <trkpt lat="43.41542" lon="6.09391">
        <ele>232.94648742676</ele>
        <time>2014-06-04T14:48:00Z</time>
      </trkpt>
      <trkpt lat="43.41542" lon="6.09391">
        <ele>232.94648742676</ele>
        <time>2014-06-04T14:48:11Z</time>
      </trkpt>
      <trkpt lat="43.41542" lon="6.09389">
        <ele>233.13746643066</ele>
        <time>2014-06-04T14:48:20Z</time>
      </trkpt>
      <trkpt lat="43.41542" lon="6.09386">
        <ele>233.29618835449</ele>
        <time>2014-06-04T14:48:22Z</time>
      </trkpt>
      <trkpt lat="43.41542" lon="6.09386">
        <ele>233.29618835449</ele>
        <time>2014-06-04T14:48:27Z</time>
      </trkpt>
      <trkpt lat="43.41542" lon="6.09384">
        <ele>233.75590515137</ele>
        <time>2014-06-04T14:48:28Z</time>
      </trkpt>
      <trkpt lat="43.41541" lon="6.09379">
        <ele>234.53022766113</ele>
        <time>2014-06-04T14:48:31Z</time>
      </trkpt>
      <trkpt lat="43.41541" lon="6.09374">
        <ele>234.46844482422</ele>
        <time>2014-06-04T14:48:35Z</time>
      </trkpt>
      <trkpt lat="43.41542" lon="6.09372">
        <ele>234.40245056152</ele>
        <time>2014-06-04T14:48:36Z</time>
      </trkpt>
      <trkpt lat="43.41542" lon="6.09371">
        <ele>234.30433654785</ele>
        <time>2014-06-04T14:48:37Z</time>
      </trkpt>
      <trkpt lat="43.41542" lon="6.0937">
        <ele>234.52093505859</ele>
        <time>2014-06-04T14:48:40Z</time>
      </trkpt>
      <trkpt lat="43.41542" lon="6.09364">
        <ele>234.55158996582</ele>
        <time>2014-06-04T14:48:46Z</time>
      </trkpt>
      <trkpt lat="43.41541" lon="6.09359">
        <ele>235.32855224609</ele>
        <time>2014-06-04T14:48:50Z</time>
      </trkpt>
      <trkpt lat="43.41541" lon="6.09359">
        <ele>235.32855224609</ele>
        <time>2014-06-04T14:48:52Z</time>
      </trkpt>
      <trkpt lat="43.41541" lon="6.09357">
        <ele>235.51853942871</ele>
        <time>2014-06-04T14:48:53Z</time>
      </trkpt>
      <trkpt lat="43.41542" lon="6.09355">
        <ele>235.58506774902</ele>
        <time>2014-06-04T14:48:54Z</time>
      </trkpt>
      <trkpt lat="43.41542" lon="6.09351">
        <ele>235.63569641113</ele>
        <time>2014-06-04T14:48:59Z</time>
      </trkpt>
      <trkpt lat="43.41545" lon="6.09345">
        <ele>235.52574157715</ele>
        <time>2014-06-04T14:49:05Z</time>
      </trkpt>
      <trkpt lat="43.41548" lon="6.09334">
        <ele>235.77210998535</ele>
        <time>2014-06-04T14:49:10Z</time>
      </trkpt>
      <trkpt lat="43.4155" lon="6.09329">
        <ele>235.21701049805</ele>
        <time>2014-06-04T14:49:15Z</time>
      </trkpt>
      <trkpt lat="43.4155" lon="6.09329">
        <ele>235.21701049805</ele>
        <time>2014-06-04T14:49:21Z</time>
      </trkpt>
      <trkpt lat="43.41551" lon="6.09325">
        <ele>234.88914489746</ele>
        <time>2014-06-04T14:49:26Z</time>
      </trkpt>
      <trkpt lat="43.41552" lon="6.09319">
        <ele>234.39476013184</ele>
        <time>2014-06-04T14:49:33Z</time>
      </trkpt>
      <trkpt lat="43.41553" lon="6.09317">
        <ele>234.10636901856</ele>
        <time>2014-06-04T14:49:39Z</time>
      </trkpt>
      <trkpt lat="43.41553" lon="6.09317">
        <ele>234.10636901856</ele>
        <time>2014-06-04T14:49:43Z</time>
      </trkpt>
      <trkpt lat="43.41553" lon="6.09316">
        <ele>234.07376098633</ele>
        <time>2014-06-04T14:49:46Z</time>
      </trkpt>
      <trkpt lat="43.41553" lon="6.09316">
        <ele>234.07376098633</ele>
        <time>2014-06-04T14:49:56Z</time>
      </trkpt>
      <trkpt lat="43.41553" lon="6.09316">
        <ele>234.07376098633</ele>
        <time>2014-06-04T14:50:07Z</time>
      </trkpt>
      <trkpt lat="43.41554" lon="6.09312">
        <ele>233.54846191406</ele>
        <time>2014-06-04T14:50:09Z</time>
      </trkpt>
      <trkpt lat="43.41556" lon="6.09305">
        <ele>232.82373046875</ele>
        <time>2014-06-04T14:50:11Z</time>
      </trkpt>
      <trkpt lat="43.4156" lon="6.09299">
        <ele>231.8349609375</ele>
        <time>2014-06-04T14:50:14Z</time>
      </trkpt>
      <trkpt lat="43.4156" lon="6.09298">
        <ele>231.8349609375</ele>
        <time>2014-06-04T14:50:15Z</time>
      </trkpt>
      <trkpt lat="43.4156" lon="6.09298">
        <ele>231.8349609375</ele>
        <time>2014-06-04T14:50:16Z</time>
      </trkpt>
      <trkpt lat="43.4156" lon="6.09298">
        <ele>231.8349609375</ele>
        <time>2014-06-04T14:50:27Z</time>
      </trkpt>
      <trkpt lat="43.4156" lon="6.09295">
        <ele>231.615234375</ele>
        <time>2014-06-04T14:50:37Z</time>
      </trkpt>
      <trkpt lat="43.41562" lon="6.0929">
        <ele>231.28564453125</ele>
        <time>2014-06-04T14:50:43Z</time>
      </trkpt>
      <trkpt lat="43.41562" lon="6.0929">
        <ele>231.28564453125</ele>
        <time>2014-06-04T14:50:47Z</time>
      </trkpt>
      <trkpt lat="43.41562" lon="6.09287">
        <ele>231.06591796875</ele>
        <time>2014-06-04T14:50:50Z</time>
      </trkpt>
      <trkpt lat="43.41562" lon="6.09287">
        <ele>231.06591796875</ele>
        <time>2014-06-04T14:50:51Z</time>
      </trkpt>
      <trkpt lat="43.41562" lon="6.09285">
        <ele>231.06591796875</ele>
        <time>2014-06-04T14:50:54Z</time>
      </trkpt>
      <trkpt lat="43.41562" lon="6.09283">
        <ele>231.28564453125</ele>
        <time>2014-06-04T14:50:56Z</time>
      </trkpt>
      <trkpt lat="43.41562" lon="6.09283">
        <ele>231.28564453125</ele>
        <time>2014-06-04T14:51:01Z</time>
      </trkpt>
      <trkpt lat="43.41562" lon="6.09281">
        <ele>231.06591796875</ele>
        <time>2014-06-04T14:51:03Z</time>
      </trkpt>
      <trkpt lat="43.41562" lon="6.09281">
        <ele>231.06591796875</ele>
        <time>2014-06-04T14:51:13Z</time>
      </trkpt>
      <trkpt lat="43.41562" lon="6.0928">
        <ele>231.17578125</ele>
        <time>2014-06-04T14:51:20Z</time>
      </trkpt>
      <trkpt lat="43.41562" lon="6.0928">
        <ele>231.17578125</ele>
        <time>2014-06-04T14:51:29Z</time>
      </trkpt>
      <trkpt lat="43.41562" lon="6.0928">
        <ele>231.17578125</ele>
        <time>2014-06-04T14:51:42Z</time>
      </trkpt>
      <trkpt lat="43.41563" lon="6.09278">
        <ele>230.84619140625</ele>
        <time>2014-06-04T14:51:51Z</time>
      </trkpt>
      <trkpt lat="43.41565" lon="6.09277">
        <ele>230.41792297363</ele>
        <time>2014-06-04T14:51:52Z</time>
      </trkpt>
      <trkpt lat="43.41567" lon="6.09276">
        <ele>229.66879272461</ele>
        <time>2014-06-04T14:51:54Z</time>
      </trkpt>
      <trkpt lat="43.41571" lon="6.09274">
        <ele>228.61573791504</ele>
        <time>2014-06-04T14:51:56Z</time>
      </trkpt>
      <trkpt lat="43.41573" lon="6.09273">
        <ele>227.99536132812</ele>
        <time>2014-06-04T14:51:57Z</time>
      </trkpt>
      <trkpt lat="43.41575" lon="6.0927">
        <ele>227.53263854981</ele>
        <time>2014-06-04T14:51:58Z</time>
      </trkpt>
      <trkpt lat="43.41576" lon="6.09267">
        <ele>227.49861145019</ele>
        <time>2014-06-04T14:51:59Z</time>
      </trkpt>
      <trkpt lat="43.41575" lon="6.09265">
        <ele>227.66159057617</ele>
        <time>2014-06-04T14:52:00Z</time>
      </trkpt>
      <trkpt lat="43.41575" lon="6.09263">
        <ele>227.71025085449</ele>
        <time>2014-06-04T14:52:01Z</time>
      </trkpt>
      <trkpt lat="43.41578" lon="6.09255">
        <ele>227.11080932617</ele>
        <time>2014-06-04T14:52:04Z</time>
      </trkpt>
      <trkpt lat="43.41583" lon="6.09249">
        <ele>226.11599731445</ele>
        <time>2014-06-04T14:52:08Z</time>
      </trkpt>
      <trkpt lat="43.41584" lon="6.09248">
        <ele>225.73010253906</ele>
        <time>2014-06-04T14:52:13Z</time>
      </trkpt>
      <trkpt lat="43.41584" lon="6.09248">
        <ele>225.73010253906</ele>
        <time>2014-06-04T14:52:26Z</time>
      </trkpt>
      <trkpt lat="43.41584" lon="6.09247">
        <ele>225.57904052734</ele>
        <time>2014-06-04T14:52:30Z</time>
      </trkpt>
      <trkpt lat="43.41584" lon="6.09247">
        <ele>225.57904052734</ele>
        <time>2014-06-04T14:52:33Z</time>
      </trkpt>
      <trkpt lat="43.41584" lon="6.09247">
        <ele>225.73010253906</ele>
        <time>2014-06-04T14:52:44Z</time>
      </trkpt>
      <trkpt lat="43.41584" lon="6.09247">
        <ele>225.73010253906</ele>
        <time>2014-06-04T14:52:56Z</time>
      </trkpt>
      <trkpt lat="43.41584" lon="6.09245">
        <ele>225.88116455078</ele>
        <time>2014-06-04T14:53:03Z</time>
      </trkpt>
      <trkpt lat="43.41587" lon="6.0925">
        <ele>224.66899108887</ele>
        <time>2014-06-04T14:53:09Z</time>
      </trkpt>
      <trkpt lat="43.41588" lon="6.09256">
        <ele>224.05195617676</ele>
        <time>2014-06-04T14:53:12Z</time>
      </trkpt>
      <trkpt lat="43.41583" lon="6.09268">
        <ele>225.48457336426</ele>
        <time>2014-06-04T14:53:18Z</time>
      </trkpt>
      <trkpt lat="43.41583" lon="6.09277">
        <ele>225.14529418945</ele>
        <time>2014-06-04T14:53:22Z</time>
      </trkpt>
      <trkpt lat="43.41584" lon="6.09283">
        <ele>224.88996887207</ele>
        <time>2014-06-04T14:53:24Z</time>
      </trkpt>
      <trkpt lat="43.41587" lon="6.09305">
        <ele>223.6746673584</ele>
        <time>2014-06-04T14:53:31Z</time>
      </trkpt>
      <trkpt lat="43.41588" lon="6.0932">
        <ele>222.65185546875</ele>
        <time>2014-06-04T14:53:35Z</time>
      </trkpt>
      <trkpt lat="43.41591" lon="6.09327">
        <ele>221.30261230469</ele>
        <time>2014-06-04T14:53:37Z</time>
      </trkpt>
      <trkpt lat="43.41594" lon="6.09329">
        <ele>220.14140319824</ele>
        <time>2014-06-04T14:53:38Z</time>
      </trkpt>
      <trkpt lat="43.41598" lon="6.0933">
        <ele>218.73057556152</ele>
        <time>2014-06-04T14:53:39Z</time>
      </trkpt>
      <trkpt lat="43.41602" lon="6.0933">
        <ele>217.20584106445</ele>
        <time>2014-06-04T14:53:40Z</time>
      </trkpt>
      <trkpt lat="43.41611" lon="6.09327">
        <ele>213.81372070312</ele>
        <time>2014-06-04T14:53:42Z</time>
      </trkpt>
      <trkpt lat="43.41627" lon="6.09324">
        <ele>205.93103027344</ele>
        <time>2014-06-04T14:53:46Z</time>
      </trkpt>
      <trkpt lat="43.41651" lon="6.09319">
        <ele>200</ele>
        <time>2014-06-04T14:53:52Z</time>
      </trkpt>
      <trkpt lat="43.41673" lon="6.09313">
        <ele>200</ele>
        <time>2014-06-04T14:53:58Z</time>
      </trkpt>
      <trkpt lat="43.41687" lon="6.09311">
        <ele>200</ele>
        <time>2014-06-04T14:54:03Z</time>
      </trkpt>
      <trkpt lat="43.41693" lon="6.0931">
        <ele>200</ele>
        <time>2014-06-04T14:54:06Z</time>
      </trkpt>
      <trkpt lat="43.41698" lon="6.0931">
        <ele>200.54963684082</ele>
        <time>2014-06-04T14:54:09Z</time>
      </trkpt>
      <trkpt lat="43.41698" lon="6.0931">
        <ele>200.67427062988</ele>
        <time>2014-06-04T14:54:14Z</time>
      </trkpt>
      <trkpt lat="43.417" lon="6.09311">
        <ele>200.9211730957</ele>
        <time>2014-06-04T14:54:20Z</time>
      </trkpt>
      <trkpt lat="43.41702" lon="6.09309">
        <ele>201.20558166504</ele>
        <time>2014-06-04T14:54:26Z</time>
      </trkpt>
      <trkpt lat="43.41709" lon="6.09305">
        <ele>202.57598876953</ele>
        <time>2014-06-04T14:54:30Z</time>
      </trkpt>
      <trkpt lat="43.41719" lon="6.09298">
        <ele>204.42993164062</ele>
        <time>2014-06-04T14:54:35Z</time>
      </trkpt>
      <trkpt lat="43.41724" lon="6.0928">
        <ele>205.15234375</ele>
        <time>2014-06-04T14:54:40Z</time>
      </trkpt>
      <trkpt lat="43.41723" lon="6.0925">
        <ele>205.10159301758</ele>
        <time>2014-06-04T14:54:47Z</time>
      </trkpt>
      <trkpt lat="43.41722" lon="6.09202">
        <ele>203.99169921875</ele>
        <time>2014-06-04T14:54:56Z</time>
      </trkpt>
      <trkpt lat="43.41722" lon="6.09147">
        <ele>204.92846679688</ele>
        <time>2014-06-04T14:55:05Z</time>
      </trkpt>
      <trkpt lat="43.41722" lon="6.09141">
        <ele>204.9833984375</ele>
        <time>2014-06-04T14:55:06Z</time>
      </trkpt>
      <trkpt lat="43.41722" lon="6.09104">
        <ele>204.98754882812</ele>
        <time>2014-06-04T14:55:12Z</time>
      </trkpt>
      <trkpt lat="43.41724" lon="6.09059">
        <ele>205.12902832031</ele>
        <time>2014-06-04T14:55:20Z</time>
      </trkpt>
      <trkpt lat="43.41728" lon="6.09013">
        <ele>205.60552978516</ele>
        <time>2014-06-04T14:55:28Z</time>
      </trkpt>
      <trkpt lat="43.41729" lon="6.09007">
        <ele>205.68792724609</ele>
        <time>2014-06-04T14:55:29Z</time>
      </trkpt>
      <trkpt lat="43.41733" lon="6.08983">
        <ele>206.18231201172</ele>
        <time>2014-06-04T14:55:34Z</time>
      </trkpt>
      <trkpt lat="43.41738" lon="6.08942">
        <ele>207.23559570312</ele>
        <time>2014-06-04T14:55:41Z</time>
      </trkpt>
      <trkpt lat="43.41737" lon="6.089">
        <ele>207.07080078125</ele>
        <time>2014-06-04T14:55:48Z</time>
      </trkpt>
      <trkpt lat="43.41735" lon="6.08883">
        <ele>207.25451660156</ele>
        <time>2014-06-04T14:55:51Z</time>
      </trkpt>
      <trkpt lat="43.41731" lon="6.08872">
        <ele>207.4776763916</ele>
        <time>2014-06-04T14:55:53Z</time>
      </trkpt>
      <trkpt lat="43.41727" lon="6.08862">
        <ele>207.54977416992</ele>
        <time>2014-06-04T14:55:55Z</time>
      </trkpt>
      <trkpt lat="43.41714" lon="6.08837">
        <ele>207.23200988769</ele>
        <time>2014-06-04T14:56:00Z</time>
      </trkpt>
      <trkpt lat="43.4169" lon="6.08796">
        <ele>207.21913146973</ele>
        <time>2014-06-04T14:56:08Z</time>
      </trkpt>
      <trkpt lat="43.41656" lon="6.08733">
        <ele>208.28335571289</ele>
        <time>2014-06-04T14:56:23Z</time>
      </trkpt>
      <trkpt lat="43.4164" lon="6.08704">
        <ele>207.76748657227</ele>
        <time>2014-06-04T14:56:30Z</time>
      </trkpt>
      <trkpt lat="43.41625" lon="6.08676">
        <ele>205.97583007812</ele>
        <time>2014-06-04T14:56:37Z</time>
      </trkpt>
      <trkpt lat="43.41611" lon="6.08646">
        <ele>204.72599792481</ele>
        <time>2014-06-04T14:56:44Z</time>
      </trkpt>
      <trkpt lat="43.41605" lon="6.08616">
        <ele>205.41790771484</ele>
        <time>2014-06-04T14:56:50Z</time>
      </trkpt>
      <trkpt lat="43.41597" lon="6.08561">
        <ele>206.74258422852</ele>
        <time>2014-06-04T14:57:02Z</time>
      </trkpt>
      <trkpt lat="43.41594" lon="6.08549">
        <ele>206.79064941406</ele>
        <time>2014-06-04T14:57:05Z</time>
      </trkpt>
      <trkpt lat="43.41593" lon="6.08535">
        <ele>206.68078613281</ele>
        <time>2014-06-04T14:57:08Z</time>
      </trkpt>
      <trkpt lat="43.41589" lon="6.085">
        <ele>207.41799926758</ele>
        <time>2014-06-04T14:57:15Z</time>
      </trkpt>
      <trkpt lat="43.41585" lon="6.08466">
        <ele>208.11564636231</ele>
        <time>2014-06-04T14:57:22Z</time>
      </trkpt>
      <trkpt lat="43.4158" lon="6.08431">
        <ele>208.18302917481</ele>
        <time>2014-06-04T14:57:29Z</time>
      </trkpt>
      <trkpt lat="43.41574" lon="6.08396">
        <ele>208.25204467773</ele>
        <time>2014-06-04T14:57:36Z</time>
      </trkpt>
      <trkpt lat="43.41566" lon="6.08358">
        <ele>208.17846679688</ele>
        <time>2014-06-04T14:57:43Z</time>
      </trkpt>
      <trkpt lat="43.4156" lon="6.0832">
        <ele>207.91354370117</ele>
        <time>2014-06-04T14:57:50Z</time>
      </trkpt>
      <trkpt lat="43.41552" lon="6.08283">
        <ele>207.42895507812</ele>
        <time>2014-06-04T14:57:57Z</time>
      </trkpt>
      <trkpt lat="43.41543" lon="6.08254">
        <ele>207.07290649414</ele>
        <time>2014-06-04T14:58:03Z</time>
      </trkpt>
      <trkpt lat="43.41529" lon="6.08223">
        <ele>206.13035583496</ele>
        <time>2014-06-04T14:58:10Z</time>
      </trkpt>
      <trkpt lat="43.41517" lon="6.08198">
        <ele>205.16925048828</ele>
        <time>2014-06-04T14:58:16Z</time>
      </trkpt>
      <trkpt lat="43.41506" lon="6.08177">
        <ele>205.06567382812</ele>
        <time>2014-06-04T14:58:22Z</time>
      </trkpt>
      <trkpt lat="43.41499" lon="6.08161">
        <ele>204.95166015625</ele>
        <time>2014-06-04T14:58:26Z</time>
      </trkpt>
      <trkpt lat="43.41484" lon="6.08137">
        <ele>203.97422790527</ele>
        <time>2014-06-04T14:58:32Z</time>
      </trkpt>
      <trkpt lat="43.41467" lon="6.08111">
        <ele>204.59576416016</ele>
        <time>2014-06-04T14:58:38Z</time>
      </trkpt>
      <trkpt lat="43.41449" lon="6.08081">
        <ele>204.2502746582</ele>
        <time>2014-06-04T14:58:45Z</time>
      </trkpt>
      <trkpt lat="43.41433" lon="6.08052">
        <ele>204.29652404785</ele>
        <time>2014-06-04T14:58:52Z</time>
      </trkpt>
      <trkpt lat="43.4142" lon="6.08029">
        <ele>204.94468688965</ele>
        <time>2014-06-04T14:58:58Z</time>
      </trkpt>
      <trkpt lat="43.41403" lon="6.08">
        <ele>204.50778198242</ele>
        <time>2014-06-04T14:59:05Z</time>
      </trkpt>
      <trkpt lat="43.41387" lon="6.07971">
        <ele>204.9288482666</ele>
        <time>2014-06-04T14:59:12Z</time>
      </trkpt>
      <trkpt lat="43.41372" lon="6.07949">
        <ele>204.89729309082</ele>
        <time>2014-06-04T14:59:18Z</time>
      </trkpt>
      <trkpt lat="43.41358" lon="6.07934">
        <ele>205.23982238769</ele>
        <time>2014-06-04T14:59:23Z</time>
      </trkpt>
      <trkpt lat="43.41338" lon="6.07914">
        <ele>205.16680908203</ele>
        <time>2014-06-04T14:59:30Z</time>
      </trkpt>
      <trkpt lat="43.41335" lon="6.07905">
        <ele>205.05694580078</ele>
        <time>2014-06-04T14:59:32Z</time>
      </trkpt>
      <trkpt lat="43.41333" lon="6.07897">
        <ele>205.02545166016</ele>
        <time>2014-06-04T14:59:34Z</time>
      </trkpt>
      <trkpt lat="43.4132" lon="6.07851">
        <ele>206.66250610352</ele>
        <time>2014-06-04T14:59:43Z</time>
      </trkpt>
      <trkpt lat="43.41309" lon="6.07809">
        <ele>207.77508544922</ele>
        <time>2014-06-04T14:59:51Z</time>
      </trkpt>
      <trkpt lat="43.41298" lon="6.07766">
        <ele>208</ele>
        <time>2014-06-04T15:00:00Z</time>
      </trkpt>
      <trkpt lat="43.41292" lon="6.07729">
        <ele>208.3757019043</ele>
        <time>2014-06-04T15:00:08Z</time>
      </trkpt>
      <trkpt lat="43.41294" lon="6.07693">
        <ele>209.02777099609</ele>
        <time>2014-06-04T15:00:16Z</time>
      </trkpt>
      <trkpt lat="43.41301" lon="6.07664">
        <ele>209.85278320312</ele>
        <time>2014-06-04T15:00:23Z</time>
      </trkpt>
      <trkpt lat="43.41308" lon="6.07641">
        <ele>209.99327087402</ele>
        <time>2014-06-04T15:00:29Z</time>
      </trkpt>
      <trkpt lat="43.41325" lon="6.07583">
        <ele>211.01892089844</ele>
        <time>2014-06-04T15:00:44Z</time>
      </trkpt>
      <trkpt lat="43.41332" lon="6.07556">
        <ele>211.9836730957</ele>
        <time>2014-06-04T15:00:51Z</time>
      </trkpt>
      <trkpt lat="43.41336" lon="6.07541">
        <ele>212.08441162109</ele>
        <time>2014-06-04T15:00:55Z</time>
      </trkpt>
      <trkpt lat="43.41338" lon="6.07533">
        <ele>212.15307617188</ele>
        <time>2014-06-04T15:00:57Z</time>
      </trkpt>
      <trkpt lat="43.41339" lon="6.07527">
        <ele>212.2080078125</ele>
        <time>2014-06-04T15:00:59Z</time>
      </trkpt>
      <trkpt lat="43.41343" lon="6.07507">
        <ele>212.34533691406</ele>
        <time>2014-06-04T15:01:05Z</time>
      </trkpt>
      <trkpt lat="43.41349" lon="6.07477">
        <ele>212.93409729004</ele>
        <time>2014-06-04T15:01:14Z</time>
      </trkpt>
      <trkpt lat="43.41353" lon="6.07451">
        <ele>213</ele>
        <time>2014-06-04T15:01:21Z</time>
      </trkpt>
      <trkpt lat="43.41358" lon="6.07437">
        <ele>213</ele>
        <time>2014-06-04T15:01:26Z</time>
      </trkpt>
      <trkpt lat="43.4136" lon="6.0742">
        <ele>213</ele>
        <time>2014-06-04T15:01:31Z</time>
      </trkpt>
      <trkpt lat="43.41366" lon="6.07388">
        <ele>213</ele>
        <time>2014-06-04T15:01:40Z</time>
      </trkpt>
      <trkpt lat="43.41372" lon="6.07364">
        <ele>213</ele>
        <time>2014-06-04T15:01:47Z</time>
      </trkpt>
      <trkpt lat="43.41374" lon="6.07357">
        <ele>213</ele>
        <time>2014-06-04T15:01:49Z</time>
      </trkpt>
      <trkpt lat="43.41383" lon="6.07314">
        <ele>213</ele>
        <time>2014-06-04T15:02:02Z</time>
      </trkpt>
      <trkpt lat="43.4139" lon="6.0729">
        <ele>213.03448486328</ele>
        <time>2014-06-04T15:02:09Z</time>
      </trkpt>
      <trkpt lat="43.41399" lon="6.07263">
        <ele>213.35034179688</ele>
        <time>2014-06-04T15:02:17Z</time>
      </trkpt>
      <trkpt lat="43.41405" lon="6.07244">
        <ele>213.58380126953</ele>
        <time>2014-06-04T15:02:23Z</time>
      </trkpt>
      <trkpt lat="43.41411" lon="6.07225">
        <ele>213.78979492188</ele>
        <time>2014-06-04T15:02:29Z</time>
      </trkpt>
      <trkpt lat="43.41419" lon="6.07202">
        <ele>214.07818603516</ele>
        <time>2014-06-04T15:02:37Z</time>
      </trkpt>
      <trkpt lat="43.41422" lon="6.07191">
        <ele>214.20178222656</ele>
        <time>2014-06-04T15:02:40Z</time>
      </trkpt>
      <trkpt lat="43.41426" lon="6.07179">
        <ele>214.33911132812</ele>
        <time>2014-06-04T15:02:44Z</time>
      </trkpt>
      <trkpt lat="43.41435" lon="6.07155">
        <ele>214.65496826172</ele>
        <time>2014-06-04T15:02:50Z</time>
      </trkpt>
      <trkpt lat="43.41446" lon="6.07121">
        <ele>215</ele>
        <time>2014-06-04T15:02:58Z</time>
      </trkpt>
      <trkpt lat="43.41447" lon="6.07117">
        <ele>215</ele>
        <time>2014-06-04T15:02:59Z</time>
      </trkpt>
      <trkpt lat="43.4145" lon="6.07109">
        <ele>215</ele>
        <time>2014-06-04T15:03:01Z</time>
      </trkpt>
      <trkpt lat="43.41456" lon="6.07092">
        <ele>215</ele>
        <time>2014-06-04T15:03:05Z</time>
      </trkpt>
      <trkpt lat="43.41465" lon="6.07079">
        <ele>215.14294433594</ele>
        <time>2014-06-04T15:03:09Z</time>
      </trkpt>
      <trkpt lat="43.41467" lon="6.07078">
        <ele>215.18756103516</ele>
        <time>2014-06-04T15:03:10Z</time>
      </trkpt>
      <trkpt lat="43.41479" lon="6.07072">
        <ele>215.67245483398</ele>
        <time>2014-06-04T15:03:15Z</time>
      </trkpt>
      <trkpt lat="43.41485" lon="6.07052">
        <ele>216.46771240234</ele>
        <time>2014-06-04T15:03:20Z</time>
      </trkpt>
      <trkpt lat="43.41493" lon="6.07027">
        <ele>216.74642944336</ele>
        <time>2014-06-04T15:03:26Z</time>
      </trkpt>
      <trkpt lat="43.415" lon="6.07006">
        <ele>217.01702880859</ele>
        <time>2014-06-04T15:03:31Z</time>
      </trkpt>
      <trkpt lat="43.41513" lon="6.06982">
        <ele>217.48394775391</ele>
        <time>2014-06-04T15:03:37Z</time>
      </trkpt>
      <trkpt lat="43.41519" lon="6.06976">
        <ele>217.67620849609</ele>
        <time>2014-06-04T15:03:39Z</time>
      </trkpt>
      <trkpt lat="43.41522" lon="6.06975">
        <ele>217.78607177734</ele>
        <time>2014-06-04T15:03:40Z</time>
      </trkpt>
      <trkpt lat="43.41529" lon="6.06973">
        <ele>218</ele>
        <time>2014-06-04T15:03:42Z</time>
      </trkpt>
      <trkpt lat="43.41552" lon="6.06969">
        <ele>218</ele>
        <time>2014-06-04T15:03:49Z</time>
      </trkpt>
      <trkpt lat="43.41567" lon="6.06966">
        <ele>218.40655517578</ele>
        <time>2014-06-04T15:03:54Z</time>
      </trkpt>
      <trkpt lat="43.41571" lon="6.06966">
        <ele>218.57135009766</ele>
        <time>2014-06-04T15:03:58Z</time>
      </trkpt>
      <trkpt lat="43.41571" lon="6.06966">
        <ele>218.57135009766</ele>
        <time>2014-06-04T15:04:23Z</time>
      </trkpt>
      <trkpt lat="43.41571" lon="6.06966">
        <ele>218.57135009766</ele>
        <time>2014-06-04T15:04:38Z</time>
      </trkpt>
    </trkseg>
  </trk>
</gpx>